     2              OBSERVATION DATA    GPS                 RINEX VERSION / TYPE
ASRINEXO V2.4.4 UX USGS 21-MAR-97 11:41                     PGM / RUN BY / DATE
                                                            COMMENT
Contact: kwendt@isdmnl.wr.usgs.gov (Ph: 415-329-4866)       COMMENT
Contact: kwendt@isdmnl.wr.usgs.gov (Ph: 415-329-4866)       COMMENT
Contact: kwendt@isdmnl.wr.usgs.gov (Ph: 415-329-4866)       COMMENT
Contact: kwendt@isdmnl.wr.usgs.gov (Ph: 415-329-4866)       COMMENT
Original Marker Name: benc Bench_1932_USC&GS                COMMENT
Campaign Name: USGS Parkfield                               COMMENT
4-Character Station Name: BENC                              COMMENT
6-Character Antenna Code: ASHL12                            COMMENT
Vertical Measurement Point: BBE                             COMMENT
Vertical Offset to Rinex Ref. Point: 0.0595                 COMMENT
Radial Measurement Point: EGP                               COMMENT
Radial Offset to Rinex Ref. Point: 0.1424                   COMMENT
Antenna Height from Field Measurement: 1.3160 m             COMMENT
Additional Antenna Identification Info.:                    COMMENT
Original Ashtech L1/L2 (700228ABC)                          COMMENT
Original XYZ: -2619045.8785 -4472810.7898 3705758.7226      COMMENT
New XYZ position is based on association with SCEC monument COMMENT
E1F1E5C7+0011. Position of that monument is believed to be  COMMENT
valid to within 1 m horizontally; vertical accuracy         COMMENT
should be no worse than 3-times this value.                 COMMENT
                                                            COMMENT
Revised Rinex header created by UCSD GPS archive for        COMMENT
GSAC on 17-Jul-2000 (2000:199) 23:37:48 GMT                 COMMENT
For assistance contact dagnew@ucsd.edu                      COMMENT
or anderson@python.ucsd.edu                                 COMMENT
                                                            COMMENT
BENCH 1932                                                  MARKER NAME
GDH US GEOLOGICAL SURVEY                                    OBSERVER / AGENCY
597 ASHTECH Z-XII3 1E95                                     REC # / TYPE / VERS
598 ASHTECH GEODETIC L                                      ANT # / TYPE
 -2618992.0308 -4472668.0828  3705683.6220                  APPROX POSITION XYZ
        1.2488        0.0000        0.0000                  ANTENNA: DELTA H/E/N
     1     1     0                                          WAVELENGTH FACT L1/2
     5    C1    L1    L2    P1    P2                        # / TYPES OF OBSERV
    30                                                      INTERVAL
  1997     3    19     0    13    0.000000                  TIME OF FIRST OBS
  1997     3    19    23    58   60.000000                  TIME OF LAST OBS
                                                            END OF HEADER
 97  3 19  0 13  0.0000000  0  6 30  4  5  9 10 24
  22545658.235     -558190.56149   -415363.80749  22545658.5654   22545665.5844
  22211903.349       76841.15149     56547.58249  22211903.7894   22211910.6844
  20835942.279     -359321.07949   -255268.77449  20835941.1884   20835948.5244
  22542060.072       68982.65549     51340.46149  22542060.5764   22542068.7684
  23807546.904     -539931.44449   -384036.86549  23807539.4934   23807548.7904
  20628340.800     -190451.69049   -141012.76349  20628340.8474   20628348.6174
 97  3 19  0 13 30.0000000  0  6 30  4  5  9 10 24
  22517601.431     -705631.47549   -530252.78949  22517601.9494   22517608.9924
  22215051.707       93384.76149     69438.71949  22215051.7304   22215058.7944
  20816572.111     -461111.84149   -334586.22749  20816571.0884   20816578.4224
  22544893.063       83868.15949     62939.53649  22544893.4054   22544901.1444
  23778469.963     -692728.29449   -503099.28749  23778462.9234   23778472.4674
  20618670.206     -241272.64149   -180613.47649  20618670.0524   20618677.8564
 97  3 19  0 14  0.0000000  0  6 30  4  5  9 10 24
  22489408.867     -853785.10749   -645697.16649  22489408.8064   22489415.3184
  22218092.190      109361.93249     81888.44949  22218092.3754   22218099.7514
  20797111.032     -563380.15749   -414275.82449  20797110.5704   20797117.6434
  22547617.328       98182.44249     74093.49749  22547617.6194   22547625.3694
  23749247.498     -846278.70949   -622748.86349  23749243.2614   23749252.7104
  20608934.208     -292436.11149   -220481.10649  20608933.9924   20608941.8464
 97  3 19  0 14 30.0000000  0  6 30  4  5  9 10 24
  22461069.481    -1002709.79949   -761742.34049  22461069.5154   22461076.2504
  22221011.582      124703.13549     93842.62549  22221011.5144   22221018.7364
  20777546.291     -666194.02949   -494390.51949  20777545.7844   20777552.7544
  22550221.755      111867.84149     84757.41249  22550221.5264   22550229.5554
  23719868.807    -1000659.58049   -743045.58149  23719865.0994   23719875.2994
  20599117.401     -344024.11849   -260679.54349  20599117.0484   20599124.7304
 97  3 19  0 15  0.0000000  0  6 30  4  5  9 10 24
  22432584.232    -1152400.94349   -878384.76249  22432584.4654   22432591.0904
  22223810.366      139410.85049    105303.17749  22223810.3464   22223817.7174
  20757876.497     -769559.79649   -574935.26949  20757875.6524   20757882.9024
  22552707.390      124929.33449     94935.15449  22552707.6154   22552715.0814
  23690330.019    -1155883.91949   -863999.53049  23690327.1484   23690337.0914
  20589219.189     -396039.85649   -301211.27349  20589218.6814   20589226.4964
 97  3 19  0 15 30.0000000  0  6 30  4  5  9 10 24
  22403955.275    -1302847.07749   -995615.48849  22403955.2754   22403962.2954
  22226486.427      153473.62649    116261.17449  22226486.8334   22226493.7374
  20738099.560     -873488.24249   -655918.46349  20738098.7634   20738106.0594
  22555070.177      137345.44349    104610.01949  22555070.0104   22555078.0844
  23660628.211    -1311965.37749   -985621.36949  23660626.1094   23660635.6524
  20579232.426     -448520.62249   -342105.36949  20579231.9944   20579239.7984
 97  3 19  0 16  0.0000000  0  6 30  4  5  9 10 24
  22375200.649    -1453953.74849  -1113360.91949  22375200.6214   22375207.3704
  22229053.382      166963.17249    126772.49949  22229053.2074   22229060.4624
  20718232.206     -977892.05149   -737272.06649  20718231.6374   20718238.8334
  22557324.682      149192.78849    113841.68649  22557324.5994   22557332.3924
  23630779.786    -1468817.97649  -1107844.09249  23630778.1134   23630788.0784
  20569167.985     -501409.57349   -383317.52049  20569167.4524   20569175.1094
 97  3 19  0 16 30.0000000  0  6 30  4  5  9 10 24
  22346341.132    -1605611.66549  -1231535.89049  22346340.9804   22346347.6554
  22231532.010      179988.26749    136921.91749  22231532.1614   22231539.1394
  20698298.238    -1082645.96849   -818898.49249  20698297.5674   20698304.9194
  22559494.073      160592.68949    122724.68949  22559493.6584   22559501.9894
  23600809.039    -1626313.81549  -1230568.05949  23600806.8114   23600816.8254
  20559046.755     -554596.74949   -424762.05749  20559046.3384   20559054.0554
 97  3 19  0 17  0.0000000  0  6 30  4  5  9 10 24
  22317383.495    -1757785.17549  -1350112.62649  22317383.7274   22317390.7814
  22233929.589      192587.37549    146739.38349  22233929.3614   22233936.5414
  20678303.526    -1187718.87149   -900773.46649  20678302.9394   20678309.8734
  22561581.043      171559.94749    131270.59949  22561580.3034   22561589.1184
  23570721.952    -1784420.68149  -1353768.13349  23570720.6904   23570729.6584
  20548876.318     -608042.46749   -466408.06349  20548875.7294   20548883.6384
 97  3 19  0 17 30.0000000  0  6 30  4  5  9 10 24
  22288355.199    -1910329.95049  -1468978.64749  22288355.0934   22288362.1914
  22236272.634      204899.86449    156333.52449  22236272.6294   22236279.6234
  20658272.624    -1292982.23549   -982796.86149  20658272.1864   20658279.3694
  22563610.151      182223.32149    139579.69849  22563609.8384   22563618.2744
  23540548.213    -1942983.93149  -1477323.84149  23540544.8104   23540555.8244
  20538683.425     -661606.27749   -508146.08549  20538682.9064   20538691.0954
 97  3 19  0 18  0.0000000  0  6 30  4  5  9 10 24
  22259265.574    -2063196.92449  -1588095.74849  22259265.4214   22259272.5144
  22238573.155      216988.90549    165753.54349  22238573.3264   22238580.5614
  20638217.131    -1398374.90349  -1064921.00549  20638216.3404   20638223.6434
  22565594.653      192651.91849    147705.84249  22565593.6254   22565602.9064
  23510301.654    -2101929.34849  -1601177.37749  23510299.8584   23510310.3964
  20528484.872     -715200.33149   -549907.68649  20528484.6264   20528492.3664
 97  3 19  0 18 30.0000000  0  6 30  4  5  9 10 24
  22230101.230    -2216456.23749  -1707518.55349  22230100.8014   22230108.0624
  22240817.358      228782.11349    174943.04949  22240817.1534   22240824.8674
  20618118.084    -1503996.14849  -1147223.27049  20618117.3844   20618124.6604
  22567518.688      202762.82349    155584.43549  22567518.6524   22567527.3394
  23479966.136    -2261342.83949  -1725395.61949  23479964.4594   23479975.4534
  20518267.933     -768890.85949   -591744.45649  20518267.6994   20518275.2714
 97  3 19  0 19  0.0000000  0  6 30  4  5  9 10 24
  22200870.974    -2370062.10349  -1827211.40449  22200870.5274   22200877.5024
  22243009.434      240301.38749    183919.09949  22243009.3554   22243016.6854
  20597979.025    -1609827.45749  -1229689.20149  20597978.1664   20597985.6624
  22569386.255      212576.22849    163231.22249  22569386.0294   22569394.6664
  23449547.875    -2421191.68949  -1849953.07549  23449547.0964   23449557.0164
  20508037.693     -822651.40949   -633635.78749  20508037.4914   20508044.9614
 97  3 19  0 19 30.0000000  0  6 30  4  5  9 10 24
  22171593.324    -2523916.96349  -1947098.28049  22171593.4554   22171599.9844
  22245163.011      251618.24949    192737.42449  22245163.2744   22245170.1234
  20577820.528    -1715760.98249  -1312234.78849  20577819.8224   20577827.3234
  22571214.334      222181.87549    170716.11949  22571214.5234   22571222.5304
  23419069.235    -2581358.55049  -1974758.37949  23419068.1274   23419077.6174
  20497810.536     -876395.20349   -675514.05649  20497809.9514   20497817.8704
 97  3 19  0 20  0.0000000  0  7 30  4  5  6  9 10 24
  22142273.463    -2677993.56249  -2067157.93849  22142273.2734   22142280.0344
  22247280.142      262743.58749    201406.51549  22247280.0494   22247286.9644
  20557649.075    -1821762.62149  -1394833.45749  20557648.4664   20557655.8964
  24182232.938                                    24182234.587    24182240.8184
  22573006.484      231598.80549    178053.97049  22573006.6534   22573014.7024
  23388533.905    -2741822.61749  -2099795.24349  23388532.2564   23388543.4304
  20487590.778     -930100.14049   -717362.05949  20487590.4464   20487598.1214
 97  3 19  0 20 30.0000000  0  7 30  4  5  6  9 10 24
  22112914.862    -2832274.03949  -2187376.46249  22112914.6884   22112921.4024
  22249361.332      273680.31249    209928.62749  22249361.6574   22249368.5644
  20537466.638    -1927821.82949  -1477476.98249  20537465.8684   20537473.3214
  24155262.707     -338818.01059                  24155260.461    24155269.5764
  22574763.750      240832.07349    185248.69349  22574764.2164   22574771.3154
  23357942.904    -2902578.65549  -2225059.63249  23357941.1944   23357952.8024
  20477374.730     -983786.01249   -759195.18449  20477374.5094   20477381.8814
 97  3 19  0 21  0.0000000  0  7 30  4  5  6  9 10 24
  22083520.000    -2986744.84649  -2307743.29649  22083520.3374   22083526.7824
  22251410.531      284448.84149    218319.67949  22251410.4994   22251418.0424
  20517285.143    -2033876.34149  -1560116.85349  20517284.5004   20517291.8594
  24128220.569     -594934.03959   -449549.42949  24128218.8824   24128227.0554
  22576493.026      249919.07449    192329.42749  22576492.6394   22576500.9564
  23327304.310    -3063585.47249  -2350519.44149  23327302.7644   23327313.5514
  20467166.531    -1037430.54749   -800996.11549  20467166.3664   20467173.8894
 97  3 19  0 21 30.0000000  0  7 30  4  5  6  9 10 24
  22054091.733    -3141391.31249  -2428246.99549  22054091.5404   22054098.4254
  22253435.606      295090.37449    226611.77649  22253435.6574   22253442.9924
  20497111.136    -2139891.43749  -1642726.00749  20497110.4464   20497117.8874
  24101111.994     -737387.21049   -560551.82949  24101111.4684   24101120.1034
  22578200.109      258889.37349    199319.24649  22578199.6284   22578207.9384
  23296622.138    -3224821.01849  -2476157.47949  23296621.4654   23296630.8374
  20456970.736    -1091009.96549   -842746.30249  20456970.4844   20456977.9464
 97  3 19  0 22  0.0000000  0  7 30  4  5  6  9 10 24
  22024635.116    -3296186.73149  -2548866.75749  22024634.9824   22024642.0464
  22255444.340      305646.07649    234836.98749  22255444.8664   22255451.4594
  20476948.158    -2245848.59549  -1725290.01549  20476947.4244   20476954.9574
  24073940.860     -880172.29249   -671812.86349  24073940.1384   24073948.4534
  22579892.296      267782.30749    206248.76749  22579891.5664   22579899.9224
  23265899.343    -3386270.40049  -2601962.13949  23265897.8644   23265908.0364
  20446792.324    -1144497.84549   -884425.15749  20446791.6914   20446799.4504
 97  3 19  0 22 30.0000000  0  7 30  4  5  6  9 10 24
  21995156.252    -3451099.52149  -2669577.99149  21995156.3904   21995163.0754
  22257443.268      316150.26549    243022.06249  22257443.7924   22257450.6624
  20456804.572    -2351703.88649  -1807774.64649  20456803.9494   20456811.1544
  24046714.504    -1023248.04149   -783300.39549  24046713.1674   24046721.6444
  22581576.100      276631.01849    213143.83949  22581575.8604   22581584.1524
  23235143.752    -3547891.66449  -2727900.68449  23235142.9354   23235152.3054
  20436639.894    -1197849.15849   -925997.59949  20436639.3994   20436647.3744
 97  3 19  0 23  0.0000000  0  7 30  4  5  6  9 10 24
  21965656.085    -3606123.97849  -2790376.23649  21965656.3334   21965662.8954
  22259433.390      326608.13749    251171.03849  22259433.6354   22259440.9184
  20436683.013    -2457443.56849  -1890169.19549  20436682.5694   20436689.7054
  24019437.175    -1166590.91349   -894996.07449  24019436.9704   24019444.9844
  22583251.801      285436.92149    220005.54649  22583251.4904   22583259.5154
  23204359.645    -3709663.34549  -2853956.47149  23204358.6574   23204368.3644
  20426520.254    -1251027.93849   -967435.60649  20426519.7254   20426527.9774
 97  3 19  0 23 30.0000000  0  7 30  4  5  6  9 10 24
  21936142.387    -3761219.77449  -2911230.07849  21936142.6044   21936149.2964
  22261417.580      337034.93449    259295.79949  22261417.7814   22261424.6564
  20416582.576    -2563072.41349  -1972477.38149  20416582.1144   20416589.3854
  23992119.289    -1310146.63949  -1006857.58849  23992119.0124   23992126.9134
  22584921.217      294209.93049    226841.63149  22584920.7054   22584929.3834
  23173551.229    -3871562.68249  -2980111.74549  23173549.3764   23173559.6694
  20416439.762    -1304001.42349  -1008713.64249  20416439.5934   20416447.3384
 97  3 19  0 23 59.9990000  0  7 30  4  5  6  9 10 24
  21906610.914    -3916409.21749  -3032156.89649  21906611.0994   21906617.3994
  22263385.516      347376.68249    267354.29549  22263385.2594   22263392.5844
  20396498.482    -2668615.46549  -2054718.71749  20396497.8484   20396505.1604
  23964757.619    -1453932.49649  -1118898.43749  23964756.9244   23964765.3374
  22586575.759      302904.77849    233616.80949  22586575.1994   22586583.7774
  23142714.818    -4033608.73549  -3106381.33949  23142713.7134   23142723.4074
  20406394.266    -1356791.17749  -1049848.50649  20406394.0874   20406401.7534
 97  3 19  0 24 29.9990000  0  7 30  4  5  6  9 10 24
  21877059.854    -4071701.06849  -3153163.50649  21877059.5374   21877066.3604
  22265337.797      357635.93849    275348.50349  22265337.7774   22265344.9744
  20376431.972    -2774066.07849  -2136888.02149  20376431.3304   20376438.6004
  23937349.335    -1597963.00049  -1231129.92649  23937349.1784   23937357.4344
  22588214.343      311515.97049    240326.80149  22588213.5354   22588221.9014
  23111848.939    -4195809.72849  -3232771.65649  23111847.4714   23111857.6114
  20396382.689    -1409402.30449  -1090844.18149  20396382.3684   20396390.2264
 97  3 19  0 24 59.9990000  0  7 30  4  5  6  9 10 24
  21847496.314    -4227058.58949  -3274221.28649  21847496.3134   21847503.1224
  22267280.839      367846.82449    283305.02049  22267280.3434   22267288.1324
  20356386.949    -2879403.42749  -2218969.06749  20356386.2474   20356393.5254
  23909896.653    -1742227.37549  -1343543.67349  23909895.8044   23909904.6454
  22589842.100      320070.04449    246992.28549  22589841.7984   22589850.3264
  23080957.823    -4358142.95349  -3359265.01549  23080956.2564   23080966.9604
  20386407.627    -1461821.82149  -1131690.55249  20386407.6444   20386415.2224
 97  3 19  0 25 29.9990000  0  7 30  4  5  6  9 10 24
  21817925.254    -4382455.67449  -3395309.89349  21817925.2054   21817931.6304
  22269217.028      378021.98949    291233.69949  22269216.7324   22269224.8074
  20336365.696    -2984615.91349  -2300952.82049  20336364.9384   20336372.2354
  23882398.369    -1886731.52549  -1456144.25649  23882398.5994   23882406.6444
  22591460.815      328575.97449    253620.25549  22591460.2874   22591469.2474
  23050042.337    -4520604.47449  -3485858.34349  23050041.1494   23050051.1474
  20376468.356    -1514053.34649  -1172390.43449  20376468.2954   20376476.1594
 97  3 19  0 25 59.9990000  0  7 30  4  5  6  9 10 24
  21788345.161    -4537900.25949  -3516435.51249  21788345.1334   21788351.9884
  22271147.407      388166.33249    299138.36249  22271147.0964   22271155.1864
  20316370.896    -3089689.09249  -2382828.01949  20316369.9804   20316377.3964
  23854847.411    -2031513.06949  -1568960.99049  23854847.4634   23854855.4314
  22593068.958      337026.22949    260204.84249  22593068.9444   22593077.4114
  23019102.214    -4683195.87549  -3612552.88049  23019101.1884   23019110.9744
  20366561.957    -1566111.89949  -1212955.53349  20366561.8034   20366569.4004
 97  3 19  0 26 29.9990000  0  7 30  4  5  6  9 10 24
  21758769.347    -4693322.27249  -3637543.54649  21758769.0184   21758775.7674
  22273083.339      398339.49249    307065.49049  22273083.6954   22273091.1394
  20296413.162    -3194567.44149  -2464551.40449  20296412.3164   20296419.6664
  23827251.911    -2176528.51249  -1681959.98549  23827251.2374   23827259.6604
  22594677.029      345476.41449    266789.37649  22594677.5704   22594685.1464
  22988148.552    -4845858.70849  -3739303.07849  22988147.5574   22988156.7504
  20356697.956    -1617947.60349  -1253346.98949  20356697.7014   20356705.4044
 97  3 19  0 26 59.9990000  0  7 30  4  5  6  9 10 24
  21729205.626    -4848680.59349  -3758601.95049  21729205.5544   21729211.9184
  22275028.312      408560.15749    315029.63549  22275028.5394   22275035.7154
  20276497.695    -3299223.65549  -2546101.69849  20276496.8634   20276504.3644
  23799620.159    -2321733.98849  -1795107.06149  23799619.6964   23799627.8844
  22596289.489      353949.66649    273391.88949  22596288.9854   22596297.9704
  22957191.232    -5008540.64849  -3866068.15749  22957189.9384   22957199.8654
  20346883.788    -1669521.47549  -1293534.41949  20346883.3064   20346891.2654
 97  3 19  0 27 29.9990000  0  7 30  4  5  6  9 10 24
  21699667.426    -5003904.60549  -3879555.69549  21699667.1834   21699674.2524
  22276992.819      418883.70849    323073.95349  22276992.9894   22277000.1874
  20256640.132    -3403575.45349  -2627414.78349  20256639.3004   20256646.8764
  23771968.165    -2467045.67449  -1908336.92749  23771967.4094   23771975.8224
  22597918.910      362512.24249    280064.00349  22597918.2674   22597927.0914
  22926246.991    -5171153.15149  -3992779.13249  22926245.4514   22926255.5944
  20337132.276    -1720765.87749  -1333465.11949  20337131.6874   20337139.6464
 97  3 19  0 27 59.9990000  0  7 30  4  5  6  9 10 24
  21670137.721    -5159084.11349  -4000474.77149  21670137.5064   21670143.8764
  22278959.965      429221.10649    331129.06849  22278959.9874   22278967.4614
  20236825.514    -3507701.96349  -2708552.31749  20236825.0584   20236832.4964
  23744286.568    -2612513.05049  -2021688.09649  23744286.0734   23744294.5004
  22599551.484      371091.58449    286749.18449  22599551.5064   22599559.9974
  22895304.831    -5333754.82949  -4119481.66649  22895304.0214   22895313.6854
  20327429.684    -1771753.20249  -1373195.49549  20327429.1144   20327437.4264
 97  3 19  0 28 29.9990000  0  7 30  4  5  6  9 10 24
  21640631.889    -5314138.35949  -4121296.23749  21640631.9924   21640638.1064
  22280940.604      439629.27849    339239.31749  22280941.1654   22280948.1494
  20217065.912    -3611539.51149  -2789464.69349  20217065.2574   20217072.7724
  23716595.134    -2758032.77049  -2135080.04049  23716594.9934   23716603.1514
  22601202.323      379766.80149    293509.06349  22601201.7444   22601210.6664
  22864381.070    -5496260.31549  -4246109.26049  22864380.0994   22864389.5654
  20317790.990    -1822405.04849  -1412664.46749  20317790.8464   20317798.5674
 97  3 19  0 28 59.9990000  0  7 30  4  5  6  9 10 24
  21611131.799    -5469162.48049  -4242094.22649  21611131.5754   21611138.3834
  22282918.654      450023.75049    347338.89449  22282918.7464   22282925.8394
  20197345.397    -3715171.39549  -2870216.80049  20197344.8194   20197352.2534
  23688883.161    -2903660.87949  -2248556.45649  23688882.8984   23688890.8614
  22602856.518      388459.17149    300282.31049  22602856.2684   22602864.5794
  22833461.853    -5658742.07049  -4372718.36249  22833461.2744   22833470.7304
  20308199.610    -1872808.35349  -1451939.76949  20308199.3464   20308206.9244
 97  3 19  0 29 29.9990000  0  7 30  4  5  6  9 10 24
  21581630.775    -5624191.53449  -4362896.05549  21581630.7384   21581637.0264
  22284888.353      460374.46849    355404.38449  22284888.7134   22284895.9554
  20177658.281    -3818627.81149  -2950832.17849  20177657.4484   20177664.9814
  23661144.695    -3049427.62449  -2362140.90449  23661144.1214   23661152.2514
  22604508.883      397141.80049    307047.97949  22604508.3054   22604517.0304
  22802538.570    -5821245.45349  -4499344.31849  22802537.2324   22802546.9674
  20298646.870    -1923008.26949  -1491056.58349  20298646.4294   20298654.2604
 97  3 19  0 29 59.9990000  0  7 30  4  5  6  9 10 24
  21552128.409    -5779227.77249  -4483703.49049  21552128.2824   21552134.8054
  22286849.865      470682.06649    363436.27049  22286849.9854   22286857.4724
  20158000.213    -3921931.65049  -3031328.66849  20157999.3974   20158007.0334
  23633374.493    -3195360.75149  -2475855.00149  23633373.7764   23633382.1304
  22606157.445      405805.23849    313798.68849  22606156.5934   22606165.4684
  22771608.602    -5983783.75949  -4625997.49149  22771608.0344   22771617.0664
  20289130.270    -1973018.55749  -1530025.63349  20289130.2074   20289137.8194
 97  3 19  0 30 29.9990000  0  7 30  4  5  6  9 10 24
  21522634.022    -5934221.81649  -4604478.05449  21522634.0404   21522639.9664
  22288814.721      481007.18149    371481.80649  22288815.0344   22288822.6274
  20138382.156    -4025025.11249  -3111661.22949  20138381.3694   20138388.9804
  23605576.418    -3341440.15149  -2589683.07249  23605575.6704   23605584.0894
  22607809.636      414487.66749    320564.19949  22607809.8594   22607817.5654
  22740678.321    -6146323.58249  -4752651.83749  22740676.9474   22740686.3154
  20279655.880    -2022807.02149  -1568821.83649  20279655.6274   20279663.2594
 97  3 19  0 30 59.9990000  0  7 30  4  5  6  9 10 24
  21493145.198    -6089186.80549  -4725229.97049  21493145.1354   21493151.6204
  22290781.746      491343.83549    379536.33449  22290781.5834   22290789.5264
  20118806.089    -4127898.12549  -3191822.00849  20118805.2514   20118813.0074
  23577745.802    -3487690.10949  -2703644.04949  23577744.5274   23577752.9834
  22609463.881      423180.81149    327338.05949  22609463.6944   22609472.1894
  22709745.008    -6308879.76349  -4879318.94249  22709744.0614   22709753.0204
  20270222.177    -2072381.11249  -1607450.99249  20270221.9974   20270229.6954
 97  3 19  0 31 29.9990000  0  7 30  4  5  6  9 10 24
  21463671.107    -6244074.06849  -4845921.32649  21463670.9204   21463677.4064
  22292758.594      501732.03149    387631.02949  22292758.9544   22292765.9504
  20099279.550    -4230510.74049  -3271779.88549  20099278.8394   20099286.3164
  23549886.618    -3634090.46949  -2817722.21849  23549886.7934   23549894.4654
  22611126.374      431917.49749    334145.84449  22611126.1034   22611135.2294
  22678813.812    -6471424.45649  -5005977.09749  22678812.9444   22678822.1854
  20260839.132    -2121689.79449  -1645873.33249  20260839.1234   20260846.3824
 97  3 19  0 31 59.9990000  0  7 30  4  5  6  9 10 24
  21434203.658    -6398926.35049  -4966585.42449  21434203.7504   21434209.6204
  22294734.815      512116.65549    395722.94149  22294735.2164   22294742.6424
  20079795.771    -4332898.80549  -3351562.79649  20079794.8774   20079802.5214
  23521990.049    -3780688.30549  -2931954.26549  23521989.6954   23521997.7134
  22612785.935      440638.40549    340941.33649  22612786.2044   22612794.2894
  22647876.954    -6633998.56549  -5132658.17549  22647875.6224   22647884.4664
  20251500.818    -2170763.41649  -1684112.51349  20251500.7084   20251508.1404
 97  3 19  0 32 29.9990000  0  7 30  4  5  6  9 10 24
  21404745.744    -6553728.63549  -5087210.56749  21404745.5434   21404751.5954
  22296711.253      522502.78549    403816.01849  22296711.2084   22296719.1804
  20060361.013    -4435028.91949  -3431144.70349  20060360.0824   20060367.7484
  23494063.143    -3927445.20349  -3046310.24249  23494063.0094   23494071.2544
  22614442.785      449344.61349    347725.36549  22614442.5274   22614451.7104
  22616937.336    -6796587.09349  -5259350.49649  22616936.4114   22616945.2084
  20242212.431    -2219574.35449  -1722147.01249  20242211.9984   20242219.6014
 97  3 19  0 32 59.9990000  0  7 30  4  5  6  9 10 24
  21375307.790    -6708426.18549  -5207754.10149  21375307.6324   21375314.1294
  22298693.981      532922.20449    411935.03649  22298693.3764   22298701.3474
  20040979.985    -4536876.54049  -3510506.48249  20040979.4294   20040986.8664
  23466113.530    -4074321.29149  -3160759.10249  23466112.8784   23466121.2244
  22616102.366      458065.36749    354520.73849  22616101.9384   22616110.4844
  22586002.095    -6959152.99049  -5386025.17349  22586001.0674   22586009.9074
  20232981.873    -2268081.10149  -1759944.47449  20232981.7484   20232989.4254
 97  3 19  0 33 29.9990000  0  7 30  4  5  6  9 10 24
  21345890.233    -6863016.18649  -5328213.83249  21345889.7784   21345896.3964
  22300683.175      543375.44149    420080.40449  22300683.8784   22300690.8204
  20021648.668    -4638463.50949  -3589665.15749  20021648.0024   20021655.4834
  23438136.082    -4221343.24849  -3275321.61949  23438135.8564   23438143.7114
  22617758.573      466768.86049    361302.66349  22617758.6224   22617767.4054
  22555069.976    -7121702.52749  -5512687.09949  22555069.0514   22555077.8474
  20223803.641    -2316313.33149  -1797528.03249  20223803.3924   20223810.9494
 97  3 19  0 33 59.9990000  0  7 30  4  5  6  9 10 24
  21316491.609    -7017506.75849  -5448596.07249  21316491.5304   21316498.2864
  22302674.530      553839.97349    428234.57849  22302675.0694   22302682.0594
  20002364.434    -4739802.92949  -3668630.93649  20002363.7024   20002371.0504
  23410127.052    -4368531.90449  -3390014.01849  23410126.6374   23410135.0164
  22619407.116      475431.88149    368053.04249  22619406.9404   22619415.3004
  22524141.209    -7284234.26449  -5639335.15449  22524140.0024   22524149.0584
  20214668.236    -2364320.28049  -1834936.04249  20214667.8774   20214675.6024
 97  3 19  0 34 29.9980000  0  7 30  4  5  6  9 10 24
  21287112.503    -7171894.72349  -5568898.36749  21287112.6194   21287119.1014
  22304667.782      564314.28749    436396.36749  22304667.8804   22304675.1264
  19983123.924    -4840912.65049  -3747417.72949  19983123.3224   19983130.7634
  23382084.691    -4515895.20849  -3504842.50249  23382083.8704   23382092.9834
  22621047.835      484054.17749    374771.69549  22621046.9854   22621055.6474
  22493217.374    -7446740.19749  -5765963.09449  22493216.7404   22493225.0864
  20205571.565    -2412123.22049  -1872185.09349  20205570.9744   20205578.7614
 97  3 19  0 34 59.9980000  0  7 30  4  5  6  9 10 24
  21257758.866    -7326148.93149  -5689096.44049  21257758.8604   21257765.3684
  22306668.827      574829.74649    444590.20949  22306668.9044   22306676.2694
  19963930.249    -4941776.02049  -3826012.56449  19963929.4094   19963936.8564
  23354010.709    -4663424.32049  -3619800.19249  23354010.6154   23354018.3724
  22622689.581      492681.46849    381494.23949  22622689.4584   22622698.1794
  22462305.172    -7609185.14749  -5892543.52549  22462304.5104   22462312.9734
  20196517.435    -2459703.01649  -1909260.25849  20196517.1824   20196524.7224
 97  3 19  0 35 29.9980000  0  7 30  4  5  6  9 10 24
  21228432.522    -7480259.81549  -5809182.82749  21228432.6824   21228439.1764
  22308678.255      585389.36849    452818.46749  22308678.2034   22308685.8504
  19944789.170    -5042363.00749  -3904392.03649  19944788.5004   19944795.9924
  23325912.812    -4811079.82849  -3734856.37249  23325912.8674   23325920.6904
  22624335.633      501331.18249    388234.24249  22624334.9894   22624344.0344
  22431413.676    -7771521.25949  -6019039.15049  22431412.4264   22431421.7444
  20187509.572    -2507039.98449  -1946146.20849  20187509.5284   20187516.9074
 97  3 19  0 35 59.9980000  0  7 30  4  5  6  9 10 24
  21199131.789    -7634236.42949  -5929164.59249  21199132.0164   21199138.2944
  22310692.759      595975.67949    461067.52649  22310692.9294   22310699.8684
  19925702.097    -5142666.33349  -3982550.47549  19925701.6444   19925709.1284
  23297796.997    -4958830.11549  -3849986.40249  23297796.1414   23297803.9044
  22625988.879      510018.95949    395003.91749  22625988.9144   22625998.3114
  22400542.758    -7933748.96149  -6145450.30049  22400541.4184   22400550.8324
  20178551.025    -2554118.00549  -1982830.37849  20178550.8904   20178558.3844
 97  3 19  0 36 29.9980000  0  7 30  4  5  6  9 10 24
  21169852.899    -7788098.21249  -6049056.87649  21169852.9364   21169859.1904
  22312709.552      606574.07449    469325.99849  22312709.6034   22312716.6584
  19906666.631    -5242698.69449  -4060497.77149  19906666.0524   19906673.5544
  23269660.681    -5106687.84349  -3965200.15649  23269660.6494   23269668.3064
  22627648.008      518737.23749    401797.36149  22627646.7364   22627656.1584
  22369687.813    -8095892.59649  -6271795.95149  22369686.5984   22369695.3794
  20169643.724    -2600926.47149  -2019304.50849  20169643.3364   20169650.7054
 97  3 19  0 36 59.9980000  0  7 30  4  5  6  9 10 24
  21140592.230    -7941864.19149  -6168874.50849  21140592.2334   21140598.2264
  22314724.253      617161.41949    477575.86649  22314724.0584   22314731.6334
  19887680.275    -5342473.06049  -4138244.03549  19887679.8064   19887687.1504
  23241501.880    -5254663.24649  -4080505.60149  23241501.1744   23241508.8004
  22629307.531      527458.09849    408592.81349  22629307.0174   22629315.7154
  22338845.896    -8257967.56349  -6398088.07649  22338844.3104   22338853.4434
  20160784.267    -2647483.29549  -2055582.54949  20160784.0204   20160791.2054
 97  3 19  0 37 29.9980000  0  7 30  4  5  6  9 10 24
  21111349.261    -8095536.98749  -6288619.53749  21111349.2174   21111355.7674
  22316737.322      627740.51149    485819.29449  22316737.4044   22316745.1754
  19868747.165    -5441967.64749  -4215772.28849  19868746.6234   19868753.9604
  23213321.634    -5402751.25249  -4195898.80449  23213320.9524   23213329.6114
  22630966.676      536176.71849    415386.51949  22630967.2374   22630975.4464
  22308015.722    -8419980.70549  -6524332.03849  22308014.4634   22308023.3124
  20151973.093    -2693786.53849  -2091662.99349  20151972.9394   20151980.2784
 97  3 19  0 37 59.9980000  0  7 30  4  5  6  9 10 24
  21082127.747    -8249096.92349  -6408276.61149  21082127.2774   21082134.1784
  22318750.558      638320.11849    494063.13149  22318750.7804   22318758.1134
  19849868.404    -5541176.45949  -4293077.85549  19849867.7034   19849875.2204
  23185118.498    -5550958.97149  -4311385.28049  23185117.5574   23185126.2354
  22632626.252      544897.33249    422181.78549  22632625.8994   22632634.8814
  22277194.679    -8581945.74949  -6650538.51649  22277192.9204   22277202.2134
  20143209.748    -2739838.29549  -2127547.47149  20143209.3764   20143216.9074
 97  3 19  0 38 29.9980000  0  7 30  4  5  6  9 10 24
  21052934.852    -8402506.30249  -6527816.37849  21052934.4174   21052941.4474
  22320769.789      648931.05549    502331.38749  22320769.5834   22320777.1724
  19831049.209    -5640072.11349  -4370139.40649  19831048.5614   19831055.8864
  23156894.161    -5699278.15049  -4426958.61549  23156894.1364   23156902.0744
  22634288.705      553633.08449    428988.84449  22634288.5484   22634296.6934
  22246390.836    -8743820.32349  -6776674.49749  22246389.7854   22246398.8184
  20134498.790    -2785614.49349  -2163217.23849  20134498.3074   20134505.8614
 97  3 19  0 38 59.9980000  0  7 30  4  5  6  9 10 24
  21023773.503    -8555750.16249  -6647227.16849  21023773.6644   21023779.9734
  22322797.204      659585.08649    510633.22249  22322796.8694   22322804.1794
  19812292.023    -5738641.90749  -4446947.04149  19812291.2664   19812298.7214
  23128652.635    -5847688.58349  -4542603.05449  23128652.3974   23128659.6034
  22635954.416      562386.04149    435809.30149  22635954.1354   22635962.9794
  22215608.029    -8905584.50149  -6902724.45849  22215606.5264   22215615.9814
  20125841.171    -2831110.58949  -2198668.74549  20125840.8404   20125848.3674
 97  3 19  0 39 29.9980000  0  7 30  4  5  6  9 10 24
  20994642.602    -8708834.21949  -6766513.43549  20994642.9814   20994649.0234
  22324832.089      670278.60149    518965.81749  22324832.5504   22324839.5004
  19793597.843    -5836880.26749  -4523496.41149  19793597.1984   19793604.6104
  23100392.084    -5996198.56749  -4658325.06649  23100391.9514   23100399.4234
  22637624.045      571159.82649    442645.99449  22637623.6494   22637632.2214
  22184846.176    -9067238.62549  -7028688.66249  22184845.0014   22184854.3004
  20117236.313    -2876329.40849  -2233904.18949  20117235.9874   20117243.4044
 97  3 19  0 39 59.9980000  0  7 30  4  5  6  9 10 24
  20965542.704    -8861755.13949  -6885672.58349  20965542.6374   20965549.2754
  22326876.154      681020.46649    527336.08449  22326875.4864   22326884.4744
  19774963.541    -5934804.10249  -4599800.69149  19774962.7284   19774970.2354
  23072113.119    -6144805.97449  -4774122.98949  23072112.6794   23072120.6614
  22639297.688      579954.99049    449499.34149  22639297.1214   22639305.4964
  22154109.817    -9228758.74049  -7154548.45249  22154108.5404   22154117.7304
  20108684.389    -2921270.22349  -2268923.00149  20108684.0184   20108691.5894
 97  3 19  0 40 29.9980000  0  7 30  4  5  6  9 10 24
  20936472.536    -9014519.87149  -7004710.02449  20936472.3924   20936479.0054
  22328930.822      691818.25049    535749.91949  22328930.6234   22328938.6324
  19756391.842    -6032399.07749  -4675848.72149  19756391.1554   19756398.4584
  23043817.950    -6293498.18549  -4889986.99249  23043818.3274   23043825.0474
  22640975.793      588774.01149    456371.28049  22640975.3894   22640983.8034
  22123404.946    -9390113.54549  -7280279.42249  22123403.7664   22123413.4494
  20100188.491    -2965916.24549  -2303712.11649  20100188.0194   20100195.3594
 97  3 19  0 40 59.9980000  0  7 30  4  5  6  9 10 24
  20907430.434    -9167136.90349  -7123632.37349  20907430.4174   20907436.8074
  22330995.225      702666.85049    544203.35049  22330995.9534   22331002.8774
  19737882.248    -6129667.53549  -4751642.32049  19737881.4594   19737888.8694
  23015507.959    -6442268.35449  -5005911.74449  23015507.4264   23015515.4474
  22642658.778      597618.51249    463263.07649  22642657.7344   22642667.5214
  22092729.829    -9551313.02849  -7405889.36249  22092729.0024   22092737.8984
  20091747.224    -3010275.27749  -2338277.59349  20091746.9134   20091754.2984
 97  3 19  0 41 29.9980000  0  7 30  4  5  6  9 10 24
  20878419.942    -9319587.74649  -7242425.22349  20878419.8614   20878426.1794
  22333067.508      713556.89549    552689.08449  22333067.5494   22333074.6794
  19719437.533    -6226595.08149  -4827170.27049  19719436.7584   19719444.1804
  22987181.379    -6591125.16249  -5121904.01449  22987180.3664   22987188.9804
  22644345.044      606479.67049    470167.85349  22644344.5164   22644353.2104
  22062086.976    -9712343.31149  -7531367.45749  22062085.9264   22062094.8274
  20083360.641    -3054347.24149  -2372619.38449  20083360.6094   20083367.8154
 97  3 19  0 41 59.9980000  0  7 30  4  5  6  9 10 24
  20849442.486    -9471865.34149  -7361083.06549  20849442.3414   20849449.3084
  22335142.768      724462.53349    561186.97649  22335143.1024   22335150.3444
  19701055.915    -6323191.07349  -4902439.86649  19701055.5534   19701062.9634
  22958837.727    -6740071.25949  -5237965.86249  22958837.1484   22958844.9354
  22646029.347      615330.68249    477064.70949  22646028.9604   22646038.2604
  22031473.974    -9873215.68249  -7656722.49749  22031472.5294   22031481.3814
  20075028.617    -3098132.49349  -2406737.76449  20075028.0274   20075035.8604
 97  3 19  0 42 29.9980000  0  7 30  4  5  6  9 10 24
  20820507.532    -9623919.51949  -7479566.81549  20820507.7824   20820514.2974
  22337223.565      735396.70849    569707.10349  22337223.6924   22337231.1944
  19682746.781    -6419406.48649  -4977412.90749  19682746.1484   19682753.6924
  22930484.274    -6889069.40649  -5354068.26049  22930484.0964   22930491.8204
  22647719.441      624212.15949    483985.31349  22647719.5204   22647728.2394
  22000895.274   -10033907.34449  -7781936.73449  22000894.0584   22000903.2274
  20066758.921    -3141589.85649  -2440600.65049  20066758.4924   20066766.1814
 97  3 19  0 42 59.9980000  0  7 30  4  5  6  9 10 24
  20791613.762    -9775757.10249  -7597881.79949  20791613.7554   20791620.7834
  22339303.066      746324.42249    578222.19449  22339303.1424   22339310.5634
  19664503.362    -6515276.41849  -5052116.74749  19664502.6684   19664510.0794
  22902114.149    -7038155.70149  -5470239.34749  22902114.0164   22902121.4544
  22649410.376      633098.42049    490909.64449  22649410.2304   22649419.0004
  21970345.158   -10194449.39949  -7907034.40049  21970344.4874   21970352.8354
  20058542.364    -3184768.04249  -2474245.99549  20058541.9604   20058549.5964
 97  3 19  0 43 29.9980000  0  7 30  4  5  6  9 10 24
  20762782.039    -9927268.59849  -7715942.68549  20762781.6354   20762788.8884
  22341399.653      757342.06449    586807.34849  22341400.1014   22341406.9604
  19646345.735    -6610695.35049  -5126469.15949  19646345.0484   19646352.6704
  22873745.528    -7187233.51649  -5586403.83849  22873745.3464   22873752.5264
  22651121.298      642090.08549    497916.10249  22651120.5464   22651130.0654
  21939845.098   -10354729.00549  -8031927.54749  21939844.0824   21939852.9524
  20050396.919    -3227572.29849  -2507599.96349  20050396.3294   20050404.2074
 97  3 19  0 43 59.9980000  0  7 30  4  5  6  9 10 24
  20734018.544   -10078421.40949  -7833724.08049  20734018.3184   20734025.1924
  22343525.601      768513.60349    595512.43349  22343525.2094   22343533.1064
  19628280.534    -6705628.39049  -5200442.95649  19628279.7354   19628287.3304
  22845389.426    -7336245.82949  -5702517.27749  22845389.1764   22845396.6864
  22652865.569      651256.92149    505059.05549  22652865.3684   22652874.4534
  21909402.575   -10514706.10649  -8156584.98949  21909401.8374   21909410.4364
  20042331.789    -3269954.65849  -2540625.17749  20042331.1934   20042338.9824
 97  3 19  0 44 29.9970000  0  7 30  4  5  6  9 10 24
  20705309.193   -10229290.32649  -7951284.26249  20705309.4434   20705315.6054
  22345673.201      779798.49749    604305.83849  22345673.3124   22345681.5624
  19610296.589    -6800134.54149  -5274084.10749  19610295.8154   19610303.5244
  22817033.160    -7485258.82149  -5818631.24549  22817032.3774   22817040.2804
  22654632.122      660540.08949    512292.66849  22654631.9554   22654640.8794
  21879011.350   -10674413.14349  -8281031.99749  21879010.2264   21879018.8484
  20034331.404    -3311996.65549  -2573385.17449  20034330.8714   20034338.6554
 97  3 19  0 44 59.9970000  0  7 30  4  5  6  9 10 24
  20676640.156   -10379947.43749  -8068679.39549  20676640.2604   20676646.9214
  22347833.661      791151.32849    613152.18449  22347834.3064   22347841.0824
  19592381.346    -6894279.78249  -5347444.03549  19592380.6374   19592388.1974
  22788664.876    -7634335.02949  -5934794.46949  22788664.4564   22788672.7094
  22656405.642      669859.80149    519554.74949  22656405.1974   22656414.9714
  21848661.748   -10833900.99849  -8405308.21149  21848660.1374   21848669.1184
  20026382.959    -3353765.97349  -2605932.69049  20026382.5644   20026390.4004
 97  3 19  0 45 29.9970000  0  7 30  4  5  6  9 10 24
  20648019.161   -10530352.14949  -8185877.86749  20648019.1944   20648025.6944
  22350014.679      802612.33449    622082.81849  22350014.8774   22350021.4024
  19574545.116    -6988009.83649  -5420480.44149  19574544.5454   19574551.9474
  22760294.751    -7783420.67249  -6050965.05349  22760294.4064   22760302.3124
  22658191.332      679243.21049    526866.47249  22658191.0314   22658200.1234
  21818360.220   -10993136.17249  -8529387.52949  21818359.3044   21818368.2874
  20018497.974    -3395201.94249  -2638220.45149  20018497.6624   20018505.4134
 97  3 19  0 45 59.9970000  0  7 30  4  5  6  9 10 24
  20619430.551   -10680586.53849  -8302943.61949  20619430.8054   20619436.9214
  22352199.538      814093.25249    631028.98349  22352200.1244   22352206.6584
  19556771.343    -7081412.03849  -5493261.38449  19556770.8994   19556778.0564
  22731906.714    -7932600.79949  -6167209.25549  22731906.4894   22731913.2374
  22659968.909      688584.06149    534145.02949  22659969.1604   22659977.7514
  21788089.968   -11152206.79549  -8653338.62849  21788088.4504   21788098.0184
  20010659.699    -3436392.39849  -2670316.90549  20010659.4994   20010666.8204
 97  3 19  0 46 29.9970000  0  7 30  4  5  6  9 10 24
  20590885.927   -10830589.77749  -8419829.25349  20590886.0664   20590892.4114
  22354392.133      825615.14549    640007.07049  22354392.8064   22354400.0614
  19539070.109    -7174432.74149  -5565745.05349  19539069.3544   19539076.6524
  22703509.114    -8081830.95249  -6283492.42949  22703509.0684   22703516.6994
  22661741.914      697901.00349    541404.95149  22661741.5634   22661750.7084
  21757858.871   -11311071.60049  -8777129.33549  21757857.8584   21757866.6764
  20002874.664    -3477303.11749  -2702195.38149  20002874.1884   20002882.0654
 97  3 19  0 46 59.9970000  0  7 30  4  5  6  9 10 24
  20562403.680   -10980264.93849  -8536459.23749  20562403.9244   20562410.1424
  22356602.200      837229.07349    649056.85049  22356602.3064   22356609.7814
  19521455.417    -7266998.59649  -5637874.29849  19521454.8684   19521462.1634
  22675116.769    -8231033.49149  -6399754.09349  22675115.7544   22675123.7144
  22663524.610      707269.19649    548704.82149  22663524.2794   22663533.3154
  21727674.674   -11469690.33749  -8900728.30649  21727673.7044   21727682.6744
  19995157.910    -3517854.85749  -2733794.13149  19995157.6504   19995165.0234
 97  3 19  0 47 29.9970000  0  7 30  4  5  6  9 10 24
  20533974.683   -11129660.46749  -8652871.32949  20533974.7554   20533980.8794
  22358819.942      848883.74549    658138.38249  22358820.2314   22358827.5874
  19503916.857    -7359164.56349  -5709691.94549  19503916.1404   19503923.4844
  22646717.587    -8380270.86349  -6516042.90749  22646716.7144   22646725.0614
  22665311.475      716658.69649    556021.28249  22665311.1324   22665320.6074
  21697524.946   -11628128.61749  -9024186.65649  21697523.6374   21697532.4334
  19987498.569    -3558105.00649  -2765157.88349  19987498.1634   19987506.0344
 97  3 19  0 47 59.9970000  0  7 30  4  5  6  9 10 24
  20505602.618   -11278756.53949  -8769050.06549  20505602.4574   20505609.1294
  22361049.974      860602.86949    667270.12949  22361049.9674   22361057.0744
  19486455.156    -7450926.73249  -5781194.93749  19486454.7284   19486461.8944
  22618315.448    -8529524.05149  -6632344.05949  22618315.5164   22618323.1804
  22667108.079      726099.35649    563377.61049  22667108.2374   22667116.8674
  21667416.740   -11786348.84349  -9147475.09149  21667415.9004   21667424.8924
  19979898.719    -3598042.46549  -2796277.97349  19979898.4544   19979906.0364
 97  3 19  0 48 29.9970000  0  7 30  4  5  6  9 10 24
  20477286.890   -11427556.41349  -8884997.99849  20477287.0894   20477293.5014
  22363291.664      872382.66949    676449.17449  22363291.6954   22363298.9394
  19469067.478    -7542299.57349  -5852394.55449  19469066.7964   19469074.0544
  22589908.912    -8678801.29949  -6748663.95549  22589909.2514   22589916.7304
  22668916.076      735599.85849    570780.56249  22668915.4164   22668924.7984
  21637350.137   -11944349.71249  -9270592.60449  21637349.2354   21637357.7264
  19972357.378    -3637672.54149  -2827158.54749  19972357.1454   19972364.7514
 97  3 19  0 48 59.9970000  0  7 30  4  5  6  9 10 24
  20449018.602   -11576107.05549  -9000751.72749  20449018.4894   20449024.9904
  22365540.365      884199.17149    685656.81949  22365540.6484   22365547.4454
  19451745.700    -7633325.97949  -5923324.22049  19451744.9674   19451752.1914
  22561490.198    -8828142.68849  -6865033.81749  22561489.5864   22561497.4754
  22670730.287      745132.90449    578208.88749  22670729.7904   22670739.4544
  21607322.641   -12102144.52149  -9393549.55649  21607321.8724   21607330.4664
  19964868.581    -3677026.77949  -2857824.17849  19964868.3594   19964875.8134
 97  3 19  0 49 29.9970000  0  7 30  4  5  6  9 10 24
  20420801.255   -11724390.03149  -9116296.88949  20420801.1844   20420807.9044
  22367803.646      896092.44649    694924.29749  22367804.2614   22367810.6834
  19434496.163    -7723973.03749  -5993958.29149  19434495.3894   19434502.8114
  22533065.216    -8977516.71749  -6981429.11549  22533065.1244   22533073.1434
  22672555.924      754725.92249    585683.93649  22672555.7964   22672564.6034
  21577346.963   -12259668.21749  -9516295.24749  21577345.8944   21577354.4644
  19957437.958    -3716075.19349  -2888251.51349  19957437.7334   19957445.3454
 97  3 19  0 49 59.9970000  0  7 30  4  5  6  9 10 24
  20392633.317   -11872413.19349  -9231639.59649  20392633.1644   20392639.7554
  22370077.148      908039.59449    704233.73549  22370077.2584   22370084.3044
  19417318.263    -7814243.59649  -6064298.98549  19417317.6714   19417325.0134
  22504634.924    -9126918.20749  -7097845.81949  22504634.7864   22504642.0914
  22674386.714      764346.85949    593180.73449  22674386.3294   22674395.0064
  21547424.900   -12416910.01349  -9638821.27749  21547424.4484   21547432.6684
  19950064.517    -3754822.91949  -2918444.54449  19950064.4584   19950071.7774
 97  3 19  0 50 29.9970000  0  7 30  4  5  6  9 10 24
  20364511.668   -12020193.34149  -9346792.93849  20364511.8224   20364518.3504
  22372353.310      920000.57849    713553.97649  22372353.3124   22372360.8854
  19400212.306    -7904136.27949  -6134345.22649  19400211.7834   19400218.9164
  22476194.734    -9276371.92149  -7214303.22149  22476194.0754   22476202.4374
  22676217.019      773965.39049    600675.66949  22676216.3224   22676225.1264
  21517553.146   -12573887.65149  -9761141.47849  21517551.8694   21517560.1774
  19942744.102    -3793292.37249  -2948420.73749  19942744.1264   19942751.4414
 97  3 19  0 50 59.9970000  0  7 30  4  5  6  9 10 24
  20336449.448   -12167661.33449  -9461703.04749  20336449.4194   20336456.2624
  22374643.990      932038.32349    722934.01649  22374644.0864   22374651.8194
  19383196.067    -7993557.41949  -6204024.03649  19383195.4134   19383202.5064
  22447759.353    -9425801.07149  -7330741.48249  22447759.3904   22447766.8744
  22678060.551      783652.98449    608224.41449  22678060.8854   22678069.1944
  21487744.421   -12730533.59749  -9883203.21449  21487743.4154   21487751.2814
  19935489.724    -3831414.31449  -2978126.14449  19935489.4484   19935497.0104
 97  3 19  0 51 29.9970000  0  7 30  4  5  6  9 10 24
  20308437.707   -12314863.80749  -9576406.24849  20308437.4114   20308444.6394
  22376935.938      944082.42249    732319.01549  22376935.9704   22376943.2714
  19366260.369    -8082555.38549  -6273373.09849  19366259.8974   19366266.8824
  22419316.756    -9575267.77349  -7447209.00349  22419316.1604   22419324.4754
  22679905.025      793345.47549    615776.97949  22679904.3394   22679913.7184
  21457984.520   -12886922.87849 -10005064.95149  21457983.7674   21457992.0294
  19928290.500    -3869246.32549  -3007605.63349  19928289.9324   19928297.9274
 97  3 19  0 51 59.9970000  0  7 30  4  5  6  9 10 24
  20280480.966   -12461777.05449  -9690884.08049  20280480.5954   20280487.6954
  22379231.217      956143.76949    741717.45849  22379231.4204   22379238.5314
  19349407.662    -8171117.34449  -6342382.41549  19349407.0644   19349414.0324
  22390867.918    -9724767.62649  -7563702.35349  22390867.7754   22390875.5834
  22681750.037      803041.55949    623332.33449  22681749.2024   22681757.9494
  21428273.332   -13043056.21449 -10126727.24849  21428272.1464   21428280.4204
  19921148.787    -3906776.33849  -3036849.79949  19921148.6364   19921156.0994
 97  3 19  0 52 29.9970000  0  7 30  4  5  6  9 10 24
  20252580.160   -12608396.57149  -9805133.03349  20252579.7814   20252586.7834
  22381532.531      968236.88949    751140.65749  22381533.0174   22381539.7274
  19332638.995    -8259237.43049  -6411047.41849  19332638.2034   19332645.3874
  22362409.280    -9874318.83649  -7680235.72949  22362408.6574   22362416.5454
  22683597.283      812749.41149    630896.86149  22683596.9434   22683606.1294
  21398608.588   -13198945.35149 -10248199.26649  21398607.2024   21398615.3304
  19914062.599    -3944014.93049  -3065866.87549  19914062.2924   19914069.7954
 97  3 19  0 52 59.9970000  0  7 30  4  5  6  9 10 24
  20224736.372   -12754716.49049  -9919148.53549  20224736.1374   20224743.1964
  22383842.557      980376.05949    760599.74849  22383842.3184   22383849.7394
  19315951.591    -8346930.22949  -6479379.46849  19315950.7364   19315957.9024
  22333943.022   -10023909.97049  -7796800.21949  22333942.6434   22333950.8734
  22685444.746      822457.81049    638461.82449  22685444.9234   22685453.9744
  21368987.876   -13354602.56049 -10369490.55749  21368986.2694   21368994.6664
  19907030.799    -3980967.24249  -3094660.87949  19907030.5404   19907038.0434
 97  3 19  0 53 29.9970000  0  7 30  4  5  6  9 10 24
  20196940.686   -12900783.83849 -10032967.23149  20196940.8194   20196947.5374
  22386151.602      992510.14249    770054.85649  22386151.9794   22386158.8144
  19299331.063    -8434271.45949  -6547437.56649  19299330.3324   19299337.6674
  22305458.959   -10173594.88049  -7913437.78449  22305458.8824   22305466.8624
  22687278.440      832093.72849    645970.29249  22687277.2254   22687287.4834
  21339402.000   -13510076.69349 -10490639.20449  21339400.9804   21339409.0904
  19900043.361    -4017686.48249  -3123273.26949  19900042.7674   19900050.7134
 97  3 19  0 53 59.9960000  0  7 30  4  5  6  9 10 24
  20169225.366   -13046428.88649 -10146456.86749  20169225.3964   20169232.0774
  22388493.796     1004818.30149    779645.62549  22388493.8384   22388500.7944
  19282809.786    -8521091.34649  -6615089.42849  19282809.1594   19282816.3824
  22276992.557   -10323186.30749  -8030002.50449  22276992.0594   22276999.9734
  22689129.843      841822.80449    653551.36049  22689129.0434   22689138.8134
  21309886.565   -13665181.02449 -10611499.68049  21309885.6634   21309893.5874
  19893133.379    -4053998.63849  -3151568.45249  19893133.1804   19893140.6774
 97  3 19  0 54 29.9960000  0  7 30  4  5  6  9 10 24
  20141563.542   -13191792.98249 -10259727.58149  20141564.0254   20141570.1324
  22390842.238     1017159.03049    789261.76649  22390842.3524   22390849.0724
  19266361.588    -8607526.81649  -6682441.74149  19266360.5664   19266368.1664
  22248520.736   -10472806.40549  -8146589.57949  22248520.8004   22248528.0914
  22690976.381      851526.18049    661112.39249  22690975.9444   22690985.7594
  21280416.330   -13820048.12449 -10732175.30749  21280414.6854   21280423.5234
  19886275.021    -4090039.81149  -3179652.47949  19886274.8284   19886282.4884
 97  3 19  0 54 59.9960000  0  7 30  4  5  6  9 10 24
  20113958.338   -13336859.68349 -10372766.55649  20113958.5664   20113965.1594
  22393194.741     1029521.19349    798894.61349  22393195.3934   22393202.3354
  19249987.530    -8693572.55249  -6749490.36549  19249986.6224   19249994.3354
  22220048.300   -10622430.15449  -8263179.49649  22220048.1614   22220055.7864
  22692818.544      861206.87049    668655.74449  22692818.0194   22692828.0764
  21250997.440   -13974645.46049 -10852640.73349  21250995.9924   21251004.7834
  19879472.383    -4125788.13049  -3207508.30149  19879472.0284   19879479.5634
 97  3 19  0 55 29.9960000  0  7 30  4  5  6  9 10 24
  20086414.386   -13481604.52449 -10485554.72749  20086414.7144   20086421.0754
  22395555.784     1041927.88749    808562.15849  22395556.1694   22395562.6184
  19233693.295    -8779199.40149  -6816212.58349  19233692.4524   19233700.0484
  22191575.760   -10772054.70649  -8379770.02649  22191575.7024   22191583.4384
  22694662.153      870895.26749    676205.09649  22694661.8334   22694670.9604
  21221640.268   -14128918.15849 -10972853.18949  21221638.7854   21221648.2454
  19872730.849    -4161215.03049  -3235113.67249  19872730.6254   19872737.9894
 97  3 19  0 55 59.9960000  0  7 30  4  5  6  9 10 24
  20058933.186   -13626019.22949 -10598085.66149  20058933.3094   20058939.6604
  22397924.743     1054376.50549    818262.36749  22397924.4104   22397932.8704
  19217483.156    -8864384.21749  -6882590.36649  19217482.4944   19217489.8784
  22163102.337   -10921682.90849  -8496363.40249  22163101.9844   22163110.1724
  22696509.054      880600.95149    683767.93149  22696508.7344   22696518.4144
  21192346.599   -14282856.97749 -11092805.48649  21192345.3754   21192354.1864
  19866048.394    -4196331.68549  -3262477.29949  19866048.3114   19866055.6644
 97  3 19  0 56 29.9960000  0  7 30  4  5  6  9 10 24
  20031514.891   -13770103.40049 -10710359.02549  20031514.8914   20031521.3714
  22400298.011     1066847.93249    827980.33649  22400297.1474   22400305.2554
  19201357.775    -8949123.71749  -6948621.14549  19201356.9574   19201364.5194
  22134625.541   -11071328.90649  -8612970.64149  22134624.9684   22134633.0824
  22698357.516      890314.40549    691336.80649  22698357.7044   22698366.8074
  21163117.973   -14436454.03749 -11212491.47149  21163116.6594   21163125.4954
  19859419.575    -4231166.51449  -3289621.31649  19859419.3604   19859426.5524
 97  3 19  0 56 59.9960000  0  7 30  4  5  6  9 10 24
  20004151.462   -13913899.28949 -10822407.75849  20004151.4844   20004157.8904
  22402669.811     1079311.65749    837692.29349  22402670.3944   22402677.1864
  19185311.625    -9033446.64849  -7014327.32149  19185310.8064   19185318.4854
  22106133.752   -11221054.03649  -8729639.54749  22106133.1724   22106141.2264
  22700198.498      899988.89049    698875.32149  22700197.8004   22700207.5794
  21133949.075   -14589737.47149 -11331933.07849  21133947.7824   21133956.6604
  19852835.781    -4265764.83149  -3316581.04249  19852835.5284   19852842.7174
 97  3 19  0 57 29.9960000  0  7 30  4  5  6  9 10 24
  19976857.567   -14057329.49949 -10934171.54549  19976857.3894   19976863.8484
  22405056.997     1091855.71549    847466.84849  22405057.4314   22405064.1604
  19169363.437    -9117254.70649  -7079632.29949  19169362.8664   19169370.3434
  22077642.477   -11370776.85249  -8846306.64649  22077641.7974   22077649.8774
  22702047.215      909704.07449    706445.55449  22702046.7104   22702056.7364
  21104852.853   -14742638.66749 -11451076.82149  21104851.5154   21104860.1634
  19846309.691    -4300059.81449  -3343304.40649  19846309.4064   19846316.7184
 97  3 19  0 57 59.9960000  0  7 30  4  5  6  9 10 24
  19949631.895   -14200401.25549 -11045656.02049  19949631.7974   19949638.5454
  22407456.796     1104466.11749    857293.11749  22407457.0304   22407463.4184
  19153514.455    -9200541.68949  -7144531.24549  19153513.6484   19153521.3264
  22049155.130   -11520478.51949  -8962957.26449  22049154.9184   22049162.4864
  22703902.466      919453.21849    714042.24349  22703902.1864   22703911.8894
  21075826.378   -14895174.07649 -11569935.53749  21075825.4904   21075834.3714
  19839837.744    -4334070.21749  -3369806.02149  19839837.3064   19839844.9594
 97  3 19  0 58 29.9960000  0  7 30  4  5  6  9 10 24
  19922480.630   -14343082.19049 -11156835.95949  19922480.4344   19922487.1694
  22409876.117     1117179.13449    867199.34649  22409875.3664   22409883.3874
  19137771.169    -9283272.93249  -7208997.14449  19137770.3774   19137778.1244
  22020679.560   -11670118.96149  -9079560.17249  22020679.1314   22020686.9144
  22705770.798      929271.26149    721692.63049  22705771.1824   22705780.1514
  21046877.206   -15047303.74349 -11688478.08949  21046876.3014   21046884.7614
  19833431.559    -4367734.58249  -3396038.00149  19833431.2214   19833438.6444
 97  3 19  0 58 59.9960000  0  7 30  4  5  6  9 10 24
  19895384.972   -14485470.79249 -11267788.10749  19895384.8624   19895391.4144
  22412293.759     1129883.27549    877098.65349  22412293.5524   22412300.4584
  19122111.335    -9365565.87149  -7273121.51349  19122110.5984   19122118.2764
  21992197.075   -11819795.56149  -9196191.25549  21992196.2394   21992204.4414
  22707632.671      939055.00249    729316.28249  22707632.2634   22707641.5284
  21017983.255   -15199142.64349 -11806794.07049  21017981.9744   21017990.5424
  19827073.735    -4401144.85949  -3422071.98649  19827073.3734   19827080.7164
 97  3 19  0 59 29.9960000  0  7 30  4  5  6  9 10 24
  19868368.603   -14627442.81149 -11378415.64849  19868368.4654   19868374.8594
  22414728.619     1142678.37749    887068.83049  22414728.2574   22414735.6044
  19106554.473    -9447317.77749  -7336824.30049  19106554.0084   19106561.2234
  21963732.936   -11969375.58849  -9312747.08649  21963732.3544   21963739.7344
  22709507.636      948907.77549    736993.72849  22709507.7354   22709516.6794
  20989165.269   -15350582.29849 -11924798.95749  20989164.4844   20989172.0614
  19820784.901    -4434192.63149  -3447823.50249  19820784.1474   19820792.2674
 97  3 19  0 59 59.9960000  0  7 30  4  5  6  9 10 24
  19841413.722   -14769091.76649 -11488791.45049  19841413.6154   19841420.1274
  22417160.310     1155457.02049    897026.16949  22417159.0044   22417167.2114
  19091076.357    -9528655.98849  -7400204.73049  19091075.6034   19091083.2554
  21935266.851   -12118965.39649  -9429310.54349  21935267.1214   21935274.6084
  22711374.402      958716.93949    744637.18949  22711374.6334   22711383.7014
  20960405.205   -15501717.97849 -12042566.98449  20960404.4044   20960412.3254
  19814544.613    -4466985.37549  -3473376.29649  19814544.0874   19814551.7884
 97  3 19  1  0 29.9960000  0  7 30  4  5  6  9 10 24
  19814518.824   -14910425.53949 -11598921.65349  19814518.8444   19814525.1484
  22419584.947     1168199.35749    906955.21549  22419584.4154   22419591.8524
  19075670.767    -9609613.08249  -7463288.17949  19075670.1084   19075677.6494
  21906792.372   -12268599.98749  -9545908.89649  21906792.1734   21906799.7264
  22713228.584      968460.31149    752229.38949  22713228.9694   22713237.5394
  20931698.177   -15652575.28449 -12160118.08749  20931697.7174   20931705.1154
  19808352.053    -4499527.34049  -3498733.67749  19808351.6934   19808359.2974
 97  3 19  1  0 59.9960000  0  7 30  4  5  6  9 10 24
  19787700.159   -15051358.65049 -11708739.65649  19787700.3704   19787706.2854
  22422017.784     1180984.83749    916917.90749  22422017.5304   22422024.9204
  19060349.987    -9690124.38649  -7526024.25949  19060349.4254   19060356.8954
  21878323.288   -12418206.20749  -9662485.15049  21878322.8324   21878330.4164
  22715082.751      978203.40049    759821.36349  22715082.6164   22715091.0564
  20903056.414   -15803089.45149 -12277401.81349  20903055.2764   20903063.2444
  19802217.219    -4531765.81149  -3523854.56749  19802216.9204   19802224.3164
 97  3 19  1  1 29.9960000  0  7 30  4  5  6  9 10 24
  19760952.870   -15191916.52349 -11818265.26649  19760952.7374   19760959.1144
  22424458.582     1193811.87649    926912.99049  22424458.5304   22424466.0324
  19045112.714    -9770196.76549  -7588418.32049  19045112.1734   19045119.5254
  21849854.742   -12567809.38249  -9779059.02549  21849853.8514   21849862.0784
  22716933.009      987926.10549    767397.44649  22716933.0844   22716942.0214
  20874476.073   -15953280.00349 -12394433.37049  20874475.1024   20874482.3994
  19796135.070    -4563727.81549  -3548760.02149  19796134.4314   19796142.1784
 97  3 19  1  1 59.9960000  0  7 30  4  5  6  9 10 24
  19734283.702   -15332063.97149 -11927471.06149  19734283.6504   19734289.9634
  22426916.447     1206728.56249    936977.92449  22426916.0794   22426923.8454
  19029965.917    -9849793.91949  -7650442.07349  19029965.2494   19029972.6484
  21821392.568   -12717378.40049  -9895606.28549  21821392.3344   21821399.8454
  22718787.257      997669.87049    774989.94749  22718787.3314   22718795.8454
  20845963.039   -16103116.90249 -12511189.35249  20845962.0514   20845970.0604
  19790114.505    -4595365.69349  -3573412.91449  19790113.9094   19790121.8854
 97  3 19  1  2 29.9960000  0  7 30  4  5  6  9 10 24
  19707688.853   -15471820.61249 -12036372.33049  19707688.6714   19707695.3464
  22429387.457     1219714.19149    947096.56849  22429387.3884   22429395.1434
  19014908.970    -9928918.85649  -7712097.87049  19014908.2934   19014915.7514
  21792934.862   -12866925.00349 -10012136.07949  21792934.4454   21792942.1404
  22720642.164     1007417.01249    782585.07949  22720642.2374   22720651.2814
  20817517.049   -16252601.59149 -12627670.88749  20817515.9444   20817523.5244
  19784153.418    -4626691.15649  -3597822.36749  19784152.7164   19784160.8704
 97  3 19  1  2 59.9960000  0  7 30  4  5  6  9 10 24
  19681165.860   -15611199.78349 -12144979.47249  19681165.6434   19681172.2394
  22431869.358     1232756.61549    957259.47149  22431869.1304   22431877.0104
  18999941.147   -10007575.23449  -7773388.56249  18999940.5254   18999947.9544
  21764482.936   -13016440.88649 -10128641.93649  21764482.8224   21764490.5044
  22722495.750     1017157.63349    790175.12749  22722495.3744   22722505.3434
  20789140.344   -16401721.80249 -12743868.41749  20789139.4184   20789147.2694
  19778246.065    -4657734.30649  -3622011.84249  19778245.5764   19778253.7364
 97  3 19  1  3 29.9950000  0  7 30  4  5  6  9 10 24
  19654702.148   -15750267.30349 -12253343.76249  19654702.1834   19654708.4054
  22434348.088     1245782.63349    967409.58649  22434348.0844   22434355.7364
  18985051.185   -10085822.46149  -7834360.42849  18985050.3434   18985058.0644
  21736026.342   -13165981.06849 -10245166.71549  21736025.4434   21736033.8794
  22724335.455     1026825.19849    797708.25849  22724335.4404   22724344.1414
  20760824.126   -16550524.34149 -12859818.40349  20760823.3314   20760830.7334
  19772381.546    -4688552.41749  -3646025.95049  19772381.3354   19772389.0124
 97  3 19  1  3 59.9950000  0  7 30  4  5  6  9 10 24
  19628308.992   -15888964.20749 -12361419.26349  19628308.7854   19628315.6354
  22436829.524     1258822.62649    977570.59649  22436829.7364   22436837.4154
  18970248.608   -10163610.29549  -7894974.33349  18970247.9414   18970255.7134
  21707573.139   -13315503.41149 -10361677.60249  21707572.3504   21707581.0564
  22726169.189     1036461.61049    805217.10349  22726169.4204   22726178.6694
  20732580.042   -16698947.77949 -12975472.99549  20732579.0444   20732586.7624
  19766571.268    -4719085.63249  -3669818.06649  19766571.0584   19766578.5284
 97  3 19  1  4 29.9950000  0  7 30  4  5  6  9 10 24
  19601977.354   -16027337.56249 -12469242.64349  19601977.2044   19601983.7124
  22439300.821     1271809.51349    987690.22549  22439300.3564   22439308.8174
  18955523.893   -10240989.18549  -7955269.57149  18955523.1844   18955530.9194
  21679113.079   -13465062.10549 -10478216.81749  21679113.2924   21679120.8134
  22727986.481     1046011.39249    812658.44649  22727986.4324   22727996.4394
  20704399.496   -16847037.17949 -13090867.30449  20704398.3134   20704406.1844
  19760803.352    -4749396.36449  -3693436.81849  19760803.1114   19760810.7894
 97  3 19  1  4 59.9950000  0  7 30  4  5  6  9 10 24
  19575723.062   -16165304.59049 -12576749.41349  19575722.9694   19575729.7274
  22441779.239     1284833.73349    997838.94449  22441779.0704   22441787.0974
  18940894.750   -10317866.06049  -8015173.63849  18940894.0624   18940901.6164
  21650661.659   -13614574.97749 -10594720.31649  21650661.1894   21650669.7384
  22729805.896     1055572.08449    820108.29249  22729805.0934   22729815.5534
  20676296.564   -16994718.74149 -13205943.81349  20676295.1994   20676303.4074
  19755094.916    -4779394.66649  -3716812.12449  19755094.7924   19755102.3074
 97  3 19  1  5 29.9950000  0  7 30  4  5  6  9 10 24
  19549538.153   -16302907.16649 -12683972.18649  19549538.0464   19549544.7624
  22444254.713     1297842.42849   1007975.56749  22444254.6664   22444262.7934
  18926351.990   -10394288.99449  -8074723.98149  18926351.5794   18926358.7864
  21622204.772   -13764116.85249 -10711246.40649  21622204.4394   21622212.4594
  22731615.774     1065083.47449    827519.72649  22731615.2704   22731625.5134
  20648260.353   -17142049.74949 -13320747.16749  20648258.7584   20648267.3514
  19749436.406    -4809130.36049  -3739982.80349  19749435.8504   19749443.6534
 97  3 19  1  5 59.9950000  0  7 30  4  5  6  9 10 24
  19523427.289   -16440120.60049 -12790891.72849  19523427.3234   19523433.6164
  22446730.397     1310852.19249   1018113.02049  22446730.0224   22446738.1134
  18911898.790   -10470241.26749  -8133907.57249  18911898.2554   18911905.6304
  21593745.535   -13913671.12049 -10827782.15049  21593745.2914   21593753.2634
  22733420.477     1074567.55849    834909.86949  22733419.9314   22733429.5244
  20620293.658   -17289015.38349 -13435265.81549  20620292.8584   20620300.3924
  19743828.712    -4838598.71949  -3762945.16749  19743828.2024   19743836.1444
 97  3 19  1  6 29.9950000  0  7 30  4  5  6  9 10 24
  19497391.652   -16576938.83149 -12897503.33049  19497391.5774   19497398.1234
  22449213.592     1323901.11549   1028280.99349  22449213.5334   22449221.2774
  18897536.516   -10545715.57149  -8192718.71949  18897535.6184   18897543.3984
  21565287.371   -14063219.64849 -10944313.41749  21565287.4324   21565294.7724
  22735224.094     1084045.40849    842295.15049  22735223.6024   22735234.3634
  20592398.180   -17435607.22349 -13549493.18949  20592397.2304   20592405.0724
  19738273.120    -4867793.24249  -3785694.15949  19738272.9284   19738280.5434
 97  3 19  1  6 59.9950000  0  7 30  4  5  6  9 10 24
  19471430.206   -16713367.01349 -13003810.99149  19471430.0894   19471436.8764
  22451701.230     1336974.03249   1038467.66949  22451700.8814   22451708.2574
  18883263.159   -10620722.23849  -8251165.47549  18883262.4094   18883270.2424
  21536827.526   -14212777.41849 -11060851.87849  21536827.1454   21536834.8624
  22737021.813     1093492.52449    849656.49949  22737021.2784   22737031.0684
  20564575.750   -17581814.87249 -13663421.19649  20564574.8714   20564582.2544
  19732766.438    -4896731.53249  -3808243.48149  19732766.1604   19732773.6184
 97  3 19  1  7 29.9950000  0  7 30  4  5  6  9 10 24
  19445549.742   -16849369.63749 -13109787.05349  19445549.6364   19445556.5304
  22454194.976     1350078.62949   1048679.02949  22454194.6454   22454202.2214
  18869081.563   -10695247.05549  -8309236.76649  18869080.8774   18869088.4474
  21508368.624   -14362329.79249 -11177386.15249  21508367.9374   21508375.6494
  22738813.538     1102908.32049    856993.42649  22738812.8074   22738823.1824
  20536832.214   -17727608.12249 -13777026.28849  20536830.7584   20536838.9274
  19727309.619    -4925407.80449  -3830588.63049  19727309.5484   19727317.1094
 97  3 19  1  7 59.9950000  0  7 30  4  5  6  9 10 24
  19419746.658   -16984965.94849 -13215446.50749  19419746.9494   19419753.0194
  22456693.731     1363209.75949   1058911.06949  22456694.0144   22456702.2654
  18854990.818   -10769294.58049  -8366936.14049  18854990.3924   18854997.6254
  21479912.048   -14511869.85049 -11293910.83649  21479911.3974   21479918.6904
  22740598.779     1112289.89649    864303.68649  22740597.7724   22740608.2604
  20509167.911   -17872984.74049 -13890306.73449  20509166.5394   20509174.5244
  19721904.105    -4953814.57349  -3852723.77549  19721903.8704   19721911.4384
 97  3 19  1  8 29.9950000  0  7 30  4  5  6  9 10 24
  19394031.617   -17120099.65949 -13320745.49549  19394031.4114   19394038.0404
  22459207.243     1376417.87349   1069203.11949  22459207.4744   22459215.4274
  18841004.236   -10842794.57249  -8424208.86749  18841003.4254   18841011.0154
  21451468.393   -14661341.58949 -11410382.29149  21451468.1984   21451475.6984
  22742387.542     1121689.55249    871628.05449  22742387.5934   22742396.4374
  20481597.462   -18017867.97349 -14003202.72749  20481596.1564   20481604.2244
  19716562.792    -4981883.34349  -3874595.54749  19716562.4984   19716569.9914
 97  3 19  1  8 59.9950000  0  7 30  4  5  6  9 10 24
  19368400.026   -17254794.37249 -13425702.40349  19368399.8764   19368406.2064
  22461726.015     1389653.61049   1079516.69349  22461726.0014   22461733.6414
  18827118.098   -10915766.61849  -8481070.20549  18827117.4584   18827125.1594
  21423032.200   -14810774.85949 -11526823.76749  21423031.6244   21423039.0914
  22744173.272     1131072.87449    878939.68449  22744172.1674   22744182.2394
  20454115.460   -18162286.59349 -14115736.68749  20454114.1214   20454122.1514
  19711278.723    -5009651.57649  -3896233.12949  19711278.7464   19711285.9354
 97  3 19  1  9 29.9950000  0  7 30  4  5  6  9 10 24
  19342842.034   -17389102.48249 -13530358.06049  19342842.0894   19342848.6064
  22464242.571     1402877.59049   1089821.09049  22464241.9494   22464250.7594
  18813324.623   -10988252.14349  -8537552.43949  18813324.0974   18813331.4344
  21394596.725   -14960204.56949 -11643262.47149  21394596.7294   21394604.2694
  22745948.922     1140403.98149    886210.62749  22745948.3184   22745958.6344
  20426709.544   -18306304.85249 -14227958.68649  20426708.0844   20426716.1484
  19706045.365    -5037153.53049  -3917663.21449  19706045.1494   19706052.5024
 97  3 19  1  9 59.9950000  0  7 30  4  5  6  9 10 24
  19317368.763   -17522965.39749 -13634666.81849  19317368.7844   19317375.4074
  22466769.084     1416154.06549   1100166.39449  22466769.9494   22466776.6164
  18799633.693   -11060198.73249  -8593614.72149  18799633.0554   18799640.4404
  21366175.003   -15109561.73949 -11759644.63749  21366174.5154   21366182.1934
  22747726.937     1149747.73249    893491.41649  22747727.1664   22747736.9844
  20399390.293   -18449867.81249 -14339825.89649  20399389.4374   20399396.8214
  19700873.426    -5064332.34849  -3938841.51249  19700873.1294   19700880.5594
 97  3 19  1 10 29.9950000  0  7 30  4  5  6  9 10 24
  19291971.566   -17656428.44349 -13738663.98449  19291971.5364   19291978.0164
  22469291.472     1429408.14249   1110494.24849  22469292.6724   22469298.8154
  18786032.247   -11131674.80249  -8649310.36349  18786031.6214   18786039.0464
  21337754.499   -15258912.96949 -11876022.17749  21337754.4604   21337761.3984
  22749493.670     1159031.76049    900725.67649  22749493.3934   22749504.1494
  20372143.472   -18593050.99049 -14451397.16949  20372142.6494   20372150.4464
  19695746.936    -5091272.33849  -3959833.70449  19695746.5884   19695753.9744
 97  3 19  1 10 59.9950000  0  7 30  4  5  6  9 10 24
  19266655.122   -17789467.05249 -13842330.42149  19266655.0524   19266661.6374
  22471813.507     1442660.13649   1120820.48749  22471813.7474   22471822.1914
  18772521.632   -11202673.62349  -8704634.12349  18772520.9044   18772528.4994
  21309338.673   -15408239.12349 -11992380.18049  21309338.3624   21309345.8364
  22751250.807     1168265.62449    907920.85149  22751250.5374   22751261.6044
  20344969.282   -18735852.28449 -14562670.87749  20344968.0524   20344976.2344
  19690666.804    -5117968.45349  -3980635.87349  19690666.4854   19690674.1344
 97  3 19  1 11 29.9950000  0  7 30  4  5  6  9 10 24
  19241431.291   -17922019.32049 -13945617.89449  19241431.3244   19241437.7024
  22474346.813     1455970.07859   1131191.86249  22474350.4714   22474355.9334
  18759111.007   -11273146.98749  -8759548.44349  18759110.1684   18759117.9974
  21280938.822   -15557481.25049 -12108672.71649  21280937.9734   21280946.1974
  22753008.119     1177500.15449    915116.52449  22753008.8804   22753017.9074
  20317879.454   -18878209.88649 -14673598.84249  20317878.5954   20317886.7094
  19685643.294    -5144367.29849  -4001206.39749  19685643.1634   19685650.6134
 97  3 19  1 11 59.9950000  0  6 30  5  6  9 10 24
  19216295.401   -18054109.46349 -14048545.26549  19216295.2864   19216301.7414
  18745795.199   -11343121.83449  -8814074.30349  18745794.4974   18745802.1914
  21252548.179   -15706674.89549 -12224927.47349  21252548.0774   21252555.2464
  22754755.498     1186682.27449    922271.37749  22754755.3214   22754764.5444
  20290868.083   -19020155.38349 -14784205.69149  20290867.3854   20290874.7644
  19680667.524    -5170515.37149  -4021581.51349  19680667.2384   19680674.7844
 97  3 19  1 12 29.9950000  0  6 30  5  6  9 10 24
  19191243.684   -18185757.22149 -14151127.92349  19191243.4894   19191250.1304
  18732573.094   -11412604.70849  -8868216.80949  18732572.6004   18732580.2844
  21224163.813   -15855835.78449 -12341156.70349  21224163.4574   21224170.8194
  22756487.576     1195783.80249    929363.40349  22756487.6414   22756496.6714
  20263933.392   -19161698.38349 -14894498.90549  20263932.5914   20263940.2864
  19675737.690    -5196421.85549  -4041768.38749  19675737.3904   19675744.9374
 97  3 19  1 12 59.9940000  0  7 30  4  5  6  9 10 24
  19166269.466   -18316997.26449 -14253392.87649  19166269.0384   19166275.9884
  22481951.501                                    22481951.529    22482025.1314
  18719438.001   -11481630.26549  -8922002.96249  18719437.2234   18719444.9344
  21195779.381   -16004997.06249 -12457386.23249  21195779.3174   21195786.5074
  22758196.282     1204762.45949    936359.69549  22758195.1694   22758206.0304
  20237071.920   -19302856.70749 -15004492.36349  20237071.2474   20237078.9444
  19670848.031    -5222117.19149  -4061790.72849  19670847.7154   19670855.3074
 97  3 19  1 13 29.9940000  0  7 30  4  5  6  9 10 24
  19141378.351   -18447800.65249 -14355317.58049  19141377.9904   19141384.6334
  22484486.904                                    22484486.664    22484495.8474
  18706395.570   -11550168.40749  -8975409.30849  18706394.7824   18706402.6904
  21167398.673   -16154138.40549 -12573600.23649  21167398.7754   21167406.1334
  22759888.612     1213655.04349    943288.93449  22759888.3074   22759897.6664
  20210289.518   -19443599.50549 -15114162.03349  20210288.7484   20210296.9784
  19666005.868    -5247562.88849  -4081618.54149  19666005.4684   19666013.0074
 97  3 19  1 13 59.9940000  0  7 30  4  5  6  9 10 24
  19116578.781   -18578123.35549 -14456867.72349  19116579.0684   19116585.4214
  22487030.146                                    22487029.024    22487037.8094
  18693454.681   -11618173.08049  -9028399.97049  18693454.0314   18693461.7074
  21139029.644   -16303218.82949 -12689766.77049  21139029.4744   21139036.6574
  22761571.618     1222499.15749    950180.39149  22761571.2224   22761580.3674
  20183596.689   -19583871.73649 -15223465.02949  20183596.1274   20183603.5304
  19661220.509    -5272709.94749  -4101213.65649  19661219.9114   19661227.7254
 97  3 19  1 14 29.9940000  0  7 30  4  5  6  9 10 24
  19091858.564   -18708028.97949 -14558092.87349  19091858.5714   19091865.0884
  22489569.264       47635.67259     34046.31559  22489568.2664   22489576.5304
  18680602.835   -11685710.02749  -9081026.17449  18680602.0184   18680609.6774
  21110662.041   -16452291.93149 -12805927.59649  21110661.5534   21110668.8004
  22763237.865     1231254.88449    957002.98549  22763237.6784   22763247.9934
  20156987.597   -19723704.36549 -15332425.48249  20156986.9084   20156994.2094
  19656480.386    -5297619.44349  -4120623.66149  19656479.9824   19656487.7574
 97  3 19  1 14 59.9940000  0  7 30  4  5  6  9 10 24
  19067219.418   -18837508.43649 -14658985.94149  19067219.1094   19067226.0644
  22492101.653       60944.53349     44416.85449  22492100.6734   22492109.4144
  18667841.128   -11752773.43049  -9133283.37649  18667840.3634   18667847.9704
  21082296.535   -16601353.74649 -12922079.61849  21082295.9104   21082303.5374
  22764891.776     1239946.13649    963775.33949  22764891.6334   22764901.4064
  20130464.934   -19863082.12749 -15441031.48749  20130463.8204   20130471.1474
  19651785.438    -5322291.23649  -4139848.44249  19651784.8724   19651792.6484
 97  3 19  1 15 29.9940000  0  7 30  4  5  6  9 10 24
  19042651.696   -18966612.55149 -14759586.53749  19042651.5674   19042658.3644
  22494617.376       74166.27349     54719.49349  22494616.7414   22494625.4604
  18655162.107   -11819402.22749  -9185201.92849  18655161.3014   18655168.8694
  21053925.457   -16750444.49349 -13038254.21249  21053924.7814   21053932.5454
  22766525.732     1248532.26949    970465.78949  22766525.5624   22766534.8244
  20104021.144   -20002044.72949 -15549314.00749  20104019.9074   20104027.7654
  19647127.009    -5346771.04049  -4158923.62049  19647126.3374   19647134.7744
 97  3 19  1 15 59.9940000  0  7 30  4  5  6  9 10 24
  19018146.231   -19095389.36149 -14859932.09149  19018145.9624   19018152.9064
  22497112.166       87277.41149     64935.94249  22497111.5844   22497120.7964
  18642559.070   -11885631.30249  -9236809.00249  18642558.1464   18642565.9124
  21025543.552   -16899592.28449 -13154473.23549  21025543.0994   21025550.3884
  22768132.064     1256973.05049    977042.97149  22768131.4914   22768141.8924
  20077649.627   -20140627.64149 -15657300.65449  20077648.3634   20077656.2684
  19642497.048    -5371101.81749  -4177882.67249  19642496.7324   19642504.7854
 97  3 19  1 16 29.9940000  0  7 30  4  5  6  9 10 24
  18993714.671   -19223778.11549 -14959975.27049  18993714.8254   18993721.2854
  22499599.027      100346.48949     75119.62449  22499599.1424   22499607.0274
  18630042.829   -11951404.55749  -9288060.89949  18630041.9304   18630049.7584
  20997162.125   -17048737.04349 -13270689.89749  20997161.6574   20997168.9914
  22769721.057     1265322.47849    983548.97349  22769720.6904   22769730.1394
  20051359.042   -20278785.55749 -15764956.13549  20051357.8544   20051365.6704
  19637906.344    -5395226.29749  -4196680.96649  19637905.7414   19637913.7724
 97  3 19  1 16 59.9940000  0  7 30  4  5  6  9 10 24
  18969366.438   -19351729.25349 -15059677.45549  18969366.5214   18969373.0254
  22502085.867      113415.02049     85302.88049  22502085.9204   22502093.9404
  18617619.425   -12016689.98649  -9338932.67349  18617618.7414   18617626.2774
  20968786.023   -17197853.93749 -13386884.84649  20968785.2824   20968792.7974
  22771294.978     1273593.74049    989994.05749  22771294.7514   22771304.5854
  20025152.349   -20416502.55549 -15872268.05449  20025151.0464   20025159.0334
  19633362.586    -5419103.68849  -4215286.73649  19633362.4164   19633370.3224
 97  3 19  1 17 29.9940000  0  7 30  4  5  6  9 10 24
  18945114.240   -19479175.70549 -15158986.37949  18945114.4204   18945120.8544
  22504586.730      126557.46249     95543.73649  22504586.6994   22504594.8024
  18605299.102   -12081433.84449  -9389382.44449  18605298.4704   18605306.0774
  20940426.359   -17346884.96749 -13503012.89949  20940426.0254   20940433.4174
  22772860.297     1281819.74449    996403.88749  22772859.6074   22772869.7274
  19999038.299   -20553732.82549 -15979200.70049  19999037.1454   19999044.6434
  19628878.009    -5442670.45449  -4233650.45649  19628877.9114   19628885.5904
 97  3 19  1 17 59.9940000  0  7 30  4  5  6  9 10 24
  18920951.350   -19606152.87449 -15257929.62849  18920951.2984   18920957.8244
  22507090.922      139717.22549    105798.09349  22507090.8354   22507099.1254
  18593073.457   -12145680.22049  -9439444.56449  18593072.6344   18593080.5944
  20912074.063   -17495877.04749 -13619110.59149  20912073.1834   20912081.1394
  22774407.810     1289951.83449   1002740.52749  22774407.1664   22774417.2634
  19973005.645   -20690534.82349 -16085799.62749  19973004.0974   19973012.5994
  19624441.464    -5465985.05649  -4251817.67349  19624440.8024   19624448.7904
 97  3 19  1 18 29.9940000  0  7 30  4  5  6  9 10 24
  18896879.016   -19732653.72349 -15356501.71349  18896878.8634   18896885.4104
  22509593.119      152866.20149    116044.03949  22509593.3834   22509601.1954
  18580938.962   -12209447.38749  -9489133.27649  18580938.2044   18580946.0274
  20883725.444   -17644849.92849 -13735193.31949  20883725.4984   20883732.2564
  22775934.994     1297977.12149   1008993.96349  22775934.9984   22775944.0474
  19947052.506   -20826918.69749 -16192072.75449  19947051.8134   19947059.4934
  19620048.528    -5489069.44049  -4269805.50749  19620048.0334   19620056.1054
 97  3 19  1 18 59.9940000  0  7 30  4  5  6  9 10 24
  18872904.824   -19858638.64349 -15454671.77449  18872904.7604   18872911.4194
  22512096.320      166020.15049    126293.87449  22512096.6204   22512104.4844
  18568903.068   -12272696.38449  -9538418.21849  18568902.3464   18568910.0934
  20855387.482   -17793767.08049 -13851232.63049  20855386.8664   20855394.8064
  22777450.672     1305941.96549   1015200.27049  22777449.9404   22777460.3774
  19921187.087   -20962841.98549 -16297986.97349  19921185.6904   19921193.4674
  19615703.557    -5511902.49249  -4287597.50049  19615702.9914   19615711.0854
 97  3 19  1 19 29.9940000  0  7 30  4  5  6  9 10 24
  18849029.772   -19984102.76149 -15552436.01249  18849029.8584   18849036.2964
  22514600.802      179180.50849    136548.69849  22514600.7564   22514608.8944
  18556969.551   -12335407.46649  -9587284.00249  18556968.8084   18556976.5184
  20827063.337   -17942611.27749 -13967215.08149  20827063.1944   20827070.1014
  22778959.209     1313869.49849   1021377.53049  22778958.4954   22778969.1764
  19895414.472   -21098278.02649 -16403521.52349  19895413.6724   19895420.6544
  19611406.250    -5534484.70449  -4305194.03149  19611405.9464   19611413.8884
 97  3 19  1 19 59.9940000  0  7 30  4  5  6  9 10 24
  18825252.491   -20109053.42449 -15649800.15649  18825252.4794   18825259.0564
  22517104.742      192338.15249    146801.40549  22517105.3124   22517112.3664
  18545139.549   -12397574.45549  -9635725.81749  18545138.7884   18545146.5784
  20798753.174   -18091381.74849 -14083140.08249  20798752.9534   20798760.8534
  22780461.689     1321765.59849   1027530.28949  22780460.7254   22780472.2224
  19869737.779   -21233210.05449 -16508663.33149  19869736.8674   19869744.4494
  19607153.804    -5556831.27549  -4322606.95149  19607153.4804   19607161.2934
 97  3 19  1 20 29.9940000  0  7 30  4  5  6  9 10 24
  18801573.362   -20233488.07649 -15746762.21649  18801573.2524   18801579.8514
  22519611.670      205511.20349    157066.10849  22519611.5774   22519619.4054
  18533413.937   -12459192.90049  -9683740.19449  18533413.3054   18533420.9844
  20770458.645   -18240070.35249 -14199001.29549  20770457.9114   20770465.6264
  22781957.585     1329627.37249   1033656.28549  22781958.2194   22781969.0544
  19844163.104   -21367605.72749 -16613387.21149  19844161.9634   19844169.7544
  19602950.977    -5578917.29149  -4339816.83349  19602950.4804   19602958.5744
 97  3 19  1 20 59.9940000  0  7 30  4  5  6  9 10 24
  18777986.297   -20357438.89949 -15843347.26349  18777986.2114   18777992.9994
  22522118.826      218685.75549    167331.99749  22522118.7724   22522125.7954
  18521790.150   -12520276.64649  -9731337.91949  18521789.6924   18521797.2814
  20742176.071   -18388696.05249 -14314813.49049  20742175.4314   20742182.7514
  22783441.023     1337422.79849   1039730.59849  22783440.5124   22783451.2194
  19818689.232   -21501471.39149 -16717698.09149  19818688.1484   19818695.8064
  19598795.194    -5600755.87249  -4356833.91049  19598794.6074   19598802.7504
 97  3 19  1 21 29.9940000  0  7 30  4  5  6  9 10 24
  18754492.854   -20480897.69049 -15939548.91249  18754492.9154   18754499.2754
  22524629.513      231879.11249    177612.52249  22524629.2944   22524636.9864
  18510268.124   -12580825.58049  -9778518.91049  18510267.5884   18510275.2524
  20713906.622   -18537253.01049 -14430572.12349  20713906.0514   20713912.9914
  22784911.121     1345148.11249   1045750.28249  22784910.7554   22784922.8944
  19793319.907   -21634787.83949 -16821581.01949  19793318.8414   19793326.2374
  19594689.449    -5622331.53049  -4373646.10849  19594689.1594   19594696.8464
 97  3 19  1 21 59.9930000  0  7 30  4  5  6  9 10 24
  18731093.619   -20603861.39449 -16035364.77849  18731093.4844   18731100.0974
  22527141.266      245078.34549    187897.61949  22527141.3754   22527147.7144
  18498846.379   -12640847.40749  -9825289.17049  18498845.9154   18498853.2444
  20685650.388   -18685740.06549 -14546276.28849  20685649.8634   20685657.3124
  22786367.445     1352800.90049   1051713.43649  22786366.9364   22786377.4064
  19768054.066   -21767560.71049 -16925040.37049  19768053.1724   19768060.7164
  19590634.896    -5643638.27249  -4390248.76549  19590634.7064   19590642.6234
 97  3 19  1 22 29.9930000  0  7 30  4  5  6  9 10 24
  18707789.033   -20726327.75049 -16130793.09849  18707788.9074   18707795.6414
  22529653.536      258280.30149    198184.85949  22529653.5154   22529661.1964
  18487521.324   -12700361.45449  -9871663.75649  18487520.7764   18487528.0464
  20657403.786   -18834176.20049 -14661940.77549  20657402.6684   20657410.6554
  22787810.982     1360386.01949   1057623.89149  22787810.7374   22787820.5804
  19742886.680   -21899816.09549 -17028096.48649  19742885.4754   19742893.2244
  19586631.562    -5664675.85349  -4406641.69549  19586631.0974   19586638.9334
 97  3 19  1 22 59.9930000  0  7 30  4  5  6  9 10 24
  18684579.137   -20848296.36149 -16225833.56249  18684579.2454   18684585.6864
  22532162.326      271464.74749    208458.44149  22532160.4104   22532170.4354
  18476291.691   -12759373.71049  -9917647.33849  18476291.0004   18476298.6164
  20629168.049   -18982555.80249 -14777561.21349  20629167.4054   20629175.1494
  22789242.603     1367908.20449   1063485.28749  22789242.3364   22789253.0334
  19717813.060   -22031578.63749 -17130768.57849  19717811.9134   19717819.7944
  19582674.131    -5685472.12249  -4422846.57949  19582673.7474   19582681.7264
 97  3 19  1 23 29.9930000  0  7 30  4  5  6  9 10 24
  18661465.096   -20969761.83049 -16320481.97349  18661465.1864   18661471.6774
  22534666.716      284626.67249    218714.46749  22534666.1954   22534673.9564
  18465157.426   -12817884.70149  -9963240.32049  18465157.0084   18465164.3274
  20600942.794   -19130880.47349 -14893138.83949  20600942.7244   20600949.8574
  22790663.026     1375372.09449   1069301.25949  22790662.4834   22790673.5684
  19692830.222   -22162864.03949 -17233068.88149  19692828.9184   19692836.8774
  19578760.081    -5706040.75349  -4438874.07949  19578759.8974   19578767.6584
 97  3 19  1 23 59.9930000  0  7 30  4  5  6  9 10 24
  18638449.907   -21090707.78349 -16414725.56749  18638449.9704   18638456.7064
  22537168.550      297774.97849    228959.89649  22537167.7534   22537176.8054
  18454123.223   -12875870.21649 -10008423.84449  18454122.4574   18454129.7664
  20572731.029   -19279133.82949 -15008660.90549  20572730.8454   20572738.4984
  22792072.048     1382776.09549   1075070.56249  22792071.9274   22792081.5454
  19667938.090   -22293673.06549 -17334997.96749  19667937.1204   19667944.6904
  19574887.809    -5726389.70249  -4454730.40149  19574887.2384   19574895.3834
 97  3 19  1 24 29.9930000  0  7 30  4  5  6  9 10 24
  18615532.015   -21211141.69249 -16508570.16349  18615531.9754   18615538.6354
  22539668.553      310913.58549    239197.76949  22539668.0824   22539677.5624
  18443190.236   -12933323.32649 -10053192.50949  18443189.4164   18443196.9384
  20544534.276   -19427308.74749 -15124121.85949  20544534.1354   20544541.3874
  22793465.059     1390095.67649   1080774.10649  22793465.5124   22793475.6024
  19643137.275   -22424002.28449 -17436553.18549  19643136.6994   19643143.9884
  19571054.332    -5746534.84349  -4470427.91249  19571054.0914   19571061.9264
 97  3 19  1 24 59.9930000  0  7 30  4  5  6  9 10 24
  18592711.819   -21331062.47349 -16602014.92049  18592711.6244   18592718.4854
  22542167.826      324048.46649    249432.74549  22542167.6024   22542177.3584
  18432363.519   -12990217.90049 -10097525.94649  18432362.7414   18432370.0344
  20516354.850   -19575392.65249 -15239511.89349  20516354.4234   20516361.7474
  22794840.568     1397323.41649   1086406.05749  22794840.7504   22794850.4454
  19618433.328   -22553822.78049 -17537711.98449  19618432.6324   19618439.9944
  19567260.800    -5766470.29149  -4485962.02349  19567260.3984   19567268.4114
 97  3 19  1 25 29.9930000  0  7 30  4  5  6  9 10 24
  18569992.672   -21450452.26349 -16695045.91849  18569992.4524   18569999.2084
  22544670.812      337202.35549    259682.53049  22544670.3004   22544679.9004
  18421645.032   -13046543.95849 -10141416.38749  18421644.5014   18421651.9154
  20488192.302   -19723388.07049 -15354832.96549  20488191.7104   20488199.1794
  22796197.516     1404453.83449   1091962.18349  22796197.5514   22796207.9594
  19593831.026   -22683109.23449 -17638454.65749  19593829.9544   19593837.5224
  19563512.342    -5786168.60449  -4501311.36149  19563512.1824   19563519.9394
 97  3 19  1 25 59.9930000  0  7 30  4  5  6  9 10 24
  18547373.350   -21569317.55549 -16787668.21249  18547373.2014   18547379.7934
  22547175.644      350366.07749    269939.98549  22547175.1854   22547185.1574
  18411031.700   -13102317.63949 -10184876.40549  18411031.0084   18411038.5034
  20460046.073   -19871297.57349 -15470087.08749  20460045.3354   20460052.5444
  22797532.011     1411465.62849   1097425.88849  22797531.8674   22797541.7174
  19569329.546   -22811865.07449 -17738783.86349  19569328.2164   19569336.0934
  19559810.528    -5805621.92949  -4516469.79349  19559810.0454   19559818.0684
 97  3 19  1 26 29.9930000  0  7 30  4  5  6  9 10 24
  18524853.235   -21687661.54749 -16879884.30749  18524853.3314   18524859.9184
  22549683.327      363543.95549    280208.46349  22549683.4894   22549692.5754
  18400519.281   -13157560.81249 -10227923.04349  18400518.7264   18400526.1034
  20431914.193   -20019131.10249 -15585282.02049  20431913.5314   20431920.8414
  22798847.529     1418378.16149   1102812.23249  22798847.1774   22798857.9184
  19544930.818   -22940080.39849 -17838691.89249  19544929.3074   19544937.3034
  19556160.547    -5824802.81949  -4531415.94149  19556160.2824   19556168.0534
 97  3 19  1 26 59.9930000  0  7 30  4  5  6  9 10 24
  18502434.184   -21805474.41149 -16971686.52849  18502434.2514   18502440.8864
  22552192.531      376729.82649    290483.16949  22552192.3024   22552201.4614
  18390105.131   -13212287.60249 -10270567.30249  18390104.7154   18390111.9644
  20403793.952   -20166903.91149 -15700429.64149  20403793.3884   20403800.5414
  22800146.158     1425202.15649   1108129.58849  22800145.8474   22800156.0394
  19520635.124   -23067754.67949 -17938178.32049  19520634.2164   19520642.1784
  19552563.106    -5843707.56049  -4546146.91249  19552562.7124   19552570.6454
 97  3 19  1 27 29.9930000  0  7 30  4  5  6  9 10 24
  18480117.448   -21922749.76249 -17063069.91449  18480117.6414   18480124.1364
  22554705.971      389937.61949    300774.95849  22554706.0924   22554715.1174
  18379788.123   -13266504.11749 -10312813.94749  18379787.6284   18379794.9984
  20375687.820   -20314602.55649 -15815519.47549  20375687.9354   20375694.5544
  22801429.542     1431946.17749   1113384.63249  22801429.9194   22801439.5614
  19496442.736   -23194886.94849 -18037242.40149  19496442.3144   19496449.4424
  19549018.626    -5862333.96849  -4560661.00149  19549018.4464   19549026.1234
 97  3 19  1 27 59.9930000  0  7 30  4  5  6  9 10 24
  18457901.563   -22039494.79449 -17154040.06549  18457901.4314   18457908.1724
  22557222.471      403161.46249    311079.25649  22557222.6104   22557231.5404
  18369569.082   -13320205.51149 -10354659.19649  18369568.2134   18369575.8734
  20347595.660   -20462227.78849 -15930552.09349  20347595.7934   20347602.7334
  22802699.978     1438622.12149   1118586.63549  22802699.9894   22802710.9114
  19472353.507   -23321477.19149 -18135884.12749  19472352.3414   19472360.2344
  19545523.796    -5880699.60249  -4574971.88749  19545523.5864   19545531.2854
 97  3 19  1 28 29.9930000  0  7 30  4  5  6  9 10 24
  18435788.982   -22155696.77549 -17244587.04949  18435788.6494   18435795.6354
  22559741.762      416400.59649    321395.47049  22559741.7064   22559750.6324
  18359451.707   -13373372.54649 -10396088.06649  18359450.9374   18359458.5024
  20319518.578   -20609774.06249 -16045523.19049  20319518.1304   20319525.3524
  22803960.065     1445243.70849   1123746.25649  22803959.4474   22803970.2584
  19448371.510   -23447503.28649 -18234086.25149  19448370.1734   19448377.8884
  19542077.710    -5898809.07449  -4589083.16249  19542077.2914   19542085.1444
 97  3 19  1 28 59.9930000  0  6 30  4  5  6 10 24
  18413780.385   -22271352.65149 -17334708.50349  18413780.3754   18413787.2884
  22562262.828      429648.77149    331718.72749  22562262.7804   22562271.7464
  18349438.402   -13425992.92549 -10437090.97049  18349437.8684   18349445.1814
  20291459.657   -20757224.48849 -16160419.59549  20291459.2054   20291466.6294
  19424495.755   -23572970.93749 -18331853.22549  19424494.6124   19424502.9854
  19538675.189    -5916689.31649  -4603015.82149  19538674.8574   19538682.4144
 97  3 19  1 29 29.9930000  0  6 30  4  5  6 10 24
  18391875.355   -22386464.18649 -17424405.79049  18391875.1104   18391882.0814
  22564786.236      442908.90549    342051.30949  22564785.9844   22564794.9504
  18339527.827   -13478073.40449 -10477673.17049  18339527.0004   18339534.7144
  20263422.158   -20904562.23549 -16275228.21049  20263421.2354   20263428.9224
  19400723.360   -23697895.20749 -18429196.78849  19400722.2094   19400730.1574
  19535315.895    -5934342.62049  -4616771.64149  19535315.8324   19535323.4834
 97  3 19  1 29 59.9930000  0  6 30  4  5  6 10 24
  18370078.537   -22501007.14849 -17513660.03849  18370078.4594   18370085.4704
  22567309.094      456166.59449    352381.98649  22567309.2774   22567317.7954
  18329720.506   -13529611.09849 -10517832.42449  18329719.7094   18329727.4464
  20235407.628   -21051779.67049 -16389943.07749  20235407.3394   20235414.4244
  19377054.946   -23822273.16649 -18526114.65749  19377053.6854   19377061.5214
  19532003.287    -5951750.91249  -4630336.54849  19532003.0664   19532010.6684
 97  3 19  1 30 29.9930000  0  6 30  4  5  6 10 24
  18348391.276   -22614974.36149 -17602465.65249  18348391.4434   18348398.0724
  22569829.750      469412.69749    362703.63949  22569829.1824   22569838.2544
  18320014.688   -13580615.49349 -10557576.11549  18320014.0484   18320021.6544
  20207419.194   -21198859.65749 -16504550.83749  20207418.8654   20207425.8074
  19353491.183   -23946101.72349 -18622604.41349  19353489.8784   19353497.7544
  19528738.280    -5968908.80049  -4643706.32749  19528737.9064   19528745.6784
 97  3 19  1 30 59.9920000  0  6 30  4  5  6 10 24
  18326810.341   -22728383.05649 -17690836.06049  18326810.1934   18326816.9584
  22572346.226      482636.52649    373007.93549  22572346.3304   22572354.4794
  18310405.556   -13631112.13549 -10596924.16049  18310404.8604   18310412.3554
  20179453.276   -21345821.57649 -16619066.60149  20179453.3254   20179460.2464
  19330027.617   -24069403.12949 -18718683.41249  19330026.2314   19330034.0574
  19525515.798    -5985842.85149  -4656901.69049  19525515.5874   19525523.3024
 97  3 19  1 31 29.9920000  0  6 30  4  5  6 10 24
  18305338.055   -22841220.62849 -17778761.43549  18305338.1284   18305344.7504
  22574861.144      495852.71549    383306.27349  22574861.4094   22574869.2114
  18300898.529   -13681071.95849 -10635853.90149  18300897.7824   18300905.1394
  20151507.809   -21492676.21649 -16733498.75449  20151507.1524   20151514.5064
  19306670.198   -24192147.10049 -18814328.04549  19306669.2514   19306676.9824
  19522340.758    -6002527.84949  -4669902.98149  19522340.0054   19522347.8934
 97  3 19  1 31 59.9920000  0  6 30  4  5  6 10 24
  18283971.022   -22953505.45049 -17866256.09849  18283971.1704   18283977.6824
  22577369.241      509032.86149    393576.51449  22577369.7124   22577377.5574
  18291494.643   -13730489.83049 -10674361.34149  18291493.8624   18291501.5894
  20123576.595   -21639455.80549 -16847872.43249  20123576.2684   20123583.5344
  19283422.303   -24314315.94649 -18909524.52249  19283421.5754   19283428.8194
  19519206.272    -6018999.75949  -4682738.23549  19519205.7654   19519213.4164
 97  3 19  1 32 29.9920000  0  6 30  4  5  6 10 24
  18262708.723   -23065239.70949 -17953321.74749  18262708.9304   18262715.6514
  22579876.604      522208.78449    403843.47949  22579876.0074   22579884.7214
  18282199.992   -13779333.58949 -10712421.41849  18282199.3974   18282206.9054
  20095661.244   -21786151.71649 -16962180.91149  20095660.4044   20095668.4824
  19260289.504   -24435879.75849 -19004249.54649  19260288.6604   19260296.2564
  19516109.646    -6035272.63849  -4695418.40249  19516109.4194   19516117.1964
 97  3 19  1 32 59.9920000  0  6 30  4  5  6 10 24
  18241552.622   -23176416.26749 -18039952.82649  18241552.8464   18241559.1914
  22582386.350      535397.44049    414120.37249  22582385.8104   22582394.4774
  18273018.111   -13827584.88149 -10750019.83149  18273017.4134   18273024.9284
  20067761.277   -21932766.71449 -17076426.33249  20067760.6984   20067768.0234
  19237272.788   -24556833.68549 -19098499.33749  19237271.8844   19237279.2574
  19513051.023    -6051345.83149  -4707942.97449  19513050.9964   19513058.3124
 97  3 19  1 33 29.9920000  0  6 30  4  5  6 10 24
  18220503.208   -23287031.99249 -18126146.89649  18220503.3684   18220509.6014
  22584896.023      548585.68149    424396.92249  22584896.1224   22584904.3144
  18263947.742   -13875250.02649 -10787161.50949  18263947.1334   18263954.3794
  20039876.848   -22079300.17049 -17190608.21449  20039876.3424   20039883.8754
  19214371.927   -24677178.93549 -19192274.83449  19214371.0984   19214378.9564
  19510029.864    -6067222.16349  -4720314.15149  19510029.4484   19510037.0814
 97  3 19  1 33 59.9920000  0  7 30 17  4  5  6 10 24
  18199560.825   -23397084.99049 -18211902.47749  18199560.7664   18199567.2374
  22742332.962   -10658299.97749  -6927921.84449  22742331.9214   22742342.3054
  22587406.586      561778.41549    434676.98549  22587407.7834   22587414.1304
  18254984.287   -13922353.23249 -10823865.30949  18254983.6084   18254991.1984
  20012010.211   -22225740.32149 -17304717.38449  20012010.0044   20012016.6984
  19191583.744   -24796931.33049 -19285588.37249  19191582.6144   19191590.2494
  19507046.000    -6082902.39049  -4732532.52249  19507045.4634   19507053.3014
 97  3 19  1 34 29.9920000  0  6 30 17  5  6 10 24
  18178726.330   -23506571.00349 -18297216.25349  18178726.3904   18178732.7604
  22707498.874   -10841354.26349  -7070561.45049  22707497.4774   22707508.8084
  18246123.502   -13968916.74449 -10860148.57049  18246122.5224   18246130.2184
  19984162.674   -22372080.32749 -17418748.51849  19984162.8524   19984168.9104
  19168903.716   -24916115.07549 -19378458.80349  19168902.2654   19168910.6534
  19504103.121    -6098367.33149  -4744583.12949  19504102.6114   19504110.6764
 97  3 19  1 34 59.9920000  0  6 30 17  5  6 10 24
  18158005.369   -23615460.41449 -18382065.14549  18158005.3344   18158011.8074
  22672693.032   -11024259.75349  -7213085.11349  22672692.2324   22672702.4094
  18237364.959   -14014943.05749 -10896013.23349  18237364.2354   18237371.7364
  19956336.999   -22518305.26649 -17532689.98849  19956336.8654   19956344.2644
  19146333.131   -25034723.89749 -19470881.23949  19146331.8504   19146340.3194
  19501208.613    -6113577.95449  -4756435.57249  19501208.0554   19501215.7574
 97  3 19  1 35 29.9920000  0  6 30 17  5  6 10 24
  18137398.356   -23723750.92849 -18466447.36149  18137398.3804   18137405.0104
  22637918.987   -11206998.36349  -7355478.73449  22637918.3454   22637927.7294
  18228707.992   -14060435.78449 -10931462.11449  18228707.3094   18228714.9974
  19928534.087   -22664410.13749 -17646537.90049  19928533.8434   19928540.5894
  19123874.471   -25152744.63549 -19562845.43049  19123873.4684   19123881.5304
  19498363.422    -6128529.30449  -4768085.97649  19498363.2944   19498370.8734
 97  3 19  1 35 59.9920000  0  6 30 17  5  6 10 24
  18116904.837   -23831445.19649 -18550364.97049  18116904.8084   18116911.3304
  22603176.720   -11389569.71849  -7497742.03149  22603175.8474   22603186.9794
  18220152.386   -14105395.85749 -10966495.93949  18220151.6224   18220159.3614
  19900754.353   -22810393.54749 -17760291.16449  19900753.9054   19900761.0024
  19101526.170   -25270185.69849 -19654357.92049  19101525.3794   19101532.8284
  19495566.837    -6143225.72549  -4779537.72649  19495566.6504   19495574.2204
 97  3 19  1 36 29.9920000  0  6 30 17  5  6 10 24
  18096523.621   -23938549.17849 -18633822.62049  18096523.5974   18096529.9004
  22568469.628   -11571956.75649  -7639861.70649  22568468.7544   22568479.5214
  18211698.585   -14149820.93149 -11001112.88749  18211698.0144   18211705.4544
  19872994.547   -22956271.98849 -17873962.64649  19872993.8434   19873001.0274
  19079288.397   -25387046.40949 -19745418.19249  19079287.6744   19079295.1714
  19492817.241    -6157674.88949  -4790796.81949  19492817.0144   19492824.8024
 97  3 19  1 36 59.9920000  0  6 30 17  5  6 10 24
  18076254.842   -24045062.32349 -18716819.87249  18076254.8394   18076261.3724
  22533800.352   -11754145.15949  -7781826.59949  22533799.9454   22533808.9254
  18203347.738   -14193704.93049 -11035308.21749  18203346.9954   18203354.6374
  19845254.173   -23102048.27549 -17987554.53049  19845253.8674   19845261.2354
  19057162.225   -25503320.16349 -19836021.09849  19057160.9824   19057168.8274
  19490111.555    -6171893.20049  -4801876.02449  19490111.2374   19490118.8424
 97  3 19  1 37 29.9920000  0  6 30 17  5  6 10 24
  18056098.361   -24150985.33249 -18799357.27849  18056098.1434   18056104.8054
  22499170.117   -11936128.18249  -7923631.42949  22499168.7004   22499179.3454
  18195101.897   -14237037.26149 -11069073.67949  18195101.4134   18195108.7844
  19817537.744   -23247699.18849 -18101048.71749  19817537.6344   19817544.2544
  19035149.317   -25618998.25149 -19926159.83549  19035148.1214   19035155.9144
  19487450.765    -6185875.22949  -4812771.11049  19487450.0094   19487458.1694
 97  3 19  1 37 59.9920000  0  6 30 17  5  6 10 24
  18036039.799   -24256393.46449 -18881493.47549  18036039.5404   18036046.4044
  22464562.054   -12117994.20549  -8065345.09549  22464560.8984   22464571.2924
  18186945.980   -14279897.06849 -11102470.94149  18186945.2604   18186952.8044
  19789832.454   -23393291.17749 -18214496.99349  19789831.9244   19789839.2654
  19013234.239   -25734162.60849 -20015898.26249  19013233.0534   19013241.2824
  19484820.565    -6199696.77249  -4823541.14549  19484820.0204   19484828.2034
 97  3 19  1 38 29.9920000  0  6 30 17  5  6 10 24
  18016102.152   -24361166.31049 -18963134.64849  18016101.8124   18016108.6774
  22429999.801   -12299619.28949  -8206871.00349  22429998.3654   22430010.1044
  18178904.356   -14322156.27749 -11135400.20649  18178903.6274   18178911.1784
  19762163.636   -23538691.58849 -18327795.99049  19762163.2094   19762170.3864
  18991443.344   -25848674.54549 -20105128.31949  18991441.7384   18991450.1054
  19482245.453    -6213229.00349  -4834085.73449  19482244.8934   19482252.8464
 97  3 19  1 38 59.9920000  0  6 30 17  5  6 10 24
  17996283.246   -24465314.93849 -19044289.42249  17996283.0134   17996289.9234
  22395475.345   -12481046.05849  -8348242.41149  22395474.7754   22395484.6154
  18170974.154   -14363829.81449 -11167873.10749  18170973.4874   18170981.0604
  19734532.395   -23683894.37349 -18440940.99449  19734531.6684   19734539.0514
  18969774.156   -25962546.51349 -20193859.70749  18969773.2194   18969781.1014
  19479721.283    -6226493.74349  -4844421.89349  19479720.9704   19479729.0124
 97  3 19  1 39 29.9920000  0  6 30 17  5  6 10 24
  17976579.940   -24568856.44049 -19124971.11349  17976579.9034   17976586.5084
  22360981.833   -12662310.22949  -8489487.10649  22360980.6554   22360990.7104
  18163151.682   -14404937.13949 -11199904.80249  18163151.0324   18163158.5474
  19706935.543   -23828916.34849 -18553945.11249  19706934.8434   19706942.2914
  18948224.047   -26075793.00149 -20282103.70349  18948223.2084   18948231.0104
  19477241.976    -6239522.61849  -4854574.26649  19477241.7764   19477249.5254
 97  3 19  1 39 59.9920000  0  6 30 17  5  6 10 24
  17956993.869   -24671781.95949 -19205172.81549  17956993.9824   17957000.7114
  22326520.056   -12843407.53749  -8630601.76849  22326518.8234   22326529.4604
  18155437.605   -14445475.02449 -11231492.77149  18155436.8634   18155444.4794
  19679369.654   -23973775.52849 -18666822.37049  19679368.8364   19679376.8424
  18926794.875   -26188403.70449 -20369852.27749  18926793.5934   18926801.9654
  19474804.582    -6252331.15349  -4864554.93649  19474804.3144   19474812.1934
 97  3 19  1 40 29.9910000  0  6 30 17  5  6 10 24
  17937531.695   -24774056.49149 -19284867.25349  17937531.6354   17937538.3864
  22292096.722   -13024302.81549  -8771558.99549  22292094.5244   22292106.5214
  18147836.413   -14485419.56249 -11262618.39549  18147835.4754   18147843.4624
  19651836.409   -24118463.58049 -18779566.28549  19651836.0774   19651843.4234
  18905492.071   -26300350.43849 -20457083.47349  18905490.7914   18905499.0004
  19472413.046    -6264899.11149  -4874348.14649  19472412.8994   19472421.1094
 97  3 19  1 40 59.9910000  0  6 30 17  5  6 10 24
  17918176.936   -24875766.22849 -19364121.59549  17918176.8244   17918183.7774
  22257691.510   -13205102.26749  -8912441.54949  22257690.4024   22257700.1334
  18140329.124   -14524870.37949 -11293359.30349  18140328.5224   18140336.1504
  19624316.095   -24263083.93349 -18892257.45549  19624316.0894   19624323.1344
  18884296.825   -26411731.94949 -20543874.23649  18884295.5544   18884303.8334
  19470048.054    -6277327.35749  -4884032.49549  19470047.7764   19470055.6204
 97  3 19  1 41 29.9910000  0  6 30 17  5  6 10 24
  17898933.779   -24976889.62749 -19442919.04249  17898933.4764   17898940.4394
  22223311.761   -13385767.95349  -9053219.88349  22223310.5024   22223320.9594
  18132919.266   -14563809.56149 -11323701.53249  18132918.6424   18132926.0764
  19596811.107   -24407623.57749 -19004885.73049  19596811.3604   19596818.3894
  18863213.054   -26522527.73949 -20630208.59149  18863212.1404   18863219.8194
  19467715.140    -6289586.87949  -4893585.36649  19467714.7624   19467722.7034
 97  3 19  1 41 59.9910000  0  6 30 17  5  6 10 24
  17879809.843   -25077386.54149 -19521228.32949  17879809.6254   17879816.6904
  22188968.351   -13566242.90149  -9193849.59149  22188966.6984   22188976.7944
  18125612.753   -14602205.79949 -11353620.68849  18125612.3104   18125619.4664
  19569328.769   -24552044.49649 -19117421.49749  19569328.7864   19569335.5014
  18842246.977   -26632705.13749 -20716061.09649  18842246.1844   18842253.8884
  19465426.988    -6301611.16749  -4902954.94049  19465426.6864   19465434.5684
 97  3 19  1 42 29.9910000  0  6 30 17  5  6 10 24
  17860800.183   -25177282.77349 -19599069.54749  17860799.8164   17860806.8224
  22154656.785   -13746550.83249  -9334349.17449  22154656.5304   22154665.6264
  18118404.910   -14640083.40449 -11383135.71649  18118404.2204   18118411.6894
  19541868.892   -24696347.65949 -19229865.50149  19541868.4864   19541875.5664
  18821394.648   -26742285.05549 -20801448.02049  18821393.7004   18821401.3884
  19463180.306    -6313417.76049  -4912154.88649  19463180.0414   19463187.6514
 97  3 19  1 42 59.9910000  0  6 30 17  5  6 10 24
  17841900.321   -25276602.06649 -19676461.19849  17841900.1804   17841907.1134
  22120374.866   -13926702.90749  -9474727.28449  22120374.3044   22120384.1444
  18111293.648   -14677453.27949 -11412255.10949  18111292.9334   18111300.5094
  19514430.881   -24840535.33249 -19342219.50849  19514430.6114   19514437.4914
  18800654.038   -26851277.63549 -20886377.26949  18800653.0694   18800660.4374
  19460972.637    -6325019.31849  -4921195.06449  19460972.2794   19460980.5834
 97  3 19  1 43 29.9910000  0  6 30 17  5  6 10 24
  17823123.984   -25375272.43249 -19753347.19749  17823123.9384   17823130.7424
  22086143.177   -14106591.69549  -9614900.24949  22086142.8314   22086153.0684
  18104298.069   -14714215.50549 -11440901.00749  18104297.4264   18104304.8714
  19487028.970   -24984533.03949 -19454425.50049  19487029.0414   19487035.4254
  18780041.492   -26959596.88649 -20970781.85649  18780040.2394   18780048.1084
  19458822.068    -6336320.53149  -4930001.20749  19458821.8984   19458829.5434
 97  3 19  1 43 59.9910000  0  6 30 17  5  6 10 24
  17804453.522   -25473386.41349 -19829799.64249  17804453.4634   17804460.3394
  22051946.799   -14286294.84249  -9754928.58749  22051945.3864   22051955.7654
  18097402.983   -14750449.68949 -11469135.44249  18097402.1394   18097409.6914
  19459647.048   -25128426.24649 -19566550.04949  19459646.8074   19459653.4124
  18759542.955   -27067317.06749 -21054719.63049  18759541.5704   18759549.5684
  19456707.326    -6347433.69049  -4938660.80649  19456707.1624   19456715.2864
 97  3 19  1 44 29.9910000  0  6 30 17  5  6 10 24
  17785899.451   -25570888.54649 -19905775.33049  17785899.5784   17785906.2134
  22017793.436   -14465772.16049  -9894780.93849  22017793.3294   22017801.7824
  18090621.067   -14786088.73049 -11496906.13449  18090620.2644   18090627.7894
  19432294.012   -25272167.21749 -19678555.97349  19432293.8334   19432300.6824
  18739169.289   -27174380.95149 -21138146.00349  18739168.1244   18739176.0414
  19454633.342    -6358332.36249  -4947153.28649  19454632.9284   19454640.9404
 97  3 19  1 44 59.9910000  0  6 30 17  5  6 10 24
  17767459.816   -25667789.60449 -19981282.65249  17767460.0334   17767466.6634
  21983678.595   -14645046.83349 -10034475.38649  21983678.1164   21983687.0474
  18083947.667   -14821157.59549 -11524232.53449  18083946.9444   18083954.5464
  19404958.794   -25415814.66349 -19790489.02349  19404958.4274   19404965.4404
  18718913.928   -27280823.67049 -21221088.35949  18718912.8864   18718920.8744
  19452594.314    -6369047.40649  -4955502.68849  19452594.4894   19452602.0384
 97  3 19  1 45 29.9910000  0  6 30 17  5  6 10 24
  17749126.628   -25764131.51249 -20056354.26949  17749126.4654   17749133.2184
  21949591.792   -14824173.54149 -10174054.50049  21949590.4254   21949601.0244
  18077372.223   -14855711.94349 -11551158.00449  18077371.3864   18077378.7584
  19377630.309   -25559426.68849 -19902394.47749  19377629.7964   19377636.9134
  18698766.143   -27386701.04749 -21303590.19249  18698765.4844   18698773.0254
  19450575.782    -6379655.45249  -4963768.69049  19450575.8974   19450583.2444
 97  3 19  1 45 59.9910000  0  6 30 17  5  6 10 24
  17730905.473   -25859884.47749 -20130966.97049  17730905.3504   17730912.2484
  21915530.612   -15003165.64949 -10313528.76149  21915530.1944   21915540.3794
  18070891.234   -14889769.71649 -11577696.53549  18070890.3534   18070897.9864
  19350309.643   -25702997.51049 -20014267.81949  19350309.1404   19350316.2764
  18678725.747   -27492014.36749 -21385652.49449  18678724.7484   18678732.5904
  19448575.563    -6390166.96749  -4971959.48249  19448575.1424   19448582.9224
 97  3 19  1 46 29.9910000  0  6 30 17  5  6 10 24
  17712813.565   -25954958.05649 -20205050.28049  17712813.4744   17712820.4124
  21881509.356   -15181948.77549 -10452840.16749  21881508.7574   21881519.4124
  18064516.814   -14923267.45549 -11603798.68349  18064516.2264   18064523.6604
  19323013.638   -25846438.74549 -20126040.18649  19323013.3964   19323020.1064
  18658805.612   -27596695.50149 -21467222.18949  18658804.4984   18658812.2234
  19446612.549    -6400482.70349  -4979997.72549  19446612.2804   19446619.9284
 97  3 19  1 46 59.9910000  0  6 30 17  5  6 10 24
  17694824.105   -26049493.30249 -20278714.10349  17694824.1284   17694830.9114
  21847505.159   -15360642.12349 -10592081.62549  21847503.3284   21847515.0404
  18058223.374   -14956339.64549 -11629569.22549  18058222.5034   18058230.3524
  19295722.960   -25989852.21849 -20237790.91549  19295722.6594   19295729.3624
  18638984.023   -27700859.02149 -21548388.54349  18638983.1804   18638990.4124
  19444662.720    -6410729.18249  -4987981.99449  19444662.4304   19444670.2714
 97  3 19  1 47 29.9910000  0  6 30 17  5  6 10 24
  17676954.962   -26143396.30649 -20351885.27549  17676954.8794   17676961.7334
  21813541.452   -15539122.08449 -10731156.81449  21813539.4814   21813550.2724
  18052030.778   -14988882.08249 -11654926.97749  18052030.2004   18052037.4404
  19268466.593   -26133085.50849 -20349401.25349  19268466.2184   19268472.9134
  18619283.074   -27804388.11549 -21629060.54549  18619281.6604   18619289.1174
  19442748.468    -6420788.81549  -4995820.67149  19442747.9264   19442756.0894
 97  3 19  1 47 59.9910000  0  6 30 17  5  6 10 24
  17659183.044   -26236788.49649 -20424658.41149  17659183.0324   17659189.7734
  21779597.537   -15717498.20449 -10870151.07949  21779597.0694   21779608.0494
  18045916.174   -15021014.79249 -11679965.46149  18045915.3334   18045922.7514
  19241225.448   -26276238.70549 -20460949.17849  19241225.0374   19241232.1024
  18599681.685   -27907393.89949 -21709324.76949  18599680.6594   18599688.7734
  19440852.103    -6430754.39049  -5003586.04949  19440851.8284   19440859.7574
 97  3 19  1 48 29.9910000  0  6 30 17  5  6 10 24
  17641531.640   -26329547.29549 -20496937.99549  17641531.6124   17641538.4734
  21745701.918   -15895620.77749 -11008947.79349  21745702.1144   21745707.8304
  18039909.443   -15052580.27849 -11704561.95449  18039908.6614   18039915.9844
  19214028.609   -26419159.17449 -20572315.76149  19214028.2554   19214035.2314
  18580209.783   -28009719.43449 -21789058.93149  18580208.7794   18580216.8824
  19439002.626    -6440473.36349  -5011159.27449  19439002.2894   19439010.2174
 97  3 19  1 48 59.9910000  0  6 30 17  5  6 10 24
  17623988.098   -26421739.26049 -20568775.89149  17623988.2374   17623994.9464
  21711843.839   -16073547.18149 -11147591.67249  21711842.8044   21711851.1254
  18033999.368   -15083637.69449 -11728762.54649  18033998.6134   18034006.0284
  19186861.331   -26561924.45149 -20683561.41749  19186861.3324   19186867.5014
  18560855.188   -28111428.25349 -21868312.53449  18560853.8784   18560861.9954
  19437189.089    -6450003.55549  -5018585.40049  19437188.7244   19437196.5584
 97  3 19  1 49 29.9910000  0  6 30 17  5  6 10 24
  17606550.908   -26513372.53949 -20640178.44449  17606550.9284   17606557.7064
  21678017.101   -16251308.82149 -11286107.14049  21678018.1804   21678025.0674
  18028177.014   -15114234.35749 -11752604.10849  18028176.1934   18028183.7604
  19159713.390   -26704587.92249 -20794727.73649  19159712.9374   19159719.7594
  18541609.525   -28212564.53549 -21947119.99749  18541608.3724   18541616.6034
  19435407.437    -6459366.05049  -5025880.85549  19435406.8484   19435414.9794
 97  3 19  1 49 59.9900000  0  6 30 17  5  6 10 24
  17589229.914   -26604394.83049 -20711104.90649  17589229.6404   17589236.5644
  21644227.478   -16428875.81049 -11424470.94249  21644228.3924   21644236.3454
  18022451.180   -15144323.96549 -11776050.56449  18022450.4274   18022458.1304
  19132588.904   -26847128.01949 -20905797.92449  19132588.4054   19132595.3004
  18522481.550   -28313082.92649 -22025445.98849  18522480.2044   18522488.7224
  19433663.926    -6468528.08249  -5033020.09449  19433663.3754   19433671.2294
 97  3 19  1 50 29.9900000  0  6 30 17  5  6 10 24
  17572015.615   -26694856.52349 -20781594.54149  17572015.4674   17572022.5354
  21610461.608   -16606317.58449 -11562737.20549  21610461.2094   21610469.0354
  18016811.616   -15173960.27949 -11799143.80549  18016810.9114   18016818.5154
  19105475.135   -26989611.87449 -21016824.29549  19105474.6054   19105481.4244
  18503459.494   -28413044.42049 -22103338.04149  18503458.2524   18503465.9994
  19431945.704    -6477557.42549  -5040055.95249  19431945.5344   19431953.3024
 97  3 19  1 50 59.9900000  0  6 30 17  5  6 10 24
  17554928.158   -26784651.38549 -20851564.56649  17554928.0464   17554934.9164
  21576737.739   -16783538.55149 -11700831.43749  21576737.2864   21576744.5504
  18011277.103   -15203044.53249 -11821806.87149  18011276.5934   18011283.7414
  19078392.121   -27131933.91849 -21127724.58249  19078391.3844   19078398.5204
  18484561.261   -28512355.10949 -22180722.97549  18484560.2654   18484568.1114
  19430267.853    -6486374.60349  -5046926.47849  19430267.8354   19430275.2164
 97  3 19  1 51 29.9900000  0  6 30 17  5  6 10 24
  17537942.157   -26873913.22549 -20921119.24749  17537942.2254   17537949.2264
  21543028.951   -16960679.67949 -11838863.42849  21543027.2134   21543035.8474
  18005823.291   -15231704.38449 -11844139.23449  18005822.5884   18005830.2254
  19051316.114   -27274218.82649 -21238595.92449  19051315.4194   19051322.3484
  18465763.316   -28611138.59349 -22257697.09849  18465762.0194   18465770.4624
  19428598.999    -6495144.67949  -5053760.30149  19428598.7114   19428606.3864
 97  3 19  1 51 59.9900000  0  6 30 17  5  6 10 24
  17521074.320   -26962554.25849 -20990190.18049  17521074.4634   17521081.4044
  21509353.064   -17137647.09149 -11976760.04949  21509352.3054   21509360.5094
  18000472.197   -15259824.62849 -11866051.12249  18000471.3834   18000478.9964
  19024265.842   -27416368.62549 -21349361.98449  19024265.3254   19024272.6304
  18447086.053   -28709287.99749 -22334177.13349  18447085.0094   18447092.9144
  19426955.625    -6503780.72449  -5060489.69049  19426955.2794   19426962.8714
 97  3 19  1 52 29.9900000  0  6 30 17  5  6 10 24
  17504326.060   -27050566.95549 -21058771.50049  17504326.0774   17504333.2464
  21475714.450   -17314418.52349 -12114503.96249  21475713.1634   21475721.4364
  17995225.256   -15287397.46749 -11887536.46449  17995224.6554   17995232.1554
  18997243.150   -27558373.89849 -21460015.43349  18997242.8124   18997249.9824
  18428532.563   -28806786.86949 -22410150.26649  18428531.1534   18428539.4754
  19425339.670    -6512272.41749  -5067106.59149  19425339.0984   19425347.1934
 97  3 19  1 52 59.9900000  0  6 30 17  5  6 10 24
  17487694.242   -27137967.57849 -21126875.87549  17487694.1314   17487701.1244
  21442112.810   -17490995.21049 -12252096.13849  21442112.0954   21442120.0044
  17990079.693   -15314437.58149 -11908606.69349  17990078.7484   17990086.6294
  18970244.415   -27700253.11749 -21570570.65249  18970243.9234   18970251.0464
  18410101.649   -28903641.50349 -22485621.38849  18410100.5434   18410108.7214
  19423749.931    -6520626.49649  -5073616.25849  19423749.6584   19423757.4204
 97  3 19  1 53 29.9900000  0  6 30 17  5  6 10 24
  17471176.955   -27224766.36649 -21194511.29349  17471176.8864   17471184.0234
  21408546.774   -17667385.38749 -12389542.98949  21408545.7424   21408555.1354
  17985027.455   -15340987.45349 -11929294.91849  17985026.7054   17985034.3364
  18943263.286   -27842039.75849 -21681053.73849  18943263.0824   18943270.1044
  18391788.631   -28999877.28049 -22560610.28549  18391787.7804   18391795.4154
  19422185.766    -6528846.22249  -5080021.24549  19422185.5814   19422193.0604
 97  3 19  1 53 59.9900000  0  6 30 17  5  6 10 24
  17454773.342   -27310968.20949 -21261681.55749  17454773.6224   17454780.4604
  21375016.209   -17843589.22349 -12526844.63249  21375014.3754   21375024.5754
  17980065.897   -15367060.60649 -11949611.67149  17980065.1104   17980072.9824
  18916297.765   -27983744.50949 -21791473.00849  18916297.2904   18916304.4804
  18373591.669   -29095503.22849 -22635123.99149  18373590.4684   18373598.2174
  19420650.437    -6536914.73249  -5086308.39149  19420650.1344   19420657.9324
 97  3 19  1 54 29.9900000  0  6 30 17  5  6 10 24
  17438469.390   -27396646.12649 -21328443.56549  17438469.3194   17438476.4224
  21341507.903   -18019675.67749 -12664054.82649  21341506.3934   21341515.4844
  17975178.352   -15392744.77949 -11969625.32549  17975177.2944   17975185.1734
  18889335.553   -28125431.26649 -21901878.26249  18889335.1854   18889342.2424
  18355495.100   -29190601.28049 -22709226.35849  18355494.0364   18355501.8254
  19419129.785    -6544905.86349  -5092535.24749  19419129.4364   19419137.2444
 97  3 19  1 54 59.9900000  0  6 30 17  5  6 10 24
  17422282.764   -27481707.33549 -21394725.02349  17422282.6554   17422289.7594
  21308036.802   -18195566.64749 -12801112.67549  21308036.1544   21308044.3964
  17970380.763   -15417956.32049 -11989270.69349  17970380.1354   17970387.7424
  18862395.223   -28267003.43849 -22012194.21649  18862395.0564   18862401.9644
  18337513.996   -29285092.80149 -22782856.09649  18337513.2344   18337520.6704
  19417638.827    -6552740.82949  -5098640.41749  19417638.3594   19417646.0924
 97  3 19  1 55 29.9900000  0  6 30 17  5  6 10 24
  17406208.015   -27566180.62449 -21460548.36049  17406208.0234   17406214.9644
  21274593.857   -18371310.33549 -12938055.77549  21274592.0864   21274600.8614
  17965667.748   -15442723.07249 -12008569.47749  17965666.8884   17965674.7674
  18835472.031   -28408485.80949 -22122440.20749  18835471.2354   18835478.8514
  18319640.931   -29379016.48149 -22856043.36449  18319640.2074   18319647.5274
  19416169.909    -6560460.03049  -5104655.38449  19416169.3764   19416177.1384
 97  3 19  1 55 59.9900000  0  6 30 17  5  6 10 24
  17390244.140   -27650071.29449 -21525917.71049  17390244.1354   17390251.1354
  21241181.223   -18546894.40549 -13074874.49049  21241180.0974   21241189.0884
  17961042.920   -15467026.62449 -12027507.32149  17961042.2594   17961049.8504
  18808570.813   -28549852.68749 -22232596.19649  18808570.1984   18808577.4614
  18301878.818   -29472356.95449 -22928776.18549  18301877.8344   18301885.6504
  19414721.837    -6568069.35949  -5110584.73549  19414721.5284   19414729.5094
 97  3 19  1 56 29.9900000  0  6 30 17  5  6 10 24
  17374386.420   -27733404.19049 -21590852.43249  17374386.2834   17374393.2054
  21207795.289   -18722338.07049 -13211583.79749  21207793.3504   21207803.2154
  17956501.651   -15490891.60349 -12046103.42149  17956501.3034   17956508.7724
  18781690.700   -28691108.73749 -22342665.82649  18781690.2364   18781697.2394
  18284221.464   -29565146.87449 -23001080.00849  18284220.5084   18284228.4764
  19413287.337    -6575607.59349  -5116458.68549  19413286.6014   19413294.9524
 97  3 19  1 56 59.9900000  0  6 30 17  5  6 10 24
  17358635.481   -27816175.87649 -21655349.84349  17358635.3974   17358642.5604
  21174440.188   -18897619.38249 -13348166.58849  21174438.9814   21174448.3304
  17952046.040   -15514306.45049 -12064348.77049  17952045.4884   17952052.9824
  18754833.359   -28832244.89449 -22452642.03049  18754832.8194   18754840.1594
  18266672.867   -29657365.23649 -23072938.45349  18266671.7964   18266679.7874
  19411868.827    -6583061.56949  -5122266.97249  19411867.8344   19411876.4394
 97  3 19  1 57 29.9900000  0  6 30 17  5  6 10 24
  17343001.930   -27898330.90449 -21719366.75549  17343001.9704   17343008.9474
  21141129.949   -19072664.67549 -13484565.47949  21141129.0114   21141137.0734
  17947687.056   -15537213.37749 -12082198.34349  17947686.6854   17947693.9324
  18728012.176   -28973190.95549 -22562470.12149  18728011.7974   18728018.8914
  18249246.137   -29748943.40049 -23144298.03849  18249245.4004   18249252.8884
  19410480.786    -6590355.77449  -5127950.77949  19410479.7944   19410488.3134
 97  3 19  1 57 59.9900000  0  6 30 17  5  6 10 24
  17327465.007   -27979977.87849 -21782987.76749  17327464.9564   17327472.1284
  21107848.735   -19247558.15749 -13620846.08649  21107847.5214   21107856.5624
  17943403.560   -15559723.55149 -12099738.74649  17943402.8314   17943410.1544
  18701207.812   -29114048.55049 -22672229.26549  18701207.3544   18701214.7034
  18231923.518   -29839974.59549 -23215231.41349  18231922.7334   18231930.1014
  19409104.805    -6597586.47449  -5133585.08649  19409104.5274   19409112.6524
 97  3 19  1 58 29.9900000  0  6 30 17  5  6 10 24
  17312042.237   -28061025.13949 -21846141.47949  17312042.2534   17312049.4604
  21074607.866   -19422240.11149 -13756961.85449  21074606.0844   21074616.1384
  17939214.013   -15581739.83549 -12116894.30549  17939213.4114   17939220.6764
  18674432.226   -29254755.35049 -22781870.91049  18674432.2004   18674438.9264
  18214721.444   -29930372.40249 -23285671.24549  18214720.6114   18214728.1994
  19407757.302    -6604667.62449  -5139102.86149  19407756.9894   19407764.7374
 97  3 19  1 58 59.9890000  0  6 30 17  5  6 10 24
  17296740.994   -28141433.61549 -21908797.43749  17296741.1754   17296748.0654
  21041411.423   -19596688.60449 -13892895.70449  21041410.6944   21041420.0124
  17935124.472   -15603230.58349 -12133640.35049  17935123.6124   17935131.2544
  18647687.355   -29395300.69949 -22891386.74949  18647686.7254   18647694.1364
  18197648.872   -30020089.64849 -23355580.76449  18197647.9404   18197655.8554
  19406443.449    -6611571.99949  -5144482.89349  19406443.0894   19406451.2514
 97  3 19  1 59 29.9890000  0  6 30 17  5  6 10 24
  17281559.299   -28221214.38049 -21970964.27549  17281559.5654   17281566.1454
  21008249.866   -19770953.23649 -14028686.29849  21008249.0024   21008258.3634
  17931132.381   -15624209.41649 -12149987.50049  17931131.7564   17931139.1224
  18620966.943   -29535717.15549 -23000802.14649  18620966.6434   18620973.6434
  18180702.038   -30109146.24249 -23424975.49249  18180701.2724   18180708.3904
  19405159.931    -6618316.79949  -5149738.58249  19405159.4084   19405167.4904
 97  3 19  1 59 59.9890000  0  6 30 17  5  6 10 24
  17266499.039   -28300356.77549 -22032633.67949  17266499.0414   17266505.7444
  20975123.556   -19945031.96249 -14164332.03849  20975121.8754   20975132.5444
  17927239.885   -15644664.89849 -12165926.83949  17927239.2214   17927246.7144
  18594268.428   -29676018.56349 -23110127.89849  18594268.1764   18594275.2204
  18163882.338   -30197534.56549 -23493849.48649  18163881.2974   18163888.7154
  19403904.866    -6624912.33549  -5154877.96649  19403904.1474   19403912.4134
 97  3 19  2  0 29.9890000  0  6 30 17  5  6 10 24
  17251551.389   -28378907.33949 -22093841.91549  17251551.3894   17251557.9824
  20942021.423   -20118984.52349 -14299879.45749  20942021.0414   20942029.5884
  17923437.610   -15664646.14649 -12181496.64949  17923437.0134   17923444.1984
  18567582.252   -29816255.58249 -23219403.47649  18567581.7314   18567588.9094
  18147178.011   -30285316.16349 -23562250.71249  18147176.5314   18147184.3384
  19402668.294    -6631410.47949  -5159941.44749  19402667.5934   19402675.3584
 97  3 19  2  0 59.9890000  0  6 30 17  5  6 10 24
  17236734.320   -28456771.60249 -22154515.36949  17236734.5074   17236741.1804
  20908966.999   -20292686.86749 -14435231.88749  20908965.7444   20908975.4324
  17919738.650   -15684084.26649 -12196643.24349  17919738.1434   17919745.5764
  18540932.140   -29956302.84149 -23328531.18349  18540931.5004   18540938.8474
  18130606.836   -30372397.53249 -23630106.30149  18130605.4134   18130613.3204
  19401468.058    -6637717.71549  -5164856.17949  19401467.7034   19401475.8134
 97  3 19  2  1 29.9890000  0  6 30 17  5  6 10 24
  17222033.129   -28534026.93849 -22214714.33549  17222033.1354   17222040.0384
  20875947.441   -20466206.12649 -14570441.65649  20875946.8434   20875955.9354
  17916127.613   -15703060.50449 -12211429.93149  17916127.0234   17916134.3594
  18514305.537   -30096226.20849 -23437562.35049  18514304.8934   18514312.0794
  18114150.559   -30458875.47949 -23697491.69649  18114149.4454   18114157.1464
  19400290.503    -6643906.03749  -5169678.24549  19400290.5684   19400298.4114
 97  3 19  2  1 59.9890000  0  6 30 17  5  6 10 24
  17207454.403   -28610638.58249 -22274411.71849  17207454.1974   17207461.0404
  20842972.752   -20639489.69549 -14705467.76149  20842972.7604   20842981.0384
  17912608.823   -15721551.94249 -12225838.85049  17912608.0004   17912615.8264
  18487712.397   -30235973.74049 -23546456.50349  18487711.7434   18487719.2194
  18097811.473   -30544737.68949 -23764397.29449  18097810.3074   18097818.2674
  19399138.944    -6649957.77449  -5174393.87249  19399138.3764   19399146.5274
 97  3 19  2  2 29.9890000  0  6 30 17  5  6 10 24
  17193014.940   -28686518.26249 -22333538.74049  17193014.6944   17193021.5964
  20810059.507   -20812450.25649 -14840242.19049  20810058.5164   20810067.7184
  17909196.269   -15739485.04949 -12239812.70649  17909195.4924   17909203.0874
  18461171.922   -30375444.68549 -23655135.14449  18461171.7474   18461178.7164
  18081602.324   -30629916.96649 -23830770.74449  18081601.1584   18081608.6084
  19398028.160    -6655795.17649  -5178942.49149  19398027.6454   19398035.4684
 97  3 19  2  2 59.9890000  0  6 30 17  5  6 10 24
  17178685.476   -28761819.95549 -22392215.38349  17178685.4244   17178692.4334
  20777178.407   -20985241.24749 -14974884.47149  20777177.5194   20777185.9194
  17905858.292   -15757026.28049 -12253481.20249  17905857.8734   17905865.0414
  18434652.772   -30514803.92149 -23763726.72949  18434652.7954   18434659.3774
  18065493.822   -30714567.62449 -23896732.28049  18065492.6204   18065500.4494
  19396925.310    -6661590.35749  -5183458.21049  19396924.4994   19396933.0154
 97  3 19  2  3 29.9890000  0  6 30 17  5  6 10 24
  17164485.262   -28836442.67649 -22450362.95749  17164485.1544   17164492.0934
  20744348.804   -21157761.86949 -15109316.06149  20744348.2674   20744356.3084
  17902616.075   -15774064.43549 -12266757.69349  17902615.3474   17902622.8594
  18408171.277   -30653965.18149 -23872164.04749  18408171.2884   18408177.5224
  18049505.324   -30798587.27749 -23962202.12649  18049503.8784   18049512.3534
  19395849.885    -6667241.73649  -5187861.87449  19395849.4734   19395857.5354
 97  3 19  2  3 59.9890000  0  6 30 17  5  6 10 24
  17150400.935   -28910456.21449 -22508035.84549  17150400.9944   17150407.9694
  20711561.476   -21330060.66849 -15243574.79449  20711559.8164   20711568.6364
  17899457.025   -15790665.29549 -12279693.44349  17899456.2844   17899463.9154
  18381717.262   -30792982.29349 -23980489.04649  18381717.0324   18381723.7474
  18033629.406   -30882015.32149 -24027210.98949  18033628.0994   18033636.0284
  19394790.678    -6672807.96349  -5192199.18249  19394790.4864   19394798.4124
 97  3 19  2  4 29.9890000  0  6 30 17  5  6 10 24
  17136447.819   -28983780.15149 -22565171.37849  17136447.6644   17136454.7684
  20678831.755   -21502056.66349 -15377597.56449  20678831.5634   20678840.0504
  17896399.558   -15806732.04649 -12292212.99849  17896398.9114   17896406.3134
  18355304.380   -30931783.07149 -24088645.47349  18355304.0574   18355311.0224
  18017888.758   -30964732.81949 -24091666.17549  18017887.9464   18017895.7334
  19393767.678    -6678184.01249  -5196388.30649  19393767.2344   19393774.8784
 97  3 19  2  4 59.9890000  0  6 30 17  5  6 10 24
  17122612.275   -29056486.24549 -22621825.47549  17122612.0624   17122619.2704
  20646148.220   -21673810.45949 -15511431.58649  20646148.3994   20646156.8734
  17893432.367   -15822324.89449 -12304363.27249  17893431.7754   17893439.0274
  18328918.122   -31070443.67449 -24196692.67649  18328917.9144   18328924.4864
  18002273.702   -31046790.43349 -24155607.16349  18002272.8064   18002280.6384
  19392770.568    -6683423.53449  -5200471.03449  19392770.8144   19392778.1804
 97  3 19  2  5 29.9890000  0  6 30 17  5  6 10 24
  17108892.059   -29128586.51149 -22678007.50149  17108892.0904   17108899.0614
  20613511.220   -21845320.20149 -15645075.47449  20613510.4444   20613519.7294
  17890557.368   -15837433.17149 -12316135.95949  17890556.9754   17890564.2244
  18302561.453   -31208949.13449 -24304618.99049  18302561.3604   18302568.0334
  17986785.986   -31128179.19349 -24219026.96249  17986785.0784   17986792.9504
  19391802.230    -6688512.19449  -5204436.22549  19391801.5854   19391810.4044
 97  3 19  2  5 59.9890000  0  6 30 17  5  6 10 24
  17095269.642   -29200172.86049 -22733789.07649  17095269.6714   17095276.5424
  20580900.124   -22016693.01449 -15778612.65849  20580899.2004   20580906.9654
  17887756.857   -15852150.20249 -12327603.78049  17887756.2544   17887763.5944
  18276217.700   -31347386.52549 -24412492.25749  18276217.1584   18276223.8534
  17971408.087   -31208990.83249 -24281997.06049  17971407.0744   17971414.8734
  19390843.553    -6693550.24949  -5208361.96449  19390843.6584   19390850.8234
 97  3 19  2  6 29.9890000  0  6 30 17  5  6 10 24
  17081761.932   -29271156.47249 -22789100.99049  17081761.7724   17081768.9424
  20548329.376   -22187852.40349 -15911983.53149  20548327.3494   20548335.9994
  17885048.128   -15866384.75549 -12338695.65349  17885047.5694   17885055.0564
  18249902.495   -31485673.84149 -24520248.59349  18249902.2764   18249908.7804
  17956153.493   -31289154.16549 -24344461.98049  17956152.2544   17956160.5914
  19389905.995    -6698477.31149  -5212201.22249  19389905.8774   19389913.3574
 97  3 19  2  6 59.9890000  0  6 30 17  5  6 10 24
  17068366.776   -29341548.37049 -22843951.82849  17068366.8364   17068373.8074
  20515796.922   -22358810.25649 -16045197.35849  20515796.0304   20515805.0084
  17882427.092   -15880158.62449 -12349428.55249  17882426.6044   17882433.8534
  18223618.719   -31623796.44249 -24627876.58049  18223618.8114   18223625.0184
  17941017.549   -31368693.84949 -24406440.94049  17941016.2134   17941023.8664
  19388982.808    -6703328.61849  -5215981.47249  19388982.3674   19388990.1094
 97  3 19  2  7 29.9890000  0  6 30 17  5  6 10 24
  17055084.079   -29411349.77849 -22898342.54749  17055084.3514   17055091.1484
  20483298.800   -22529588.20649 -16178271.00249  20483296.3994   20483305.6494
  17879891.677   -15893482.55049 -12359810.84649  17879890.8394   17879898.2654
  18197368.980   -31761739.98849 -24735365.03849  18197368.5044   18197375.4154
  17925999.804   -31447612.17949 -24467935.72849  17925998.4694   17926006.3544
  19388070.084    -6708124.77549  -5219718.74749  19388069.6794   19388077.6904
 97  3 19  2  7 59.9890000  0  6 30 17  5  6 10 24
  17041938.423   -29480430.72549 -22952171.86149  17041938.4524   17041945.4644
  20450856.393   -22700073.73149 -16311116.78449  20450854.8984   20450864.4444
  17877463.305   -15906243.65649 -12369754.57749  17877462.7604   17877470.1934
  18171173.154   -31899399.85649 -24842632.44749  18171172.6994   18171179.0324
  17911121.250   -31525799.00849 -24528860.51749  17911120.1004   17911128.1064
  19387189.435    -6712752.94849  -5223325.12149  19387189.3084   19387196.6704
 97  3 19  2  8 29.9880000  0  6 30 17  5  6 10 24
  17028917.876   -29548854.30249 -23005488.94849  17028918.0454   17028924.6624
  20418459.252   -22870321.33049 -16443777.18949  20418458.9354   20418466.9004
  17875130.467   -15918502.68449 -12379307.08849  17875130.0454   17875137.2554
  18145017.904   -32036846.40549 -24949733.63949  18145017.7564   18145023.9794
  17896369.902   -31603317.72449 -24589264.69949  17896369.3214   17896376.6924
  19386332.067    -6717258.78549  -5226836.16549  19386331.6324   19386339.8334
 97  3 19  2  8 59.9880000  0  6 30 17  5  6 10 24
  17016013.180   -29616669.13749 -23058331.67949  17016013.2394   17016019.9674
  20386094.248   -23040400.48349 -16576306.30749  20386092.6524   20386101.0344
  17872881.373   -15930321.58649 -12388516.63649  17872879.9834   17872887.8054
  18118889.259   -32174153.22149 -25056725.94249  18118888.7444   18118895.4944
  17881736.107   -31680219.35249 -24649188.02349  17881735.1924   17881742.8064
  19385493.734    -6721664.34149  -5230269.06549  19385493.5624   19385501.0254
 97  3 19  2  9 29.9880000  0  6 30 17  5  6 10 24
  17003249.720   -29683741.57349 -23110595.92549  17003249.7854   17003256.5884
  20353790.084   -23210159.91149 -16708586.28549  20353789.4754   20353798.1314
  17870741.286   -15941567.76449 -12397279.91449  17870740.6944   17870747.9494
  18092807.800   -32311211.86349 -25163524.87249  18092807.3404   18092813.9254
  17867243.792   -31756377.18149 -24708531.77549  17867243.0154   17867250.5254
  19384703.417    -6725817.49249  -5233505.29149  19384703.1294   19384710.3324
 97  3 19  2  9 59.9880000  0  6 30 17  5  6 10 24
  16990600.833   -29750212.34749 -23162391.33949  16990600.9724   16990607.5194
  20321523.444   -23379722.09649 -16840712.59649  20321522.7234   20321530.6464
  17868680.719   -15952396.04149 -12405717.55449  17868680.1004   17868687.4724
  18066742.669   -32448184.85049 -25270257.05249  18066742.3654   18066748.8644
  17852864.945   -31831938.74749 -24767410.90149  17852863.8604   17852871.7054
  19383934.722    -6729856.79749  -5236652.78949  19383934.6714   19383942.4854
 97  3 19  2 10 29.9880000  0  6 30 17  5  6 10 24
  16978076.224   -29816029.54849 -23213677.47349  16978076.2724   16978082.9104
  20289305.428   -23549028.62649 -16972639.72349  20289303.8774   20289312.9254
  17866707.939   -15962763.08349 -12413795.78849  17866706.9264   17866714.0654
  18040706.245   -32585006.96149 -25376871.66849  18040705.5994   18040712.4784
  17838610.052   -31906848.74549 -24825782.31449  17838608.9384   17838616.7724
  19383194.163    -6733748.59849  -5239685.36149  19383193.7944   19383201.6734
 97  3 19  2 10 59.9880000  0  6 30 17  5  6 10 24
  16965686.227   -29881139.47949 -23264412.49749  16965686.3904   16965693.0154
  20257148.203   -23718015.37449 -17104317.65549  20257147.0294   20257155.9464
  17864830.223   -15972630.23549 -12421484.49449  17864829.4464   17864836.5084
  18014710.469   -32721615.69849 -25483320.01949  18014710.1464   18014716.4624
  17824488.979   -31981055.12849 -24883605.46249  17824487.7244   17824495.5074
  19382486.530    -6737466.92749  -5242582.76349  19382486.7044   19382493.9314
 97  3 19  2 11 29.9880000  0  6 30 17  5  6 10 24
  16953419.445   -29945602.16849 -23314643.17249  16953419.5724   16953426.1724
  20225044.158   -23886722.82849 -17235777.94649  20225042.7944   20225051.8644
  17863038.906   -15982043.76549 -12428819.72949  17863038.4264   17863045.4644
  17988747.335   -32858052.92149 -25589634.71749  17988746.9804   17988753.4754
  17810491.732   -32054611.21449 -24940921.87449  17810490.5944   17810498.1484
  19381798.595    -6741082.03849  -5245399.72449  19381797.9904   19381806.1544
 97  3 19  2 11 59.9880000  0  6 30 17  5  6 10 24
  16941265.980   -30009469.20149 -23364409.70149  16941265.8964   16941272.7004
  20192982.755   -24055206.52349 -17367063.90549  20192982.2394   20192990.0654
  17861324.660   -15991052.37149 -12435839.44149  17861323.8534   17861331.5024
  17962809.643   -32994356.43549 -25695845.23049  17962809.0564   17962815.7444
  17796609.328   -32127563.73849 -24997767.98649  17796608.2844   17796616.1504
  19381117.142    -6744662.75349  -5248189.89349  19381117.3724   19381123.7564
 97  3 19  2 12 29.9880000  0  6 30 17  5  6 10 24
  16929225.187   -30072743.81949 -23413714.60949  16929225.1814   16929232.1574
  20160961.982   -24223476.25349 -17498183.12549  20160960.3884   20160969.4544
  17859689.994   -15999642.38649 -12442532.98149  17859689.2044   17859696.9914
  17936901.544   -33130504.19649 -25801934.37449  17936901.3524   17936908.0114
  17782839.675   -32199923.85649 -25054152.48449  17782838.5174   17782846.2434
  19380444.343    -6748198.24549  -5250944.81549  19380444.0984   19380451.1504
 97  3 19  2 12 59.9880000  0  6 30 17  5  6 10 24
  16917323.363   -30135288.08249 -23462450.40449  16917323.3614   16917330.2234
  20129008.583   -24391392.37249 -17629026.81349  20129007.8484   20129015.9724
  17858163.310   -16007665.01149 -12448784.38249  17858162.6314   17858169.9884
  17911050.208   -33266353.91749 -25907791.27949  17911049.9184   17911056.4164
  17769207.727   -32271560.24549 -25109973.03449  17769206.5044   17769214.1704
  19379811.835    -6751522.20849  -5253534.91049  19379810.8464   19379819.2874
 97  3 19  2 13 29.9880000  0  6 30 17  5  6 10 24
  16905543.042   -30197194.04949 -23510688.83049  16905543.0764   16905550.0024
  20097103.517   -24559055.16949 -17759673.09849  20097102.8554   20097111.2954
  17856728.673   -16015204.09549 -12454659.00949  17856727.8854   17856735.6934
  17885239.622   -33401989.27849 -26013481.15049  17885239.0474   17885245.6744
  17755697.952   -32342554.63649 -25165293.32849  17755696.8074   17755704.2404
  19379203.718    -6754718.03149  -5256025.15249  19379203.4674   19379210.9704
 97  3 19  2 13 59.9880000  0  6 30 17  5  6 10 24
  16893879.184   -30258488.12449 -23558450.45549  16893879.2314   16893886.0414
  20065237.752   -24726510.79749 -17890157.97949  20065237.3154   20065245.0874
  17855376.212   -16022311.02149 -12460196.88149  17855375.4614   17855383.0514
  17859465.075   -33537435.24949 -26119023.44549  17859464.7504   17859471.2654
  17742303.470   -32412942.51449 -25220141.01849  17742302.0204   17742309.9464
  19378613.744    -6757818.38449  -5258441.00149  19378612.9954   19378621.6184
 97  3 19  2 14 29.9880000  0  6 30 17  5  6 10 24
  16882348.836   -30319080.57049 -23605665.35349  16882348.8234   16882355.5984
  20033425.917   -24893682.64449 -18020421.72149  20033425.6784   20033433.2894
  17854120.134   -16028911.70949 -12465340.28749  17854119.2704   17854127.2764
  17833742.024   -33672610.71649 -26224354.96349  17833741.5984   17833748.0154
  17729040.965   -32482637.19049 -25274448.54949  17729039.7114   17729047.7714
  19378059.099    -6760733.00949  -5260712.12749  19378058.9194   19378066.5104
 97  3 19  2 14 59.9880000  0  6 30 17  5  6 10 24
  16870943.188   -30379017.85249 -23652369.73349  16870943.3094   16870949.8694
  20001662.258   -25060601.71649 -18150488.50149  20001661.4384   20001669.6994
  17852951.363   -16035054.10349 -12470126.58149  17852951.0394   17852958.4284
  17808061.062   -33807564.93149 -26329514.07349  17808060.4464   17808067.2814
  17715905.596   -32551663.50949 -25328235.28449  17715904.3354   17715912.3854
  19377528.179    -6763523.14549  -5262886.25649  19377528.1364   19377535.8024
 97  3 19  2 15 29.9880000  0  6 30 17  5  6 10 24
  16859661.896   -30438301.56149 -23698564.83449  16859661.8494   16859668.7594
  19969948.209   -25227260.31949 -18280352.32249  19969947.2034   19969954.7524
  17851868.013   -16040747.42449 -12474562.95249  17851867.3794   17851874.8094
  17782421.094   -33942303.58049 -26434505.20549  17782420.9664   17782427.1424
  17702899.563   -32620010.54549 -25381492.69849  17702898.8284   17702906.4664
  19377019.080    -6766198.35549  -5264970.81649  19377018.6394   19377026.7724
 97  3 19  2 15 59.9880000  0  6 30 17  5  6 10 24
  16848493.784   -30496990.08049 -23744296.15149  16848493.8304   16848500.7454
  19938273.779   -25393710.63049 -18410053.83749  19938273.5004   19938280.8644
  17850859.300   -16046048.26949 -12478693.49349  17850858.6984   17850866.0194
  17756808.995   -34076896.21249 -26539382.56549  17756808.7074   17756815.5024
  17690006.746   -32687762.83449 -25434286.67849  17690005.6544   17690013.5474
  19376522.872    -6768805.59049  -5267002.41849  19376522.4234   19376530.4754
 97  3 19  2 16 29.9880000  0  6 30 17  5  6 10 24
  16837457.573   -30554986.04349 -23789487.81349  16837457.6614   16837464.1094
  19906663.097   -25559826.86549 -18539495.01049  19906662.4244   19906670.5454
  17849950.495   -16050824.18949 -12482415.00649  17849950.0574   17849957.5664
  17731246.248   -34211229.11949 -26644057.54149  17731245.7644   17731252.3614
  17677247.712   -32754812.02349 -25486532.78749  17677246.6074   17677254.3404
  19376062.083    -6771227.13849  -5268889.33249  19376061.5824   19376070.0754
 97  3 19  2 16 59.9880000  0  6 30 17  5  6 10 24
  16826542.188   -30612346.93149 -23834184.61349  16826542.3974   16826548.8394
  19875109.579   -25725642.90649 -18668702.28449  19875109.1784   19875116.1124
  17849134.688   -16055111.44249 -12485755.73649  17849134.4114   17849141.6644
  17705724.243   -34345347.77449 -26748565.56049  17705724.0124   17705730.8334
  17664613.357   -32821205.78149 -25538268.17249  17664612.2434   17664620.2044
  19375627.992    -6773508.57749  -5270667.06349  19375627.5124   19375635.3904
 97  3 19  2 17 29.9880000  0  6 30 17  5  6 10 24
  16815750.024   -30669060.01449 -23878376.63249  16815749.8994   16815756.8494
  19843613.647   -25891155.40749 -18797673.03149  19843612.6834   19843620.4884
  17848415.116   -16058893.36449 -12488702.70149  17848414.8504   17848422.1224
  17680245.532   -34479239.08249 -26852896.43349  17680244.9814   17680251.9114
  17652104.305   -32886941.35049 -25589490.68549  17652103.1634   17652110.8954
  19375223.650    -6775633.67749  -5272322.97349  19375223.7224   19375231.0264
 97  3 19  2 17 59.9870000  0  6 30 17  5  6 10 24
  16805082.761   -30725116.81349 -23922057.25849  16805082.7734   16805089.5654
  19812176.638   -26056358.70349 -18926402.82449  19812176.5364   19812183.5744
  17847795.702   -16062148.64549 -12491239.29549  17847794.7594   17847802.0514
  17654815.597   -34612874.30349 -26957027.75849  17654815.0864   17654822.0324
  17639723.027   -32952005.24949 -25640189.81149  17639721.9154   17639729.6474
  19374848.876    -6777603.34249  -5273857.76449  19374849.1614   19374856.2044
 97  3 19  2 18 29.9870000  0  6 30 17  5  6 10 24
  16794537.518   -30780532.47049 -23965238.30149  16794537.6044   16794544.1624
  19780793.331   -26221279.11549 -19054912.19849  19780792.1634   19780800.0024
  17847270.807   -16064906.96249 -12493388.64549  17847270.2424   17847277.6264
  17629432.480   -34746263.37749 -27060967.28349  17629432.2284   17629438.8674
  17627472.818   -33016380.41349 -25690352.26649  17627471.5254   17627479.6754
  19374496.529    -6779455.33449  -5275300.86749  19374496.6054   19374503.5174
 97  3 19  2 18 59.9870000  0  6 30 17  5  6 10 24
  16784097.671   -30835394.24449 -24007987.73449  16784097.6314   16784104.5034
  19749442.846   -26386026.92049 -19183287.07349  19749442.3564   19749449.3104
  17846817.179   -16067290.66349 -12495246.08349  17846816.6864   17846824.2594
  17604078.518   -34879499.45149 -27164787.57949  17604078.0604   17604084.8714
  17615337.684   -33080150.53849 -25740043.26249  17615336.3464   17615344.6974
  19374144.848    -6781304.02249  -5276741.39549  19374144.4394   19374152.1404
 97  3 19  2 19 29.9870000  0  6 30 17  5  6 10 24
  16773789.648   -30889563.20549 -24050197.31549  16773789.7174   16773796.4924
  19718147.075   -26550487.60249 -19311438.21049  19718146.5714   19718153.8164
  17846454.928   -16069194.17349 -12496729.34949  17846454.1174   17846461.8354
  17578779.120   -35012448.50849 -27268384.22549  17578778.7854   17578785.3154
  17603340.856   -33143194.22949 -25789168.20549  17603339.9414   17603348.0564
  19373817.784    -6783022.76249  -5278080.66849  19373817.3054   19373825.1134
 97  3 19  2 19 59.9870000  0  6 30 17  5  6 10 24
  16763620.885   -30943000.57949 -24091836.83549  16763621.0574   16763627.6324
  19686913.053   -26714623.61549 -19439336.36949  19686912.0644   19686919.1674
  17846184.873   -16070613.31649 -12497835.19249  17846184.0044   17846191.4294
  17553537.943   -35145091.73549 -27371742.56549  17553537.4894   17553544.3034
  17591487.069   -33205486.44849 -25837707.58449  17591486.0884   17591494.2704
  19373520.576    -6784584.42449  -5279297.54149  19373520.0614   19373527.0864
 97  3 19  2 20 29.9870000  0  6 30 17  5  6 10 24
  16753589.631   -30995715.35949 -24132913.29949  16753589.5814   16753596.3164
  19655741.749   -26878429.87249 -19566977.57149  19655740.5144   19655748.2854
  17846000.141   -16071583.65749 -12498591.31249  17845999.0924   17846006.8634
  17528348.960   -35277460.43649 -27474886.98449  17528348.6574   17528355.4374
  17579771.391   -33267053.06249 -25885681.55849  17579770.4684   17579778.3834
  19373253.324    -6785988.12049  -5280391.34249  19373252.4064   19373260.3134
 97  3 19  2 20 59.9870000  0  6 30 17  5  6 10 24
  16743668.369   -31047851.81549 -24173539.11749  16743668.3704   16743674.9944
  19624605.685   -27042050.08049 -19694473.79949  19624604.4894   19624612.2074
  17845874.811   -16072242.20549 -12499104.48049  17845874.2884   17845881.9904
  17503181.753   -35409714.84049 -27577942.34749  17503181.4404   17503188.2584
  17568160.395   -33328069.36149 -25933226.70749  17568159.5364   17568167.1404
  19372990.730    -6787367.81649  -5281466.43449  19372990.2084   19372997.8084
 97  3 19  2 21 29.9870000  0  6 30 17  5  6 10 24
  16733872.898   -31099327.46949 -24213650.01949  16733872.9514   16733879.6394
  19593525.363   -27205377.14649 -19821741.60449  19593524.0764   19593531.8764
  17845828.588   -16072485.29749 -12499293.91849  17845828.2404   17845835.4764
  17478051.079   -35541777.42349 -27680848.23249  17478050.7074   17478057.4344
  17556666.491   -33388470.10949 -25980292.21249  17556665.5834   17556673.4284
  19372750.184    -6788631.87149  -5282451.40649  19372749.8044   19372757.2654
 97  3 19  2 21 59.9870000  0  6 30 17  5  6 10 24
  16724198.654   -31150166.04049 -24253264.49449  16724198.7684   16724205.3854
  19562499.152   -27368420.00849 -19948787.92949  19562497.8654   19562505.8384
  17845860.861   -16072315.80849 -12499161.86149  17845860.3784   17845867.8264
  17452953.223   -35673667.41549 -27783619.63049  17452952.8324   17452959.4154
  17545287.328   -33448268.19649 -26026888.10749  17545286.0314   17545294.0874
  19372525.253    -6789813.60149  -5283372.24149  19372524.9004   19372532.5154
 97  3 19  2 22 29.9870000  0  6 30 17  5  6 10 24
  16714650.757   -31200340.82449 -24292361.73649  16714650.6484   16714657.3764
  19531528.757   -27531170.13149 -20075606.17649  19531527.5054   19531535.7694
  17845980.073   -16071689.58449 -12498673.90949  17845979.4264   17845986.9664
  17427897.797   -35805334.43749 -27886217.29049  17427897.1684   17427904.1214
  17534031.261   -33507418.93549 -26072979.58249  17534030.0544   17534037.8734
  19372320.174    -6790890.98249  -5284211.76449  19372319.8124   19372327.5644
 97  3 19  2 22 59.9870000  0  6 30 17  5  6 10 24
  16705237.345   -31249808.34049 -24330907.85549  16705237.1354   16705243.9304
  19500617.469   -27693609.53049 -20202182.28349  19500616.3544   19500623.7084
  17846195.612   -16070556.99549 -12497791.38949  17846195.3364   17846202.1584
  17402896.898   -35936714.84049 -27988591.61149  17402896.1564   17402902.9574
  17522906.744   -33565878.33949 -26118532.35649  17522905.7154   17522913.3394
  19372140.511    -6791835.07349  -5284947.42149  19372140.3564   19372147.9654
 97  3 19  2 23 29.9870000  0  6 30 17  5  6 10 24
  16695948.459   -31298621.58149 -24368944.14549  16695948.2164   16695955.1604
  19469756.758   -27855783.52149 -20328551.58249  19469756.4084   19469763.5424
  17846497.406   -16068971.25149 -12496555.75949  17846496.8974   17846504.5874
  17377941.810   -36067854.47249 -28090778.31149  17377941.5214   17377948.2464
  17511908.083   -33623676.54149 -26163569.90149  17511907.1994   17511914.6874
  19371976.833    -6792694.85949  -5285617.37949  19371976.9994   19371984.0374
 97  3 19  2 23 59.9870000  0  6 30 17  5  6 10 24
  16686789.352   -31346752.93749 -24406449.10649  16686789.3464   16686796.0384
  19438949.609   -28017676.15849 -20454701.65249  19438948.0564   19438956.6044
  17846887.189   -16066923.58249 -12494960.19649  17846886.7474   17846894.1514
  17353037.212   -36198729.52349 -28192758.85549  17353037.0124   17353043.5024
  17501043.250   -33680771.79849 -26208059.70149  17501042.3314   17501050.1664
  19371833.415    -6793448.51749  -5286204.64449  19371833.1294   19371841.1694
 97  3 19  2 24 29.9870000  0  6 30 17  5  6 10 24
  16677748.482   -31394262.95549 -24443469.90549  16677748.3854   16677755.0914
  19408186.834   -28179335.18249 -20580669.68449  19408185.8734   19408193.5864
  17847352.390   -16064479.42949 -12493055.67549  17847352.2654   17847359.0744
  17328172.216   -36329396.08849 -28294576.94449  17328172.0764   17328178.6184
  17490300.051   -33737227.85649 -26252051.42249  17490298.9984   17490306.9354
  19371702.980    -6794133.83649  -5286738.65449  19371702.8094   19371710.3664
 97  3 19  2 24 59.9870000  0  6 30 17  5  6 10 24
  16668802.701   -31441273.25149 -24480101.30849  16668802.6084   16668809.5734
  19377455.850   -28340828.07449 -20706508.27149  19377455.0174   19377463.0174
  17847873.617   -16061740.92549 -12490921.79349  17847872.7954   17847880.1164
  17303324.824   -36459970.03049 -28396322.85649  17303324.2284   17303331.0554
  17479656.681   -33793158.99549 -26295634.11549  17479655.4364   17479663.2434
  19371568.182    -6794842.46349  -5287290.81449  19371567.9334   19371575.5634
 97  3 19  2 25 29.9870000  0  6 30 17  5  6 10 24
  16659993.204   -31487566.99549 -24516174.36449  16659993.0574   16660000.2054
  19346804.707   -28501900.91549 -20832019.54149  19346804.1164   19346811.6194
  17848493.138   -16058485.37749 -12488385.01449  17848492.4064   17848499.5694
  17278536.784   -36590231.75549 -28497825.49049  17278536.5184   17278543.0194
  17469158.347   -33848328.00249 -26338622.94449  17469157.2444   17469165.2184
  19371471.573    -6795350.11049  -5287686.36949  19371471.6094   19371478.5144
 97  3 19  2 25 59.9870000  0  6 30 17  5  6 10 24
  16651287.335   -31533316.65349 -24551823.45149  16651287.3544   16651294.2134
  19316199.547   -28662732.55949 -20957342.86349  19316198.3644   19316206.6804
  17849180.053   -16054875.89349 -12485572.43749  17849179.6204   17849186.3264
  17253781.255   -36720322.57949 -28599194.94249  17253781.1264   17253787.4434
  17458770.741   -33902915.37449 -26381158.54549  17458770.0954   17458777.5034
  19371381.702    -6795822.48949  -5288054.43649  19371381.3124   19371389.2304
 97  3 19  2 26 29.9870000  0  6 30 17  5  6 10 24
  16642696.952   -31578459.51049 -24586999.70949  16642696.9514   16642703.7034
  19285652.413   -28823258.83949 -21082428.23449  19285651.5814   19285658.6234
  17849949.247   -16050834.25449 -12482423.12549  17849948.8884   17849955.7874
  17229075.939   -36850149.83349 -28700359.02349  17229075.7994   17229082.0384
  17448507.223   -33956850.66649 -26423186.03149  17448506.3704   17448513.7224
  19371314.049    -6796178.03249  -5288331.47449  19371313.2894   19371322.7454
 97  3 19  2 26 59.9870000  0  6 30 17  5  6 10 24
  16634227.353   -31622967.53249 -24621681.29049  16634227.0944   16634234.1564
  19255165.450   -28983468.94449 -21207267.24249  19255164.9074   19255171.9544
  17850805.726   -16046333.52449 -12478916.07349  17850804.9454   17850812.3014
  17204425.311   -36979689.94449 -28801299.36149  17204425.1244   17204431.5444
  17438373.097   -34010105.79049 -26464683.52549  17438372.3664   17438379.9614
  19371271.905    -6796399.27649  -5288503.87449  19371272.2774   19371279.2934
 97  3 19  2 27 29.9860000  0  6 30 17  5  6 10 24
  16625872.512   -31666871.84149 -24655892.44249  16625872.2684   16625879.6794
  19224722.987   -29143445.35249 -21331924.14649  19224722.2724   19224729.8714
  17851737.426   -16041437.35549 -12475100.88549  17851736.8504   17851744.1394
  17179820.896   -37108987.13549 -28902050.40549  17179820.6184   17179827.0824
  17428355.060   -34062751.01349 -26505705.76249  17428353.7824   17428361.6784
  19371245.065    -6796540.57749  -5288613.96249  19371244.1574   19371252.7524
 97  3 19  2 27 59.9860000  0  6 30 17  5  6 10 24
  16617641.357   -31710126.67949 -24689597.51949  16617641.3464   16617648.5404
  19194327.371   -29303175.54949 -21456389.20449  19194327.0344   19194333.3034
  17852750.417   -16036114.06249 -12470952.88149  17852749.9984   17852756.7634
  17155269.645   -37238004.81649 -29002583.65349  17155269.2344   17155275.8334
  17418457.572   -34114762.34249 -26546234.06249  17418456.3744   17418464.0344
  19371241.654    -6796558.38949  -5288627.82149  19371240.9494   19371248.6664
 97  3 19  2 28 29.9860000  0  6 30 17  5  6 10 24
  16609537.393   -31752713.55049 -24722782.09849  16609537.2374   16609544.4304
  19163985.071   -29462625.77149 -21580636.09049  19163983.7804   19163991.0764
  17853842.410   -16030375.95749 -12466481.64049  17853841.8424   17853848.8564
  17130770.585   -37366748.21249 -29102903.17149  17130770.2554   17130776.7124
  17408681.861   -34166133.88049 -26586263.81949  17408680.5914   17408688.2434
  19371262.035    -6796451.16249  -5288544.25949  19371261.5454   19371269.5454
 97  3 19  2 28 59.9860000  0  6 30 17  5  6 10 24
  16601556.203   -31794654.65849 -24755463.48649  16601556.2524   16601563.1654
  19133694.784   -29621801.29149 -21704668.92049  19133693.3204   19133701.0944
  17855006.400   -16024259.54349 -12461715.61749  17855005.6674   17855012.6324
  17106317.345   -37495250.69749 -29203034.96249  17106316.7534   17106323.2524
  17399020.436   -34216904.61449 -26625825.42149  17399018.8504   17399027.2364
  19371299.597    -6796253.83049  -5288390.47249  19371299.4084   19371306.3604
 97  3 19  2 29 29.9860000  0  6 30 17  5  6 10 24
  16593712.933   -31835871.32149 -24787580.37349  16593713.1414   16593720.0944
  19103473.797   -29780611.79749 -21828417.34149  19103472.3814   19103480.1434
  17856256.642   -16017689.57949 -12456596.17449  17856255.8614   17856262.8724
  17081926.641   -37623424.25149 -29302910.44749  17081925.9394   17081932.8114
  17389488.322   -34266995.78549 -26664857.49449  17389486.9494   17389495.1054
  19371366.821    -6795900.70749  -5288115.28649  19371365.9324   19371373.7624
 97  3 19  2 29 59.9860000  0  6 30 17  5  6 10 24
  16585984.712   -31876483.40849 -24819226.16349  16585984.6724   16585991.8684
  19073306.814   -29939139.37749 -21951945.29849  19073305.7954   19073313.5554
  17857573.859   -16010767.34249 -12451202.24249  17857573.1194   17857580.2874
  17057578.948   -37751372.01049 -29402609.98549  17057578.6844   17057585.3734
  17380070.651   -34316485.63149 -26703421.00849  17380069.8384   17380077.4014
  19371440.474    -6795514.05649  -5287813.97449  19371440.1014   19371447.6764
 97  3 19  2 30 29.9860000  0  6 30 17  5  6 10 24
  16578371.716   -31916489.86149 -24850400.02749  16578371.7124   16578378.7854
  19043195.575   -30097374.72349 -22075245.52749  19043194.8514   19043202.4944
  17858962.482   -16003469.97049 -12445515.98749  17858961.7584   17858968.8794
  17033274.651   -37879091.95449 -29502131.99649  17033274.0904   17033281.0214
  17370770.580   -34365357.63449 -26741503.08249  17370769.7664   17370777.6554
  19371522.364    -6795084.14149  -5287478.96749  19371522.3044   19371529.2674
 97  3 19  2 30 59.9860000  0  6 30 17  5  6 10 24
  16570882.567   -31955845.19849 -24881066.52749  16570882.3874   16570889.6534
  19013146.471   -30255284.07349 -22198291.74249  19013146.0534   19013153.3854
  17860435.755   -15995727.65149 -12439483.02349  17860434.5484   17860442.4144
  17009023.054   -38006534.75949 -29601438.06149  17009022.5294   17009029.5804
  17361599.705   -34413550.91249 -26779056.27649  17361598.5754   17361606.5914
  19371620.545    -6794568.87649  -5287077.47149  19371621.4464   19371627.5264
 97  3 19  2 31 29.9860000  0  6 30 17  5  6 10 24
  16563510.438   -31994586.15249 -24911254.29649  16563510.7004   16563517.5084
  18983148.477   -30412925.19249 -22321128.93349  18983147.8604   18983155.0804
  17861986.849   -15987576.45349 -12433131.46049  17861986.4844   17861993.6074
  16984815.601   -38133745.44649 -29700563.26049  16984814.8574   16984822.0114
  17352552.153   -34461096.18549 -26816104.53149  17352551.5894   17352558.8584
  19371728.236    -6794003.87349  -5286637.21749  19371729.3414   19371734.8454
 97  3 19  2 31 59.9860000  0  6 30 17  5  6 10 24
  16556243.319   -32032775.39249 -24941012.15349  16556243.4314   16556250.3514
  18953189.116   -30570362.48649 -22443807.30449  18953187.5614   18953195.9144
  17863604.812   -15979074.06949 -12426506.24249  17863603.9544   17863611.4464
  16960642.397   -38260776.30449 -29799548.31849  16960641.7824   16960648.8234
  17343616.743   -34508052.38449 -26852693.76649  17343615.9754   17343623.5124
  19371838.307    -6793426.87049  -5286187.61749  19371838.4054   19371845.4244
 97  3 19  2 32 29.9860000  0  6 30 17  5  6 10 24
  16549085.903   -32070388.13449 -24970320.78849  16549086.1564   16549093.0074
  18923272.517   -30727574.20149 -22566309.89649  18923271.1824   18923279.2064
  17865293.225   -15970201.49749 -12419592.56049  17865292.9854   17865299.6764
  16936507.870   -38387603.61949 -29898374.77149  16936507.0204   16936514.3434
  17334794.122   -34554415.76149 -26888821.05649  17334793.2624   17334800.6474
  19371958.613    -6792795.28149  -5285695.47649  19371958.3824   19371965.1494
 97  3 19  2 32 59.9860000  0  6 30 17  5  6 10 24
  16542047.770   -32107373.79949 -24999140.79149  16542047.8394   16542055.0274
  18893411.390   -30884494.28049 -22688585.23849  18893409.9344   18893418.2174
  17867058.647   -15960924.29949 -12412363.58149  17867058.2234   17867065.3094
  16912422.501   -38514172.64449 -29996999.96249  16912422.0544   16912428.8584
  17326092.452   -34600143.38849 -26924452.95749  17326091.4864   17326099.2934
  19372098.772    -6792058.97949  -5285121.76049  19372098.7154   19372105.6424
 97  3 19  2 33 29.9860000  0  6 30 17  5  6 10 24
  16535116.763   -32143796.69249 -25027522.27249  16535116.8474   16535124.0554
  18863598.586   -31041160.57649 -22810662.84249  18863597.2534   18863605.5564
  17868887.588   -15951313.32949 -12404874.52549  17868887.2574   17868894.0344
  16888376.187   -38640536.68349 -30095465.42749  16888375.7014   16888382.6974
  17317499.441   -34645299.92149 -26959639.85749  17317498.2054   17317506.0864
  19372249.434    -6791267.35449  -5284504.93149  19372249.2414   19372256.1144
 97  3 19  2 33 59.9860000  0  6 30 17  5  6 10 24
  16528306.753   -32179583.54149 -25055408.13349  16528306.8814   16528313.8704
  18833852.868   -31197474.36449 -22932465.76049  18833851.5764   18833859.6874
  17870793.897   -15941296.01449 -12397068.84149  17870793.1274   17870799.8564
  16864382.468   -38766624.42949 -30193715.59649  16864382.2614   16864389.0834
  17309029.131   -34689811.25349 -26994324.00349  17309027.6594   17309036.1604
  19372423.502    -6790352.10749  -5283791.77249  19372423.0914   19372429.8404
 97  3 19  2 34 29.9860000  0  6 30 17  5  6 10 24
  16521613.203   -32214758.62249 -25082817.29749  16521613.0554   16521620.1234
  18804169.340   -31353461.63349 -23054014.24849  18804168.7054   18804176.6134
  17872769.648   -15930913.26449 -12388978.39049  17872769.2694   17872776.2434
  16840431.292   -38892488.67849 -30291791.61549  16840430.9724   16840437.8624
  17300677.234   -34733700.51749 -27028523.42349  17300675.9814   17300684.0054
  19372613.140    -6789355.11049  -5283014.90049  19372611.7204   19372619.6894
 97  3 19  2 34 59.9860000  0  6 30 17  5  6 10 24
  16515042.057   -32249290.27749 -25109725.09049  16515042.2044   16515049.1544
  18774551.813   -31509103.02049 -23175293.22049  18774551.2194   18774558.9874
  17874818.988   -15920143.62349 -12380586.47549  17874818.2314   17874825.0774
  16816528.822   -39018096.81449 -30389668.06949  16816528.3404   16816535.0314
  17292450.853   -34776930.37549 -27062209.01849  17292449.7964   17292457.8224
  19372820.418    -6788264.92849  -5282165.40749  19372819.3864   19372827.8354
 97  3 19  2 35 29.9860000  0  6 30 17  5  6 10 24
  16508585.725   -32283218.73749 -25136162.85949  16508585.9944   16508592.7424
  18744988.868   -31664457.75649 -23296348.81749  18744987.8154   18744995.7504
  17876935.247   -15909022.67949 -12371920.81449  17876934.7964   17876941.5814
  16792668.438   -39143484.18849 -30487372.50649  16792668.3084   16792674.7364
  17284339.823   -34819553.69649 -27095421.99149  17284338.6114   17284346.8944
  19373037.502    -6787123.22049  -5281275.75549  19373036.5864   19373045.1034
 97  3 19  2 35 59.9860000  0  6 30 17  5  6 10 24
  16502248.691   -32316520.28049 -25162112.12049  16502248.9514   16502255.6464
  18715479.414   -31819530.96449 -23417185.04949  18715478.5544   18715486.1244
  17879120.679   -15897538.65049 -12362972.21949  17879120.1334   17879127.2554
  16768856.700   -39268616.12849 -30584877.89849  16768856.3624   16768862.9784
  17276346.834   -34861557.07449 -27128151.88749  17276345.7554   17276353.7454
  19373266.647    -6785918.59849  -5280337.08249  19373266.3474   19373273.9754
 97  3 19  2 36 29.9860000  0  6 30 17  5  6 10 24
  16496038.335   -32349156.02849 -25187542.57949  16496038.4804   16496045.1794
  18686028.322   -31974297.05849 -23537781.96649  18686027.4524   18686035.5854
  17881381.682   -15885657.24349 -12353713.98749  17881381.0774   17881388.1124
  16745106.494   -39393424.28149 -30682130.98649  16745106.2644   16745112.9144
  17268478.649   -34902904.30649 -27160370.50149  17268477.6124   17268485.5574
  19373516.225    -6784606.88349  -5279314.97149  19373515.5944   19373523.5824
 97  3 19  2 36 59.9860000  0  6 30 17  5  6 10 24
  16489933.345   -32381238.15049 -25212541.63949  16489933.5374   16489940.3384
  18656616.834   -32128855.16849 -23658216.81749  18656616.2234   18656623.6424
  17883699.703   -15873475.97449 -12344222.10349  17883699.4034   17883705.6964
  16721406.392   -39517969.57249 -30779179.25149  16721406.1714   16721412.6724
  17260713.297   -34943711.63549 -27192168.41349  17260712.3284   17260720.2054
  19373766.907    -6783288.82649  -5278287.90749  19373766.1914   19373773.9564
 97  3 19  2 37 29.9850000  0  6 30 17  5  6 10 24
  16483941.528   -32412725.45849 -25237077.20949  16483941.6154   16483948.4984
  18627255.656   -32283149.45549 -23778446.09349  18627255.1204   18627262.9994
  17886081.495   -15860959.42149 -12334468.95949  17886079.9644   17886087.9434
  16697763.936   -39642211.88149 -30875991.42749  16697763.5794   16697770.2784
  17253056.923   -34983946.46949 -27223520.22249  17253055.5984   17253063.8094
  19374026.762    -6781922.73649  -5277223.41849  19374026.7404   19374033.9894
 97  3 19  2 37 59.9850000  0  6 30 17  5  6 10 24
  16478075.038   -32443554.38949 -25261099.75649  16478075.5464   16478082.0244
  18597958.042   -32437109.95449 -23898415.26449  18597957.3324   18597965.0324
  17888539.595   -15848041.63849 -12324403.17049  17888538.9224   17888546.4704
  16674189.780   -39766095.03149 -30972523.73149  16674189.4894   16674195.9134
  17245525.256   -35023525.61349 -27254361.09849  17245524.3924   17245531.9434
  19374308.538    -6780441.89949  -5276069.51249  19374308.3054   19374316.0644
 97  3 19  2 38 29.9850000  0  6 30 17  5  6 10 24
  16472328.877   -32473750.96149 -25284629.55849  16472328.7644   16472335.6964
  18568723.426   -32590738.96149 -24018126.12749  18568722.1414   18568730.2734
  17891071.982   -15834733.52349 -12314033.22349  17891070.8494   17891078.5604
  16650676.637   -39889657.02449 -31068805.78949  16650676.0474   16650682.7394
  17238114.938   -35062467.12249 -27284705.11649  17238113.6724   17238121.8964
  19374609.867    -6778858.25849  -5274835.48849  19374609.2974   19374617.2864
 97  3 19  2 38 59.9850000  0  6 30 17  5  6 10 24
  16466698.007   -32503341.32049 -25307686.98649  16466698.0024   16466704.8654
  18539546.979   -32744061.58549 -24137598.25249  18539545.4704   18539553.4944
  17893677.474   -15821041.40449 -12303364.04049  17893676.7654   17893683.9714
  16627215.483   -40012946.21749 -31164875.27549  16627215.1584   16627221.7324
  17230821.429   -35100794.53949 -27314570.62649  17230820.0514   17230828.3094
  19374927.188    -6777190.68249  -5273536.06349  19374927.1374   19374934.3764
 97  3 19  2 39 29.9850000  0  6 30 17  5  6 10 24
  16461176.359   -32532357.39849 -25330296.92349  16461176.2154   16461183.2474
  18510422.381   -32897111.50749 -24256857.87249  18510421.5624   18510429.4394
  17896351.893   -15806987.09649 -12292412.63949  17896351.2744   17896358.4484
  16603794.129   -40136026.27449 -31260781.79949  16603793.9034   16603800.2214
  17223640.820   -35138528.91249 -27343974.02849  17223639.6324   17223647.6604
  19375254.239    -6775472.10549  -5272196.89249  19375254.0014   19375261.5614
 97  3 19  2 39 59.9850000  0  6 30 17  5  6 10 24
  16455757.774   -32560832.04549 -25352484.96449  16455757.7664   16455764.4884
  18481342.967   -33049924.45949 -24375932.85449  18481342.4434   18481350.2624
  17899092.590   -15792584.58049 -12281189.90149  17899091.7974   17899099.7404
  16580410.784   -40258906.39549 -31356532.53049  16580410.0614   16580417.0204
  17216570.037   -35175686.03549 -27372927.62449  17216569.1174   17216576.5794
  19375587.799    -6773719.64149  -5270831.31949  19375587.7904   19375594.8534
 97  3 19  2 40 29.9850000  0  6 30 17  5  6 10 24
  16450444.371   -32588754.00749 -25374242.34249  16450444.0654   16450451.4464
  18452310.539   -33202491.24849 -24494816.02449  18452309.6424   18452317.7194
  17901901.719   -15777822.56549 -12269687.03849  17901901.2124   17901908.6444
  16557070.469   -40381560.19649 -31452106.90649  16557070.0794   16557076.6964
  17209609.436   -35212264.38449 -27401430.22249  17209608.2064   17209616.2174
  19375929.667    -6771923.12849  -5269431.41649  19375929.4934   19375937.0044
 97  3 19  2 40 59.9850000  0  6 30 17  5  6 10 24
  16445237.425   -32616116.24649 -25395563.57449  16445237.2694   16445244.5334
  18423326.507   -33354803.64649 -24613500.97349  18423325.3474   18423333.3744
  17904776.973   -15762712.84849 -12257913.24049  17904776.1314   17904783.6594
  16533778.091   -40503962.40349 -31547485.23449  16533777.9144   16533784.1994
  17202761.130   -35248252.00549 -27429472.52749  17202759.9574   17202767.8824
  19376278.945    -6770088.08449  -5268001.50249  19376278.6614   19376286.4094
 97  3 19  2 41 29.9850000  0  6 30 17  5  6 10 24
  16440141.136   -32642897.15049 -25416431.81849  16440141.2774   16440148.2874
  18394394.104   -33506843.39849 -24731973.47049  18394392.6174   18394401.2794
  17907715.851   -15747269.06449 -12245879.12949  17907715.1474   17907722.5714
  16510539.263   -40626083.59449 -31642644.59749  16510539.0524   16510545.5244
  17196027.696   -35283636.10649 -27457044.54149  17196026.6484   17196034.5714
  19376635.878    -6768212.14349  -5266539.72849  19376635.3844   19376642.8954
 97  3 19  2 41 59.9850000  0  6 30 17  5  6 10 24
  16435165.735   -32669042.88549 -25436805.12649  16435165.7424   16435172.9364
  18365522.445   -33658564.48849 -24850197.66149  18365521.5844   18365529.1984
  17910722.589   -15731468.67849 -12233567.15649  17910721.9754   17910729.0134
  16487365.238   -40747863.94349 -31737538.36649  16487365.0354   16487371.4164
  17189416.368   -35318378.99849 -27484116.91849  17189415.6254   17189423.2194
  19377010.321    -6766244.42849  -5265006.45749  19377010.1254   19377017.3104
 97  3 19  2 42 29.9850000  0  6 30 17  5  6 10 24
  16430307.258   -32694573.84549 -25456699.38149  16430306.9454   16430314.2074
  18336708.227   -33809983.98649 -24968186.84549  18336707.2424   18336715.0184
  17913789.688   -15715351.22549 -12221008.10149  17913789.4824   17913796.5154
  16464248.549   -40869342.89549 -31832197.28449  16464248.2484   16464254.7914
  17182920.806   -35352513.69549 -27510715.37049  17182920.0824   17182927.5574
  19377396.194    -6764216.75649  -5263426.46749  19377395.7484   19377403.0814
 97  3 19  2 42 59.9850000  0  6 30 17  5  6 10 24
  16425560.589   -32719517.52149 -25476136.01949  16425560.3614   16425567.6564
  18307945.974   -33961130.42149 -25085963.25449  18307945.0334   18307952.6004
  17916909.381   -15698957.21149 -12208233.55749  17916909.0624   17916915.6354
  16441180.794   -40990564.78549 -31926655.89449  16441180.5984   16441187.1844
  17176535.154   -35386070.88149 -27536863.81649  17176534.4134   17176541.7024
  19377786.449    -6762166.18849  -5261828.62449  19377786.3484   19377794.1744
 97  3 19  2 43 29.9850000  0  6 30 17  5  6 10 24
  16420939.161   -32743803.35449 -25495060.05249  16420939.4204   16420946.4384
  18279250.881   -34111924.75449 -25203465.30849  18279249.8894   18279257.6704
  17920097.066   -15682205.81849 -12195180.52449  17920096.4254   17920103.8164
  16418175.530   -41111458.20049 -32020858.54249  16418175.0344   16418181.6974
  17170269.494   -35418997.46549 -27562520.88349  17170268.2714   17170275.9504
  19378196.173    -6760013.28049  -5260151.02749  19378196.4044   19378203.2584
 97  3 19  2 43 59.9850000  0  6 30 17  5  6 10 24
  16416403.946   -32767636.25549 -25513631.15049  16416404.0704   16416411.2194
  18250588.691   -34262545.42949 -25320832.04949  18250588.2014   18250595.1084
  17923318.528   -15665277.04549 -12181989.28749  17923317.7854   17923325.4674
  16395197.605   -41232207.90049 -32114949.20549  16395197.2914   16395203.6404
  17164085.917   -35451492.08649 -27587841.36349  17164085.1714   17164092.6814
  19378590.668    -6757940.73649  -5258536.06749  19378591.3804   19378597.5294
 97  3 19  2 44 29.9850000  0  6 30 17  5  6 10 24
  16411969.509   -32790939.48149 -25531789.51449  16411969.7204   16411976.7144
  18221976.793   -34412901.55849 -25437992.66149  18221975.1694   18221983.2274
  17926592.727   -15648070.94049 -12168581.94049  17926591.9394   17926599.3144
  16372265.039   -41352719.21749 -32208854.11549  16372264.6374   16372271.0124
  17158002.681   -35483459.71949 -27612751.19549  17158001.8724   17158009.5754
  19378984.825    -6755870.73749  -5256923.08949  19378984.9784   19378991.9154
 97  3 19  2 44 59.9850000  0  6 30 17  5  6 10 24
  16407668.269   -32813542.76049 -25549402.46849  16407668.2984   16407675.6154
  18193449.448   -34562813.41049 -25554807.06549  18193448.2084   18193456.8524
  17929954.252   -15630405.71649 -12154816.84549  17929953.4224   17929960.9214
  16349414.062   -41472802.06049 -32302425.15349  16349413.6764   16349420.1914
  17152052.039   -35514730.73449 -27637118.20949  17152051.1424   17152058.6674
  19379413.461    -6753619.75549  -5255169.11049  19379413.9214   19379419.8074
 97  3 19  2 45 29.9850000  0  6 30 17  5  6 10 24
  16403485.076   -32835525.79049 -25566532.11449  16403485.2934   16403492.3944
  18164993.530   -34712350.24749 -25671329.27149  18164992.7174   18165000.3014
  17933392.200   -15612339.02449 -12140738.91449  17933391.9814   17933398.7024
  16326633.730   -41592513.49449 -32395706.77849  16326633.2874   16326639.6874
  17146221.956   -35545368.13349 -27660991.48849  17146220.8084   17146228.4554
  19379866.166    -6751241.21349  -5253315.72649  19379866.7874   19379871.8224
 97  3 19  2 45 59.9850000  0  6 30 17  5  6 10 24
  16399394.706   -32857021.13149 -25583281.74249  16399395.0454   16399402.1244
  18136581.725   -34861655.24149 -25787670.80549  18136580.8164   18136588.3714
  17936880.135   -15594009.76049 -12126456.38849  17936879.8264   17936886.9414
  16303898.782   -41711986.59349 -32488802.69249  16303898.5564   16303904.9044
  17140491.339   -35575482.67649 -27684457.35849  17140490.3954   17140497.8464
  19380317.144    -6748872.14149  -5251469.71749  19380316.7464   19380323.7144
 97  3 19  2 46 29.9850000  0  6 30 17  5  6 10 24
  16395410.011   -32877961.46349 -25599598.88949  16395410.3544   16395417.3314
  18108223.093   -35010680.69849 -25903794.52349  18108222.1294   18108229.9424
  17940427.442   -15575369.02749 -12111931.15249  17940427.3614   17940433.8844
  16281218.598   -41831171.98449 -32581674.42249  16281218.0874   16281224.4854
  17134871.980   -35605012.66849 -27707467.72549  17134870.9964   17134878.1924
  19380776.597    -6746458.19449  -5249588.74749  19380776.3884   19380783.2544
 97  3 19  2 46 59.9850000  0  6 30 17  5  6 10 24
  16391541.957   -32898288.82149 -25615438.39249  16391541.9524   16391549.0674
  18079928.291   -35159370.92349 -26019657.02349  18079927.3874   18079935.1604
  17944042.752   -15556371.08649 -12097127.57249  17944041.9884   17944049.3874
  16258603.127   -41950016.67449 -32674280.66349  16258602.5844   16258609.2124
  17129373.484   -35633907.45549 -27729983.13349  17129372.4724   17129380.1364
  19381254.322    -6743947.35249  -5247632.26849  19381254.8264   19381260.6254
 97  3 19  2 47 29.9840000  0  6 30 17  5  6 10 24
  16387791.117   -32917999.35249 -25630797.25849  16387790.9484   16387798.3014
  18051698.361   -35307719.60149 -26135253.37249  18051697.5504   18051705.4774
  17947724.255   -15537025.34549 -12082052.98649  17947724.0394   17947730.5004
  16236052.764   -42068519.59649 -32766620.59549  16236052.5854   16236058.9864
  17123999.225   -35662149.28949 -27751989.75149  17123998.1834   17124005.6744
  19381748.912    -6741346.37749  -5245605.56149  19381747.6254   19381755.9424
 97  3 19  2 47 59.9840000  0  6 30 17  5  6 10 24
  16384146.517   -32937151.72249 -25645721.19049  16384146.5814   16384153.5434
  18023519.382   -35455800.47749 -26250641.05249  18023518.6184   18023526.7924
  17951458.638   -15517401.25049 -12066761.49549  17951458.3444   17951464.9244
  16213553.368   -42186755.12249 -32858752.16449  16213553.1614   16213559.1964
  17118734.146   -35689817.44949 -27773549.34549  17118733.1684   17118740.5654
  19382247.689    -6738723.55649  -5243561.83549  19382245.0414   19382254.1604
 97  3 19  2 48 29.9840000  0  6 30 17  5  6 10 24
  16380594.520   -32955817.92049 -25660266.28649  16380594.4904   16380601.5094
  17995379.778   -35603674.78649 -26365867.75849  17995378.6594   17995387.0584
  17955235.008   -15497556.53549 -12051298.10649  17955234.6804   17955241.3964
  16191091.637   -42304792.48049 -32950729.32149  16191091.3614   16191097.3514
  17113560.358   -35717005.87249 -27794735.11549  17113559.5894   17113566.8124
  19382737.923    -6736144.50149  -5241552.19849  19382736.6114   19382745.2454
 97  3 19  2 48 59.9840000  0  6 30 17  5  6 10 24
  16377147.866   -32973930.41849 -25674379.92849  16377147.7474   16377154.8324
  17967290.974   -35751281.79549 -26480886.18549  17967289.9344   17967298.2234
  17959067.832   -15477414.72349 -12035603.20849  17959066.5974   17959074.2374
  16168681.016   -42422561.12649 -33042497.08949  16168680.4954   16168686.9724
  17108490.559   -35743647.83649 -27815495.08049  17108489.7394   17108496.7804
  19383234.097    -6733535.85649  -5239519.48449  19383233.6974   19383241.7454
 97  3 19  2 49 29.9840000  0  6 30 17  5  6 10 24
  16373797.827   -32991534.72349 -25688097.57349  16373797.9264   16373804.8754
  17939243.983   -35898669.21949 -26595733.50649  17939243.3604   17939251.1754
  17962948.404   -15457021.90549 -12019712.71949  17962947.7704   17962955.3524
  16146311.678   -42540112.47449 -33134095.53649  16146311.2714   16146317.6024
  17103513.605   -35769802.10049 -27835875.01649  17103512.4054   17103520.0574
  19383730.394    -6730927.23049  -5237486.78249  19383729.1944   19383738.1474
 97  3 19  2 49 59.9840000  0  6 30 17  5  6 10 24
  16370566.090   -33008517.72249 -25701331.08249  16370566.2234   16370573.2094
  17911261.135   -36045720.07249 -26710318.55949  17911260.2234   17911268.3274
  17966899.751   -15436257.18949 -12003532.43449  17966898.9154   17966906.7234
  16124005.473   -42657332.12449 -33225435.50949  16124005.3034   16124011.5054
  17098648.540   -35795367.91949 -27855796.42749  17098647.1334   17098654.9884
  19384247.857    -6728207.69849  -5235367.65149  19384247.2954   19384255.5364
 97  3 19  2 50 29.9840000  0  6 30 17  5  6 10 24
  16367431.224   -33024991.88849 -25714168.10149  16367431.3834   16367438.3284
  17883320.857   -36192547.38949 -26824729.43049  17883319.8654   17883327.5944
  17970897.350   -15415249.46349 -11987162.78449  17970896.1974   17970904.3484
  16101742.300   -42774325.63949 -33316599.27949  16101741.8764   16101748.2294
  17093875.441   -35820450.39849 -27875341.21249  17093874.4374   17093882.1414
  19384761.492    -6725507.38249  -5233263.49749  19384761.0494   19384769.3194
 97  3 19  2 50 59.9840000  0  6 30 17  5  6 10 24
  16364409.495   -33040871.45949 -25726541.80049  16364409.6854   16364416.4454
  17855442.896   -36339047.20149 -26938885.11349  17855441.5954   17855450.2934
  17974954.912   -15393926.82349 -11970547.75149  17974954.5484   17974961.4754
  16079541.681   -42890990.12349 -33407506.65749  16079541.1954   16079547.5954
  17089214.351   -35844944.26249 -27894427.34349  17089213.1744   17089221.0414
  19385287.690    -6722741.26749  -5231108.07649  19385287.1854   19385295.7994
 97  3 19  2 51 29.9840000  0  6 30 17  5  6 10 24
  16361478.065   -33056276.28649 -25738545.55949  16361478.1644   16361484.9414
  17827610.663   -36485306.42549 -27052853.30549  17827609.7634   17827617.5094
  17979049.812   -15372408.12449 -11953779.94649  17979049.4134   17979056.0614
  16057385.700   -43007420.16749 -33498231.35849  16057385.2734   16057391.5864
  17084644.315   -35868959.71949 -27913140.68349  17084643.3184   17084651.0744
  19385804.631    -6720024.15649  -5228990.83849  19385803.8474   19385812.7914
 97  3 19  2 51 59.9840000  0  6 30 17  5  6 10 24
  16358651.388   -33071130.63349 -25750120.37849  16358651.4514   16358658.3154
  17799839.607   -36631243.49049 -27166570.47049  17799838.6384   17799847.2034
  17983197.061   -15350614.47349 -11936797.88649  17983196.2624   17983204.1724
  16035292.355   -43123521.27649 -33588699.74549  16035291.9184   16035298.4034
  17080182.056   -35892408.94749 -27931412.80249  17080181.2674   17080188.7304
  19386325.447    -6717287.09449  -5226858.05549  19386325.6064   19386333.3304
 97  3 19  2 52 29.9840000  0  6 30 17  5  6 10 24
  16355915.577   -33085507.52149 -25761323.14949  16355915.5454   16355922.1464
  17772115.729   -36776933.15749 -27280094.86249  17772114.9714   17772123.7764
  17987383.651   -15328613.97949 -11919654.65349  17987382.7444   17987390.4874
  16013249.548   -43239356.67549 -33678961.08349  16013249.3484   16013255.6214
  17075814.603   -35915360.09149 -27949296.80549  17075813.3804   17075821.3674
  19386840.044    -6714582.79249  -5224750.80449  19386839.8104   19386848.5244
 97  3 19  2 52 59.9840000  0  6 30 17  5  6 10 24
  16353273.822   -33099389.89149 -25772140.58749  16353273.8044   16353280.7834
  17744443.186   -36922353.03849 -27393409.02849  17744442.8084   17744450.1804
  17991615.065   -15306377.83349 -11902327.80249  17991613.3554   17991621.8114
  15991261.172   -43354906.33949 -33768999.77249  15991261.0704   15991267.1924
  17071545.864   -35937792.07249 -27966776.26449  17071545.0854   17071552.9104
  19387356.917    -6711866.68249  -5222634.35649  19387356.8624   19387365.3154
 97  3 19  2 53 29.9840000  0  6 30 17  5  6 10 24
  16350757.483   -33112613.32149 -25782444.55949  16350757.6464   16350764.3334
  17716851.141   -37067350.07249 -27506393.70049  17716850.4804   17716858.5664
  17995922.363   -15283742.46849 -11884689.87449  17995921.7334   17995929.0564
  15969357.622   -43470010.19449 -33858691.07449  15969357.2144   15969363.8504
  17067407.187   -35959541.15449 -27983723.59549  17067406.3604   17067413.7074
  19387908.280    -6708969.58049  -5220376.86949  19387908.4504   19387916.7854
 97  3 19  2 53 59.9840000  0  6 30 17  5  6 10 24
  16348343.869   -33125297.00549 -25792327.95749  16348343.8374   16348350.9094
  17689312.102   -37212068.78349 -27619161.49049  17689311.0054   17689318.9914
  18000283.227   -15260825.73149 -11866832.69249  18000282.1544   18000290.4444
  15947514.902   -43584794.49749 -33948133.37349  15947514.6354   15947521.2624
  17063375.419   -35980728.65949 -28000233.32449  17063374.3624   17063381.9154
  19388470.615    -6706014.93549  -5218074.54849  19388470.7714   19388478.9704
 97  3 19  2 54 29.9840000  0  6 30 17  5  6 10 24
  16346037.216   -33137418.49449 -25801773.28249  16346036.9944   16346044.3154
  17661830.922   -37356482.74749 -27731691.82149  17661830.3494   17661838.1154
  18004701.942   -15237605.21349 -11848738.79549  18004701.3654   18004709.2514
  15925735.908   -43699243.95449 -34037314.76749  15925735.5534   15925742.4324
  17059453.848   -36001336.48449 -28016291.37449  17059452.7174   17059460.7744
  19389046.443    -6702989.23649  -5215716.87149  19389046.3734   19389054.0734
 97  3 19  2 54 59.9840000  0  6 30 17  5  6 10 24
  16343825.924   -33149038.63349 -25810827.94049  16343825.9654   16343832.8364
  17634398.394   -37500641.37449 -27844023.18549  17634397.2114   17634406.1004
  18009164.572   -15214154.18249 -11830465.27249  18009163.5654   18009171.4304
  15904009.811   -43813415.28449 -34126279.42649  15904009.3834   15904015.9294
  17055632.296   -36021418.71949 -28031939.86149  17055631.1724   17055639.0694
  19389620.764    -6699971.66649  -5213365.50349  19389620.3554   19389628.9394
 97  3 19  2 55 29.9840000  0  6 30 17  5  6 10 24
  16341714.300   -33160135.27149 -25819474.67949  16341714.4964   16341721.4064
  17607018.737   -37644522.56049 -27956138.35649  17607018.2754   17607025.9564
  18013678.275   -15190434.61249 -11811982.49549  18013677.8104   18013685.2474
  15882342.278   -43927278.74049 -34215004.18849  15882341.9134   15882348.4144
  17051915.593   -36040950.09749 -28047159.11049  17051914.4654   17051922.4584
  19390195.287    -6696953.30049  -5211013.51349  19390195.0274   19390203.0414
 97  3 19  2 55 59.9840000  0  6 30 17  5  6 10 24
  16339695.629   -33170743.62449 -25827740.93749  16339695.6944   16339702.7084
  17579684.260   -37788166.72549 -28068068.83149  17579683.6184   17579691.2644
  18018237.394   -15166476.37149 -11793313.73549  18018236.3354   18018244.1274
  15860728.011   -44040862.57149 -34303511.05249  15860727.5374   15860734.1914
  17048294.386   -36059979.65549 -28061987.32649  17048293.5424   17048300.8924
  19390761.644    -6693977.50549  -5208694.69749  19390761.9954   19390769.7834
 97  3 19  2 56 29.9840000  0  6 30 17  5  6 10 24
  16337791.128   -33180752.21249 -25835539.84949  16337791.1434   16337798.2314
  17552420.370   -37931439.82249 -28179710.16349  17552419.4734   17552427.4244
  18022862.008   -15142173.91149 -11774376.76449  18022861.4434   18022869.0574
  15839189.712   -44154047.47649 -34391707.07349  15839189.7274   15839195.8704
  17044790.807   -36078390.97549 -28076333.80849  17044789.9274   17044797.2474
  19391344.019    -6690917.21049  -5206310.04049  19391343.2324   19391350.9204
 97  3 19  2 56 59.9840000  0  6 30 17  5  6 10 24
  16335980.908   -33190265.33749 -25842952.68349  16335980.9964   16335987.8684
  17525206.675   -38074448.65749 -28291145.57449  17525205.6334   17525213.5554
  18027532.296   -15117631.68949 -11755252.96449  18027531.5204   18027538.8584
  15817709.877   -44266925.06749 -34479663.62349  15817709.5684   15817716.0234
  17041384.878   -36096289.26649 -28090280.51749  17041383.8354   17041391.4524
  19391926.129    -6687858.55049  -5203926.64749  19391925.3694   19391933.2974
 97  3 19  2 57 29.9830000  0  6 30 17  5  6 10 24
  16334276.227   -33199223.74249 -25849933.27649  16334276.5864   16334283.1734
  17498054.418   -38217134.93249 -28402329.64549  17498053.7294   17498061.5384
  18032258.639   -15092795.13249 -11735899.82149  18032258.1074   18032265.5194
  15796300.893   -44379430.16449 -34567329.92849  15796300.6694   15796306.7794
  17038082.649   -36113642.67149 -28103802.65049  17038082.0414   17038088.9214
  19392522.301    -6684725.81249  -5201485.54249  19392521.6874   19392529.2134
 97  3 19  2 57 59.9830000  0  6 30 17  5  6 10 24
  16332660.932   -33207712.30849 -25856547.75549  16332660.8544   16332668.0984
  17470951.226   -38359563.58649 -28513312.96449  17470950.8424   17470958.4184
  18037019.915   -15067774.81349 -11716403.48349  18037019.3514   18037026.5954
  15774945.497   -44491653.65749 -34654776.79749  15774945.1634   15774951.4214
  17034866.729   -36130542.51549 -28116971.35049  17034865.6284   17034873.1154
  19393119.645    -6681586.88649  -5199039.62849  19393119.6534   19393127.3614
 97  3 19  2 58 29.9830000  0  6 30 17  5  6 10 24
  16331159.673   -33215601.24049 -25862694.98449  16331159.5834   16331166.5704
  17443924.573   -38501589.84049 -28623982.71449  17443924.2234   17443931.2974
  18041839.034   -15042450.28949 -11696670.11149  18041838.3954   18041845.2274
  15753667.918   -44603468.11249 -34741904.93549  15753667.5734   15753673.8004
  17031763.469   -36146849.99849 -28129678.47949  17031762.1464   17031769.9864
  19393746.113    -6678294.77749  -5196474.36249  19393746.7584   19393753.9984
 97  3 19  2 58 59.9830000  0  6 30 17  5  6 10 24
  16329731.945   -33223103.72949 -25868541.08449  16329731.8524   16329738.9254
  17416931.000   -38643441.61149 -28734516.51249  17416930.4304   17416937.6604
  18046674.301   -15017040.71649 -11676870.45849  18046674.0484   18046680.9224
  15732425.509   -44715097.75149 -34828889.05449  15732425.0294   15732431.1774
  17028729.354   -36162794.53549 -28142102.78849  17028728.4874   17028736.1294
  19394357.991    -6675079.29649  -5193968.78749  19394356.8964   19394365.6664
 97  3 19  2 59 29.9830000  0  7 30 17  5  6 23 10 24
  16328408.296   -33230059.34149 -25873961.05049  16328407.9984   16328415.5534
  17390002.916   -38784949.28449 -28844782.17949  17390002.2024   17390009.5574
  18051556.349   -14991385.51149 -11656879.41349  18051555.8384   18051563.1574
  15711249.554   -44826377.97649 -34915600.91049  15711249.1894   15711255.6384
  19798006.539    -5022510.34449  -3887461.48949  19798004.8064   19798015.8704
  17025797.590   -36178201.35549 -28154108.09349  17025796.8764   17025804.0074
  19394986.754    -6671775.06149  -5191394.05849  19394985.7114   19394995.8254
 97  3 19  2 59 59.9830000  0  7 30 17  5  6 23 10 24
  16327201.575   -33236400.47749 -25878902.20149  16327201.4844   16327208.7424
  17363152.917   -38926046.87349 -28954728.30049  17363152.1604   17363159.6654
  18056500.663   -14965402.78349 -11636633.14049  18056500.0754   18056507.2964
  15690153.250   -44937239.88349 -35001986.80049  15690152.9734   15690159.2294
  19762923.438    -5206872.50149  -4031120.20849  19762922.5234   19762933.5804
  17022986.770   -36192972.67149 -28165618.20749  17022986.0224   17022993.2014
  19395642.287    -6668330.92149  -5188710.32949  19395641.5974   19395649.1844
 97  3 19  3  0 29.9830000  0  8 30 17 26  5  6 23 10 24
  16326100.452   -33242186.94749 -25883411.14949  16326100.4064   16326107.5444
  17336361.570   -39066836.13549 -29064434.15849  17336360.3674   17336368.3944
  19566720.472   -11814733.36549  -9188544.18649  19566720.0824   19566729.1104
  18061499.060   -14939136.05749 -11616165.57649  18061498.0354   18061506.2974
  15669124.617   -45047746.02449 -35088095.47649  15669124.2414   15669130.5134
  19727867.914    -5391089.69549  -4174665.94149  19727866.3224   19727877.5834
  17020284.087   -36207175.52449 -28176685.37149  17020283.2434   17020290.3484
  19396309.134    -6664826.90549  -5185979.92549  19396308.9354   19396316.0254
 97  3 19  3  0 59.9830000  0  8 30 17 26  5  6 23 10 24
  16325107.003   -33247407.36549 -25887479.00649  16325107.2234   16325114.2064
  17309631.664   -39207302.02549 -29173888.05249  17309630.3924   17309638.4514
  19536959.811   -11971126.37649  -9310408.83549  19536958.7854   19536967.2954
  18066554.665   -14912568.58949 -11595463.66049  18066553.4654   18066560.7054
  15648169.511   -45157865.82249 -35173903.09549  15648169.4084   15648175.3034
  19692841.889    -5575152.12849  -4318091.15049  19692841.2404   19692851.3414
  17017692.019   -36220797.12749 -28187299.60849  17017691.2674   17017698.4324
  19396988.149    -6661258.66749  -5183199.47449  19396987.4254   19396995.2164
 97  3 19  3  1 29.9830000  0  8 30 17 26  5  6 23 10 24
  16324203.749   -33252154.06949 -25891177.74249  16324204.0994   16324210.8764
  17282950.983   -39347509.05749 -29283140.24049  17282950.0634   17282957.3074
  19507216.737   -12127426.74349  -9432201.27749  19507216.9154   19507226.3334
  18071654.284   -14885769.63249 -11574581.37249  18071654.1644   18071661.0204
  15627274.781   -45267668.50949 -35259463.62049  15627274.5334   15627280.5594
  19657832.042    -5759129.46549  -4461450.01449  19657831.0274   19657841.8804
  17015197.188   -36233907.33249 -28197515.35949  17015196.3054   17015203.3424
  19397663.138    -6657711.31449  -5180435.32449  19397662.0184   19397671.2704
 97  3 19  3  1 59.9830000  0  8 30 17 26  5  6 23 10 24
  16323382.951   -33256467.60949 -25894538.94149  16323383.0574   16323389.7644
  17256311.214   -39487501.72749 -29392225.38549  17256310.2654   17256317.8634
  19477481.129   -12283687.98449  -9553963.20549  19477480.1414   19477489.8874
  18076790.393   -14858779.03849 -11553549.74949  18076789.3994   18076796.5994
  15606432.581   -45377194.94749 -35344808.88249  15606432.0324   15606438.4214
  19622829.827    -5943067.31249  -4604778.16049  19622829.6284   19622838.7504
  17012788.658   -36246564.05749 -28207377.74249  17012787.8324   17012795.2534
  19398323.801    -6654238.25449  -5177729.05449  19398322.3114   19398330.9404
 97  3 19  3  2 29.9830000  0  8 30 17 26  5  6 23 10 24
  16322647.597   -33260331.67349 -25897549.90749  16322647.4264   16322654.8914
  17229717.824   -39627251.21849 -29501121.05149  17229716.7554   17229724.4084
  19447755.191   -12439898.68349  -9675685.76749  19447755.6294   19447763.5624
  18081964.107   -14831590.73349 -11532364.07449  18081964.0274   18081970.8804
  15585645.472   -45486431.74849 -35429928.45549  15585644.9334   15585651.3684
  19587840.154    -6126938.61649  -4748054.41149  19587839.8314   19587850.0914
  17010466.070   -36258769.47949 -28216888.45949  17010465.1304   17010472.5754
  19398976.474    -6650806.46249  -5175054.94849  19398974.5094   19398984.5254
 97  3 19  3  2 59.9830000  0  8 30 17 26  5  6 23 10 24
  16321996.755   -33263751.81449 -25900214.95449  16321996.6374   16322003.8304
  17203176.535   -39766726.17549 -29609802.79149  17203175.2904   17203182.9744
  19418036.666   -12596070.64949  -9797378.13649  19418036.0334   19418043.6974
  18087172.390   -14804220.82649 -11511036.88849  18087171.7824   18087179.5634
  15564913.932   -45595376.69849 -35514820.61049  15564913.7744   15564919.9994
  19552866.778    -6310724.69549  -4891264.27349  19552866.0724   19552876.4344
  17008229.400   -36270522.82749 -28226046.91349  17008228.3494   17008235.6534
  19399621.750    -6647413.39649  -5172411.03249  19399620.8624   19399630.2204
 97  3 19  3  3 29.9830000  0  8 30 17 26  5  6 23 10 24
  16321430.481   -33266727.49849 -25902533.67449  16321430.5994   16321437.5284
  17176686.491   -39905932.12249 -29718274.91249  17176685.7184   17176693.3024
  19388324.511   -12752208.82849  -9919044.17449  19388325.9414   19388333.8374
  18092414.542   -14776673.06249 -11489571.11849  18092413.4434   18092421.6994
  15544237.007   -45704035.23049 -35599489.58349  15544236.8794   15544242.7984
  19517909.475    -6494426.23449  -5034408.24149  19517908.1434   19517918.5424
  17006076.951   -36281833.59549 -28234860.49949  17006075.5994   17006083.2994
  19400258.323    -6644067.00949  -5169803.46349  19400257.4414   19400266.7404
 97  3 19  3  3 59.9830000  0  8 30 17 26  5  6 23 10 24
  16320959.606   -33269202.08749 -25904461.93349  16320959.5654   16320966.5224
  17150254.404   -40044833.28649 -29826509.53849  17150253.4074   17150260.6904
  19358633.611   -12908235.72949 -10040623.51549  19358631.8584   19358639.7194
  18097695.497   -14748921.64349 -11467946.64849  18097694.6774   18097702.5404
  15523622.181   -45812366.81449 -35683903.79549  15523621.6204   15523627.8014
  19482977.328    -6677995.28949  -5177448.98949  19482976.4164   19482986.0834
  17004015.896   -36292664.35549 -28243300.05449  17004015.0054   17004022.3944
  19400899.226    -6640698.58449  -5167178.70449  19400898.9674   19400907.5704
 97  3 19  3  4 29.9830000  0  8 30 17 26  5  6 23 10 24
  16320592.654   -33271130.61949 -25905964.68849  16320592.9194   16320599.7344
  17123890.502   -40183376.16049 -29934464.98349  17123889.8684   17123897.2844
  19328975.166   -13064091.70549 -10162069.63649  19328975.3094   19328983.6754
  18103023.830   -14720921.21949 -11446128.14449  18103023.3984   18103030.2134
  15503080.386   -45920314.38449 -35768018.77549  15503079.9914   15503086.0874
  19448081.965    -6861371.87449  -5320339.74249  19448081.4434   19448091.0444
  17002056.105   -36302963.14249 -28251325.07849  17002055.5024   17002062.7804
  19401555.864    -6637248.08649  -5164489.99549  19401555.6634   19401564.1634
 97  3 19  3  4 59.9830000  0  8 30 17 26  5  6 23 10 24
  16320308.932   -33272621.77649 -25907126.63749  16320309.0154   16320315.7184
  17097573.432   -40321673.27349 -30042228.91549  17097572.1674   17097580.9174
  19299333.800   -13219858.05649 -10283445.97749  19299331.7714   19299342.1794
  18108381.273   -14692767.78349 -11424190.40349  18108381.4384   18108387.5864
  15482595.805   -46027961.30749 -35851899.49149  15482595.3224   15482601.4844
  19413201.625    -7044668.89449  -5463168.48649  19413201.0714   19413210.7404
  17000180.520   -36312819.63849 -28259005.45749  17000179.5514   17000187.3244
  19402208.812    -6633817.07549  -5161816.47749  19402208.2214   19402217.9224
 97  3 19  3  5 29.9830000  0  8 30 17 26  5  6 23 10 24
  16320102.333   -33273707.65049 -25907972.77349  16320102.3684   16320109.1664
  17071293.662   -40459773.96549 -30149839.80249  17071292.7804   17071300.4904
  19269705.905   -13375553.18549 -10404766.78449  19269706.1304   19269714.2224
  18113763.394   -14664484.44949 -11402151.43649  18113762.5034   18113769.3384
  15462163.229   -46135335.28049 -35935567.51449  15462162.9074   15462169.1874
  19378329.750    -7227921.70849  -5605962.79849  19378329.0924   19378339.1334
  16998383.371   -36322263.89649 -28266364.61049  16998382.3554   16998389.8534
  19402853.704    -6630428.45049  -5159175.98749  19402853.4344   19402862.5924
 97  3 19  3  5 59.9830000  0  8 30 17 26  5  6 23 10 24
  16319990.915   -33274293.40749 -25908429.21849  16319991.1154   16319997.8764
  17045073.394   -40597562.31549 -30257207.30249  17045072.0624   17045080.3834
  19240111.799   -13531071.14349 -10525949.50449  19240109.0904   19240121.8124
  18119189.574   -14635969.40149 -11379931.92349  18119189.6164   18119196.6984
  15441802.477   -46242331.72549 -36018941.36249  15441802.0534   15441808.4564
  19343487.120    -7411020.83249  -5748637.34649  19343485.9534   19343496.6514
  16996684.087   -36331193.61949 -28273322.84149  16996682.9814   16996691.1414
  19403511.833    -6626970.06449  -5156481.14449  19403511.9284   19403520.2594
 97  3 19  3  6 29.9830000  0  8 30 17 26  5  6 23 10 24
  16319970.569   -33274400.21849 -25908512.45849  16319970.6394   16319977.7734
  17018907.148   -40735066.49849 -30364353.38749  17018905.9374   17018913.7644
  19210543.387   -13686453.85649 -10647026.93549  19210542.0284   19210554.9104
  18124658.071   -14607232.19649 -11357539.30149  18124657.9504   18124664.7594
  15421510.475   -46348966.75449 -36102033.58949  15421509.8214   15421516.3974
  19308668.039    -7593995.75349  -5891215.10049  19308667.2184   19308677.5544
  16995078.002   -36339633.26149 -28279899.19649  16995076.7234   16995084.6344
  19404175.258    -6623484.29749  -5153764.95949  19404175.1594   19404183.4504
 97  3 19  3  6 59.9830000  0  8 30 17 26  5  6 23 10 24
  16320028.716   -33274094.95149 -25908274.59949  16320028.8294   16320035.6284
  16992781.853   -40872355.30749 -30471331.64149  16992780.7934   16992788.4974
  19180985.082   -13841783.58649 -10768063.04349  19180986.6594   19180995.6524
  18130152.846   -14578357.20649 -11335039.32149  18130151.7374   18130160.0384
  15401271.446   -46455323.24249 -36184908.76749  15401270.8924   15401277.5314
  19273857.241    -7776927.41249  -6033759.17449  19273856.2174   19273866.4654
  16993551.750   -36347653.33949 -28286148.60449  16993550.5704   16993558.4294
  19404827.948    -6620054.57249  -5151092.44249  19404827.8074   19404836.0514
 97  3 19  3  7 29.9820000  0  8 30 17 26  5  6 23 10 24
  16320174.010   -33273331.77049 -25907679.92449  16320173.7194   16320181.2474
  16966710.582   -41009361.11649 -30578089.38549  16966709.8214   16966717.0904
  19151443.948   -13997023.00549 -10889028.72649  19151446.2804   19151451.5994
  18135680.699   -14549308.40849 -11312403.89349  18135679.9104   18135687.5484
  15381093.613   -46561358.45449 -36267533.60149  15381093.0914   15381099.7674
  19239066.598    -7959752.79149  -6176220.41449  19239066.0224   19239075.0854
  16992111.347   -36355223.01449 -28292047.04149  16992110.3074   16992117.6324
  19405478.188    -6616637.35649  -5148429.68349  19405477.8174   19405486.5114
 97  3 19  3  7 59.9820000  0  8 30 17 26  5  6 23 10 24
  16320431.080   -33271980.68649 -25906627.14249  16320430.7914   16320438.2874
  16940717.994   -41145953.00749 -30684524.58949  16940716.5264   16940724.4954
  19121944.681   -14152042.56249 -11009823.18449  19121945.1134   19121952.8714
  18141264.813   -14519963.80649 -11289537.99349  18141263.3654   18141272.0444
  15361000.914   -46666946.09349 -36349809.68649  15361000.4614   15361007.0914
  19204321.167    -8142340.97849  -6318496.84649  19204320.5864   19204330.2914
  16990780.256   -36362218.21149 -28297497.83749  16990779.4084   16990787.1434
  19406150.468    -6613104.41849  -5145676.75149  19406150.6114   19406158.7084
 97  3 19  3  8 29.9820000  0  8 30 17 26  5  6 23 10 24
  16320794.786   -33270069.08049 -25905137.59349  16320794.7994   16320802.1384
  16914797.681   -41282164.81749 -30790663.63149  16914796.7404   16914804.5874
  19092485.236   -14306852.81649 -11130454.44849  19092483.3994   19092494.6254
  18146899.631   -14490352.85049 -11266464.52949  18146899.2534   18146906.5974
  15340989.051   -46772109.15549 -36431754.93349  15340988.8644   15340994.8904
  19169618.869    -8324702.52049  -6460596.68549  19169618.2294   19169627.6554
  16989554.176   -36368661.47549 -28302518.56049  16989552.8974   16989560.8564
  19406838.254    -6609490.40149  -5142860.63649  19406838.4254   19406846.4874
 97  3 19  3  8 59.9820000  0  8 30 17 26  5  6 23 10 24
  16321245.652   -33267699.74749 -25903291.37449  16321245.7774   16321252.7944
  16888935.910   -41418069.08849 -30896563.03749  16888934.9344   16888942.7944
  19063053.188   -14461519.06249 -11250973.54849  19063051.7844   19063060.2544
  18152570.181   -14460554.29349 -11243244.89149  18152569.3784   18152576.6854
  15321043.740   -46876922.55549 -36513427.71149  15321043.6124   15321049.6944
  19134949.768    -8506889.96949  -6602560.86149  19134948.7314   19134958.2804
  16988418.335   -36374630.45949 -28307169.70949  16988417.3434   16988424.7214
  19407527.916    -6605866.73849  -5140036.99649  19407528.2184   19407536.2644
 97  3 19  3  9 29.9820000  0  8 30 17 26  5  6 23 10 24
  16321784.495   -33264868.25349 -25901085.02849  16321784.6244   16321791.5404
  16863132.315   -41553667.38749 -31002224.02149  16863131.2574   16863139.6054
  19033655.136   -14616006.43349 -11371353.30749  19033652.9064   19033662.5094
  18158281.742   -14430539.77049 -11219856.94849  18158280.6944   18158288.8274
  15301169.829   -46981360.83949 -36594808.18749  15301169.5314   15301175.7624
  19100318.483    -8688878.71449  -6744370.22649  19100318.0254   19100327.3434
  16987374.033   -36380118.47749 -28311446.08049  16987372.6274   16987380.4924
  19408222.328    -6602218.39649  -5137194.12949  19408222.2374   19408230.7054
 97  3 19  3  9 59.9820000  0  8 30 17 26  5  6 23 10 24
  16322391.775   -33261677.17049 -25898598.48249  16322391.6434   16322398.7694
  16837365.962   -41689070.13249 -31107732.63049  16837365.2654   16837372.9724
  19004274.409   -14770402.95649 -11491662.20349  19004273.5454   19004282.6714
  18164016.639   -14400402.87449 -11196373.66249  18164015.9034   18164022.7044
  15281348.823   -47085521.04649 -36675971.97949  15281348.7824   15281354.8474
  19065704.197    -8870777.82349  -6886109.73449  19065703.0284   19065713.1184
  16986404.705   -36385212.10649 -28315415.14649  16986403.8774   16986411.1154
  19408902.138    -6598646.62749  -5134410.93449  19408901.8974   19408910.5844
 97  3 19  3 10 29.9820000  0  8 30 17 26  5  6 23 10 24
  16323076.996   -33258076.65749 -25895792.90049  16323077.3294   16323084.1054
  16811647.055   -41824223.57649 -31213046.98749  16811646.4594   16811653.6884
  18974920.120   -14924660.57749 -11611862.87749  18974919.8464   18974928.4184
  18169786.561   -14370081.67149 -11172746.75549  18169785.2894   18169793.0834
  15261591.528   -47189346.35249 -36756874.81749  15261591.1404   15261597.4524
  19031114.912    -9052545.54149  -7027746.86249  19031114.7134   19031123.6904
  16985522.214   -36389849.60149 -28319028.77549  16985521.6784   16985529.3764
  19409577.651    -6595097.10149  -5131645.07149  19409576.6104   19409586.1314
 97  3 19  3 10 59.9820000  0  8 30 17 26  5  6 23 10 24
  16323827.945   -33254130.63049 -25892718.08849  16323828.2794   16323834.8204
  16785965.030   -41959183.32149 -31318210.39849  16785964.2594   16785971.8034
  18945579.116   -15078848.44949 -11732009.27149  18945578.1694   18945584.6824
  18175577.498   -14339649.85249 -11149033.65449  18175576.0814   18175584.1454
  15241888.640   -47292885.44349 -36837554.62149  15241888.1804   15241894.7424
  18996536.683    -9234254.95749  -7169338.55949  18996535.4524   18996544.6114
  16984713.662   -36394098.96949 -28322339.96449  16984713.1084   16984719.7384
  19410238.883    -6591621.99149  -5128937.18549  19410238.8514   19410247.2384
 97  3 19  3 11 29.9820000  0  8 30 17 26  5  6 23 10 24
  16324660.346   -33249756.35349 -25889309.57649  16324660.2634   16324667.5214
  16760334.457   -42093872.60549 -31423163.06449  16760333.6224   16760341.1544
  18916264.745   -15232896.31749 -11852046.49549  18916264.3134   18916272.5224
  18181398.522   -14309059.87949 -11125197.32549  18181398.1104   18181405.1954
  15222253.512   -47396068.47649 -36917956.98649  15222253.2134   15222259.6714
  18961977.188    -9415865.89149  -7310853.52249  18961975.8574   18961985.7714
  16983992.304   -36397889.92549 -28325293.95349  16983991.5974   16983999.2044
  19410899.646    -6588150.16749  -5126231.88349  19410899.7744   19410907.8864
 97  3 19  3 11 59.9820000  0  8 30 17 26  5  6 23 10 24
  16325582.819   -33244908.77749 -25885532.24849  16325582.5444   16325589.9434
  16734767.011   -42228230.06149 -31527857.15349  16734766.1224   16734774.5144
  18886985.257   -15386760.96549 -11971940.99049  18886985.3524   18886992.1774
  18187254.140   -14278288.30949 -11101219.49149  18187253.6864   18187260.0404
  15202693.600   -47498856.60149 -36998051.61149  15202693.1354   15202699.7534
  18927446.228    -9597326.79549  -7452251.58949  18927444.6234   18927454.7104
  16983367.202   -36401175.09849 -28327853.81349  16983366.3204   16983373.2194
  19411569.578    -6584630.46149  -5123489.26249  19411569.1204   19411577.9024
 97  3 19  3 12 29.9820000  0  8 30 17 26  5  6 23 10 24
  16326585.182   -33239641.33149 -25881427.75849  16326585.0504   16326592.0424
  16709251.844   -42362313.02449 -31632337.36349  16709250.6964   16709258.6164
  18857732.480   -15540485.05549 -12091725.91549  18857732.9234   18857741.2034
  18193132.505   -14247397.29049 -11077148.59149  18193131.9274   18193138.4554
  15183200.148   -47601295.36349 -37077874.01949  15183199.8494   15183206.2104
  18892938.076    -9778667.81749  -7593556.23149  18892936.8624   18892946.6234
  16982823.904   -36404030.11549 -28330078.50349  16982822.3774   16982830.5374
  19412238.587    -6581115.73949  -5120750.52149  19412238.1674   19412246.5824
 97  3 19  3 12 59.9820000  0  8 30 17 26  5  6 23 10 24
  16327676.651   -33233905.92749 -25876958.63749  16327676.4754   16327683.6684
  16683797.579   -42496075.96949 -31736568.20749  16683796.9384   16683804.7774
  18828517.486   -15694010.65049 -12211356.21649  18828515.8704   18828526.7104
  18199040.865   -14216348.93449 -11052955.08449  18199040.4764   18199047.6654
  15163782.017   -47703338.48749 -37157388.14049  15163781.9624   15163787.9454
  18858463.477    -9959832.28849  -7734723.30649  18858462.1384   18858472.2514
  16982370.022   -36406415.01749 -28331936.87449  16982368.6714   16982376.6604
  19412916.505    -6577554.39349  -5117975.46249  19412916.5684   19412923.8774
 97  3 19  3 13 29.9820000  0  8 30 17 26  5  6 23 10 24
  16328843.286   -33227775.17549 -25872181.43449  16328843.7174   16328850.1214
  16658391.341   -42629586.37349 -31840602.26449  16658391.3864   16658397.9404
  18799329.139   -15847396.41949 -12330877.55649  18799328.2564   18799335.9294
  18204966.637   -14185209.33849 -11028690.47149  18204966.3544   18204973.5144
  15144422.514   -47805073.56049 -37236662.21549  15144422.2354   15144428.5814
  18824012.860   -10140871.26349  -7875792.59649  18824012.8674   18824021.4314
  16981991.862   -36408402.06749 -28333485.22349  16981991.2624   16981998.3104
  19413587.699    -6574027.63849  -5115227.37049  19413587.2934   19413594.6834
 97  3 19  3 13 59.9820000  0  8 30 17 26  5  6 23 10 24
  16330094.684   -33221198.92849 -25867057.10149  16330094.7514   16330101.4504
  16633040.205   -42762807.52249 -31944410.93149  16633039.1974   16633046.7174
  18770176.471   -16000594.28449 -12450252.47549  18770175.4184   18770184.4664
  18210921.293   -14153917.95749 -11004307.58449  18210921.4014   18210928.1944
  15125130.432   -47906454.16649 -37315660.08949  15125130.2004   15125136.4634
  18789600.519   -10321709.20449  -8016705.22649  18789600.0514   18789609.3284
  16981696.973   -36409951.86049 -28334692.84049  16981696.4464   16981703.4884
  19414260.102    -6570493.66249  -5112473.64749  19414259.0384   19414266.7594
 97  3 19  3 14 29.9820000  0  7 30 17 26  5  6 23 10
  16331425.407   -33214206.06049 -25861608.13149  16331425.2004   16331432.2204
  16607736.102   -42895781.79149 -32048027.22849  16607735.5744   16607743.1474
  18741050.545   -16153651.86049 -12569518.08949  18741050.2514   18741058.4124
  18216899.966   -14122500.39849 -10979826.38249  18216898.9934   18216905.5574
  15105900.286   -48007508.89249 -37394404.02849  15105899.8034   15105906.3214
  18755218.257   -10502388.78749  -8157494.47049  18755217.9034   18755227.2564
  16981479.048   -36411097.14549 -28335585.26049  16981478.0474   16981485.7424
 97  3 19  3 14 59.9820000  0  7 30 17 26  5  6 23 10
  16332827.371   -33206838.49949 -25855867.19049  16332827.2094   16332834.3014
  16582473.399   -43028538.39849 -32151473.91849  16582472.8134   16582480.1594
  18711940.152   -16306627.86749 -12688720.11149  18711940.1034   18711948.0674
  18222892.864   -14091007.72549 -10955286.63649  18222892.4744   18222898.7804
  15086721.710   -48108292.63449 -37472936.80549  15086721.1204   15086727.6914
  18720855.836   -10682964.59849  -8298202.85049  18720855.2424   18720865.0544
  16981332.823   -36411865.46949 -28336183.94249  16981332.0184   16981338.8764
 97  3 19  3 15 29.9820000  0  7 30 17 26  5  6 23 10
  16334322.985   -33198978.81549 -25849742.76649  16334322.9934   16334330.1964
  16557273.887   -43160962.73049 -32254661.68549  16557272.9484   16557280.8354
  18682867.723   -16459404.50849 -12807766.79549  18682868.3594   18682875.9174
  18228921.382   -14059327.56549 -10930600.79349  18228921.0314   18228927.6754
  15067617.412   -48208686.11649 -37551165.48549  15067617.0564   15067623.6204
  18686535.530   -10863318.70149  -8438738.46349  18686534.4914   18686544.0334
  16981278.768   -36412149.50249 -28336405.25849  16981278.0264   16981285.1684
 97  3 19  3 15 59.9820000  0  7 30 17 26  5  6 23 10
  16335909.236   -33190642.74149 -25843247.14249  16335909.4954   16335915.8714
  16532134.667   -43293070.13849 -32357602.51049  16532134.0324   16532141.4454
  18653832.527   -16611985.45849 -12926660.99049  18653831.6314   18653840.0174
  18234983.658   -14027470.81249 -10905777.36349  18234983.4344   18234989.2894
  15048588.671   -48308682.65349 -37629084.85849  15048588.1194   15048594.6914
  18652252.906   -11043474.61349  -8579119.64849  18652252.5044   18652261.7674
  16981313.472   -36411967.43249 -28336263.38149  16981312.3524   16981320.0084
 97  3 19  3 16 29.9820000  0  7 30 17 26  5  6 23 10
  16337582.481   -33181849.65549 -25836395.39849  16337582.4574   16337589.6884
  16507058.924   -43424843.97249 -32460283.39449  16507058.3114   16507065.9524
  18624837.306   -16764355.84149 -13045391.13749  18624836.5744   18624845.6394
  18241078.498   -13995442.63549 -10880820.35249  18241076.9554   18241084.9164
  15029637.396   -48408272.30449 -37706687.17449  15029636.9494   15029643.6524
  18618006.052   -11223442.79749  -8719354.55349  18618004.9334   18618014.7734
  16981434.718   -36411330.14149 -28335766.78349  16981433.4684   16981441.1524
 97  3 19  3 16 59.9820000  0  7 30 17 26  5  6 23 10
  16339340.451   -33172611.71049 -25829197.01149  16339340.8604   16339347.5774
  16482048.956   -43556272.03049 -32562694.85249  16482048.0964   16482056.1684
  18595887.800   -16916486.53749 -13163934.50149  18595887.7154   18595895.8894
  18247207.279   -13963236.16749 -10855724.42249  18247206.9914   18247213.6204
  15010766.752   -48507438.00249 -37783959.14349  15010766.3034   15010773.1394
  18583797.797   -11403207.79249  -8859431.11549  18583797.1754   18583806.6584
  16981641.345   -36410244.31249 -28334920.68349  16981640.3254   16981647.7744
 97  3 19  3 17 29.9820000  0  7 30 17 26  5  6 23 10
  16341143.877   -33163134.91149 -25821812.50049  16341144.3214   16341150.7134
  16457065.228   -43687562.25149 -32664998.90249  16457064.5014   16457072.0674
  18566949.439   -17068558.86549 -13282432.38349  18566949.6784   18566957.8404
  18253334.622   -13931037.68349 -10830634.70649  18253334.2704   18253340.6724
  14991943.932   -48606352.59349 -37861035.43649  14991943.6834   14991950.2354
  18549591.674   -11582961.99549  -8999499.28849  18549590.4364   18549600.2614
  16981893.364   -36408919.54649 -28333888.39949  16981892.2414   16981899.7814
 97  3 19  3 17 59.9810000  0  7 30 17 26  5  6 23 10
  16343018.145   -33153285.36749 -25814137.53249  16343018.1744   16343025.0384
  16432135.463   -43818569.15549 -32767082.18149  16432134.6904   16432142.0504
  18538049.459   -17220429.17749 -13400772.85449  18538048.8464   18538057.8724
  18259488.641   -13898698.55349 -10805435.40049  18259488.0494   18259494.6964
  14973197.924   -48704863.60049 -37937797.25849  14973197.5714   14973203.9664
  18515416.675   -11762552.71949  -9139440.06049  18515415.8044   18515425.7554
  16982219.571   -36407205.35449 -28332552.66649  16982218.4754   16982226.5834
 97  3 19  3 18 29.9810000  0  7 30 17 26  5  6 23 10
  16344967.520   -33143041.09849 -25806154.99349  16344967.8444   16344974.2154
  16407260.571   -43949287.45449 -32868940.56949  16407260.2204   16407267.1794
  18509186.907   -17372102.67649 -13518959.95049  18509186.2674   18509194.4764
  18265672.054   -13866204.86749 -10780115.64349  18265671.2994   18265677.7864
  14954530.898   -48802959.24749 -38014235.41849  14954530.5444   14954536.8144
  18481275.248   -11941966.91749  -9279243.27849  18481274.3904   18481284.2624
  16982624.503   -36405077.66049 -28330894.70949  16982623.3454   16982631.1834
 97  3 19  3 18 59.9810000  0  7 30 17 26  5  6 23 10
  16347007.268   -33132322.20549 -25797802.62149  16347007.3624   16347014.4844
  16382452.577   -44079654.11649 -32970524.95749  16382451.8854   16382459.5184
  18480375.657   -17523506.36249 -13636936.81849  18480375.0134   18480382.7884
  18271897.377   -13833490.18349 -10754623.70249  18271896.1004   18271904.1124
  14935956.804   -48900566.90749 -38090293.34049  14935956.4534   14935962.9264
  18447182.422   -12121126.13649  -9418847.83949  18447181.7824   18447191.7264
  16983123.976   -36402453.10349 -28328849.59849  16983122.7394   16983130.1744
 97  3 19  3 19 29.9810000  0  7 30 17 26  5  6 23 10
  16349120.532   -33121217.10849 -25789149.30849  16349120.4794   16349127.6364
  16357692.186   -44209770.58449 -33071914.39749  16357691.1564   16357699.4354
  18451596.756   -17674739.93349 -13754781.15249  18451596.0464   18451603.6354
  18278145.285   -13800657.01249 -10729039.41449  18278144.1644   18278151.3504
  14917454.628   -48997796.68049 -38166056.79749  14917454.4614   14917461.0144
  18413120.427   -12300122.86549  -9558325.76249  18413119.2734   18413128.9854
  16983701.138   -36399420.06749 -28326486.19249  16983700.1994   16983707.1664
 97  3 19  3 19 59.9810000  0  7 30 17 26  5  6 23 10
  16351332.492   -33109592.92849 -25780091.51249  16351332.6484   16351339.5894
  16333006.617   -44339493.88849 -33172997.46649  16333005.6154   16333013.5624
  18422877.025   -17825662.97049 -13872383.47949  18422877.0384   18422885.2204
  18284440.098   -13767577.03749 -10703262.81649  18284440.2554   18284446.5354
  14899046.256   -49094533.26049 -38241435.94349  14899045.8554   14899052.3924
  18379116.816   -12478813.11149  -9697564.87549  18379116.0634   18379125.4604
  16984382.060   -36395841.78849 -28323697.92249  16984381.1184   16984388.2884
 97  3 19  3 20 29.9810000  0  7 30 17 26  5  6 23 10
  16353620.608   -33097568.63749 -25770721.94149  16353620.4844   16353628.2844
  16308374.630   -44468935.38749 -33273860.95549  16308373.6184   16308381.1064
  18394196.364   -17976380.95249 -13989826.01049  18394195.3844   18394204.9484
  18290758.305   -13734374.51849 -10677390.72749  18290757.3624   18290765.2464
  14880709.009   -49190896.15549 -38316523.91149  14880708.4804   14880715.0514
  18345149.361   -12657313.21649  -9836655.82949  18345148.7084   18345157.9424
  16985142.575   -36391845.35249 -28320583.81049  16985141.3014   16985149.0264
 97  3 19  3 20 59.9810000  0  7 30 17 26  5  6 23 10
  16355962.305   -33085263.30349 -25761133.37649  16355962.7934   16355969.7924
  16283775.261   -44598205.98349 -33374591.26549  16283774.0284   16283782.0914
  18365535.166   -18126996.35449 -14107188.64349  18365535.3744   18365542.9844
  18297078.655   -13701160.38049 -10651509.58349  18297078.3964   18297085.0734
  14862417.750   -49287017.28449 -38391423.48349  14862417.2134   14862423.9404
  18311197.541   -12835731.18049  -9975682.78449  18311197.2724   18311205.9904
  16985960.059   -36387549.35749 -28317236.27549  16985959.0454   16985966.5664
 97  3 19  3 21 29.9810000  0  8 30 17 26  5  6 23 22 10
  16358371.818   -33072601.36149 -25751266.93649  16358372.3144   16358378.7924
  16259222.886   -44727229.54849 -33475129.08249  16259222.2254   16259229.7864
  18336908.396   -18277430.86949 -14224410.30649  18336907.4734   18336916.5504
  18303413.866   -13667868.62049 -10625567.96249  18303413.4314   18303420.5514
  14844186.825   -49382821.33649 -38466075.98949  14844186.3544   14844192.9404
  18277278.449   -13013977.29649 -10114575.82349  18277278.0044   18277287.6084
  19014875.665    -8377728.19649  -6500399.83449  19014874.3264   19014881.9764
  16986846.884   -36382889.04349 -28313604.86149  16986846.0714   16986853.2404
 97  3 19  3 21 59.9810000  0  8 30 17 26  5  6 23 22 10
  16360853.967   -33059557.51549 -25741102.91349  16360853.7874   16360861.3194
  16234723.321   -44855975.52849 -33575450.59149  16234722.3764   16234730.2674
  18308321.416   -18427656.41649 -14341469.15049  18308322.8024   18308330.3024
  18309767.707   -13634479.18649 -10599550.21649  18309767.8024   18309774.5254
  14826023.714   -49478268.90749 -38540450.71849  14826023.2484   14826029.9654
  18243396.110   -13192030.08449 -10253318.21449  18243395.1904   18243404.9264
  18985021.546    -8534612.27649  -6622647.12249  18985020.1844   18985027.8114
  16987806.895   -36377843.92149 -28309673.58949  16987805.4374   16987813.1024
 97  3 19  3 22 29.9810000  0  8 30 17 26  5  6 23 22 10
  16363416.769   -33046090.10049 -25730608.83549  16363416.6524   16363423.6474
  16210283.565   -44984407.02749 -33675527.06449  16210283.0854   16210290.1814
  18279782.791   -18577627.91149 -14458330.00049  18279782.2304   18279790.4244
  18316145.978   -13600962.00949 -10573432.94549  18316145.4964   18316152.2644
  14807938.477   -49573307.18849 -38614506.52149  14807938.1784   14807944.5704
  18209557.160   -13369854.64949 -10391882.76949  18209556.9264   18209565.7754
  18955239.516    -8691117.63949  -6744599.32149  18955238.8314   18955245.7194
  16988845.892   -36372383.42549 -28305418.66849  16988844.3984   16988852.3044
 97  3 19  3 22 59.9810000  0  8 30 17 26  5  6 23 22 10
  16366044.479   -33032281.55249 -25719848.93549  16366043.9444   16366051.4504
  16185888.291   -45112605.21849 -33775421.73249  16185887.3834   16185894.7684
  18251279.131   -18727415.56349 -14575047.64549  18251280.4214   18251285.4444
  18322532.621   -13567400.41849 -10547281.05649  18322532.2454   18322538.9964
  14789918.928   -49668000.38049 -38688293.42249  14789918.8224   14789925.0624
  18175748.763   -13547518.86149 -10530322.36049  18175747.3824   18175757.3664
  18925512.162    -8847335.95749  -6866327.83949  18925510.8114   18925518.8564
  16989951.708   -36366571.75349 -28300890.10449  16989950.2124   16989958.7254
 97  3 19  3 23 29.9810000  0  8 30 17 26  5  6 23 22 10
  16368744.240   -33018093.90349 -25708793.64449  16368744.1144   16368751.2214
  16161546.342   -45240523.12449 -33875098.00049  16161545.7654   16161553.1214
  18222820.371   -18876967.37249 -14691581.46749  18222820.6444   18222828.6584
  18328936.312   -13533750.03149 -10521059.99649  18328936.8014   18328942.9994
  14771979.045   -49762275.42849 -38761754.49449  14771978.8224   14771985.3024
  18141979.128   -13724979.19049 -10668603.08049  18141978.8794   18141987.2374
  18895848.363    -9003220.08549  -6987795.95249  18895846.1984   18895854.9414
  16991134.003   -36360358.83049 -28296048.87649  16991133.2234   16991140.7484
 97  3 19  3 23 59.9810000  0  8 30 17 26  5  6 23 22 10
  16371514.317   -33003536.99549 -25697450.61549  16371513.9274   16371521.1414
  16137258.532   -45368156.26749 -33974552.37649  16137257.7194   16137265.4294
  18194407.125   -19026279.79149 -14807928.75949  18194408.2934   18194414.9694
  18335357.841   -13500006.19749 -10494766.10449  18335357.2164   18335362.7204
  14754118.397   -49856134.07349 -38834891.09749  14754118.1474   14754124.5484
  18108244.001   -13902258.28349 -10806742.58449  18108243.4144   18108252.5294
  18866245.884    -9158781.69949  -7109012.75649  18866244.7814   18866252.7004
  16992392.030   -36353747.93249 -28290897.54149  16992390.8834   16992398.5394
 97  3 19  3 24 29.9810000  0  8 30 17 26  5  6 23 22 10
  16374352.778   -32988620.71049 -25685827.54249  16374352.7814   16374359.9254
  16113025.159   -45495503.33749 -34073783.83249  16113024.5954   16113032.2114
  18166041.150   -19175343.76349 -14924082.46549  18166041.6014   18166048.1624
  18341797.361   -13466167.83149 -10468398.59349  18341798.2574   18341803.1244
  14736336.744   -49949577.24549 -38907703.95849  14736336.1974   14736342.9524
  18074544.590   -14079349.45849 -10944735.64949  18074544.3434   18074552.4824
  18836709.453    -9313996.01049  -7229958.94649  18836708.2084   18836715.9074
  16993726.458   -36346735.84549 -28285433.58349  16993725.7084   16993732.9824
 97  3 19  3 24 59.9810000  0  8 30 17 26  5  6 23 22 10
  16377257.730   -32973354.92249 -25673932.13949  16377258.2804   16377264.5554
  16088843.107   -45622580.99749 -34172805.36449  16088842.0464   16088850.0164
  18137718.313   -19324181.05149 -15040059.54349  18137717.8994   18137725.6904
  18348252.287   -13432247.67949 -10441967.32349  18348251.7104   18348256.1234
  14718630.645   -50042623.15949 -38980207.26349  14718630.3044   14718636.7174
  18040878.280   -14256267.00349 -11082593.41949  18040878.3704   18040886.4224
  18807242.486    -9468845.76849  -7350621.06549  18807241.2184   18807249.0734
  16995135.891   -36339329.45449 -28279662.37449  16995134.8534   16995142.2504
 97  3 19  3 25 29.9810000  0  8 30 17 26  5  6 23 22 10
  16380222.696   -32957774.27549 -25661791.38949  16380222.8084   16380229.5134
  16064706.107   -45749421.23049 -34271641.88349  16064705.1864   16064713.2884
  18109430.922   -19472831.97049 -15155891.41649  18109430.1424   18109438.5764
  18354713.927   -13398291.34649 -10415507.89049  18354712.5074   18354718.3644
  14700989.748   -50135326.76749 -39052443.83349  14700989.5574   14700996.2954
  18007236.748   -14433054.53049 -11220349.87049  18007235.0614   18007245.1384
  18777841.191    -9623350.10749  -7471014.03349  18777839.7324   18777847.8054
  16996607.696   -36331595.35649 -28273635.81249  16996606.5644   16996613.4794
 97  3 19  3 25 59.9810000  0  8 30 17 26  5  6 23 22 10
  16383256.092   -32941833.95349 -25649370.37049  16383256.1084   16383263.1204
  16040624.357   -45875971.47949 -34370252.43949  16040623.1584   16040631.3904
  18081188.010   -19621249.32449 -15271541.26849  18081188.0744   18081195.4524
  18361189.571   -13364260.78449 -10388990.58049  18361188.2044   18361194.5824
  14683421.887   -50227646.55349 -39124381.32849  14683421.6294   14683428.0024
  17973631.365   -14609651.96749 -11357958.19349  17973630.5154   17973639.5434
  18748518.789    -9777440.14049  -7591084.16049  18748517.0024   18748525.9364
  16998147.222   -36323505.40549 -28267331.94649  16998146.2984   16998153.5904
 97  3 19  3 26 29.9810000  0  8 30 17 26  5  6 23 22 10
  16386377.689   -32925430.11349 -25636588.17349  16386377.8174   16386384.8284
  16016616.187   -46002134.83749 -34468561.53649  16016615.1484   16016623.7774
  18053010.226   -19769324.24149 -15386924.30749  18053010.5514   18053017.8734
  18367701.097   -13330041.86849 -10362326.48749  18367700.3864   18367706.2334
  14665947.829   -50319473.38749 -39195934.70549  14665947.6264   14665954.1164
  17940088.752   -14785919.49649 -11495309.45449  17940088.2354   17940096.4144
  18719298.737    -9930992.31149  -7710735.19449  18719297.9104   18719305.3754
  16999775.875   -36314946.91049 -28260662.99949  16999774.7414   16999782.4604
 97  3 19  3 26 59.9810000  0  8 30 17 26  5  6 23 22 10
  16389562.236   -32908695.15249 -25623547.95349  16389562.3324   16389569.2704
  15992656.617   -46128043.00349 -34566671.76749  15992655.5854   15992663.7104
  18024871.778   -19917192.42449 -15502146.23349  18024871.6714   18024879.9144
  18374224.987   -13295757.29549 -10335611.24449  18374223.4504   18374230.4304
  14648541.656   -50410943.41649 -39267210.04749  14648541.5264   14648547.7944
  17906585.426   -14961980.52849 -11632499.79249  17906584.9894   17906593.8744
  18690151.319   -10084162.84949  -7830088.84949  18690150.1384   18690157.6684
  17001467.315   -36306058.53849 -28253736.99349  17001466.0504   17001473.3094
 97  3 19  3 27 29.9810000  0  8 30 17 26  5  6 23 22 10
  16392830.842   -32891518.52549 -25610163.57949  16392830.8494   16392837.9784
  15968771.686   -46253559.07249 -34664476.47549  15968771.2104   15968778.6914
  17996798.977   -20064716.00349 -15617099.63849  17996798.7754   17996806.5774
  18380788.017   -13261267.92049 -10308736.39849  18380787.1664   18380793.6534
  14631228.631   -50501923.91649 -39338103.94249  14631228.4214   14631234.8424
  17873147.384   -15137698.57249 -11769422.87449  17873146.1984   17873155.7724
  18661097.325   -10236842.69349  -7949060.15049  18661096.6524   18661104.0334
  17003245.400   -36296714.60549 -28246455.99649  17003244.5694   17003251.7094
 97  3 19  3 27 59.9810000  0  8 30 17 26  5  6 23 22 10
  16396163.201   -32874006.40349 -25596517.78249  16396162.9234   16396170.5334
  15944940.132   -46378794.62649 -34762062.59149  15944939.4184   15944947.3464
  17968774.499   -20211985.63949 -15731855.18349  17968774.1174   17968781.8904
  18387373.481   -13226660.67749 -10281769.71449  18387372.7974   18387379.5304
  14613991.872   -50592503.42649 -39408685.36949  14613991.5544   14613998.0754
  17839755.349   -15313174.65549 -11906157.41349  17839754.2954   17839763.5954
  18632115.277   -10389144.55349  -8067736.91849  18632114.4264   18632122.3024
  17005094.713   -36286996.83749 -28238883.70549  17005094.1984   17005100.8934
 97  3 19  3 28 29.9800000  0  8 30 17 26  5  6 23 22 10
  16399549.685   -32856210.27149 -25582650.69049  16399549.7384   16399557.5454
  15921149.318   -46503816.10449 -34859481.89949  15921148.5484   15921156.0764
  17940787.533   -20359058.16949 -15846457.10949  17940787.6514   17940795.7394
  18393968.650   -13192002.85249 -10254763.61849  18393967.7814   18393973.6814
  14596818.339   -50682751.17549 -39479008.28749  14596817.9134   14596824.4904
  17806397.350   -15488471.82649 -12042752.54049  17806396.7184   17806405.9524
  18603192.902   -10541132.30949  -8186168.90149  18603191.0494   18603199.6264
  17007005.425   -36276956.23349 -28231059.85049  17007004.4764   17007012.1644
 97  3 19  3 28 59.9800000  0  8 30 17 26  5  6 23 22 10
  16402991.851   -32838121.60649 -25568555.64549  16402991.3854   16402999.6424
  15897398.906   -46628625.18149 -34956735.69749  15897398.0304   15897405.5534
  17912839.023   -20505928.92249 -15960901.81049  17912838.7204   17912847.1754
  18400567.695   -13157324.68849 -10227741.66449  18400566.9934   18400573.3254
  14579707.556   -50772668.93149 -39549074.06949  14579707.1394   14579713.7544
  17773068.409   -15663616.21749 -12179228.63149  17773067.0524   17773076.6034
  18574328.378   -10692816.40249  -8304364.28549  18574327.2714   18574335.6304
  17008974.746   -36266607.44349 -28222995.85749  17008973.6034   17008981.0094
 97  3 19  3 29 29.9800000  0  8 30 17 26  5  6 23 22 10
  16406525.232   -32819553.61049 -25554087.09449  16406525.8194   16406532.7454
  15873725.889   -46753027.36549 -35053672.43749  15873725.0694   15873732.8014
  17884969.543   -20652384.19949 -16075022.78249  17884969.7434   17884977.4444
  18407201.530   -13122464.15849 -10200577.61249  18407200.9204   18407206.6614
  14562697.362   -50862058.14449 -39618728.00149  14562697.2154   14562703.5714
  17739804.709   -15838417.35049 -12315437.24249  17739803.5204   17739813.0094
  18545562.048   -10843984.57649  -8422157.65249  18545560.3864   18545568.9594
  17011036.443   -36255773.10449 -28214553.52549  17011034.8864   17011041.9734
 97  3 19  3 29 59.9800000  0  8 30 17 26  5  6 23 22 10
  16410114.440   -32800692.53249 -25539390.16649  16410114.7544   16410122.0124
  15850093.828   -46877214.85049 -35150441.87449  15850092.5494   15850100.6754
  17857144.666   -20798604.79449 -16188960.87149  17857144.4764   17857152.3004
  18413829.715   -13087633.27149 -10173436.67549  18413829.8114   18413834.2644
  14545753.592   -50951098.39449 -39688110.01249  14545753.2754   14545759.6664
  17706571.830   -16013056.58649 -12451519.71349  17706570.8064   17706580.2224
  18516861.225   -10994808.59249  -8539682.84249  18516860.9544   18516868.9254
  17013152.651   -36244652.42449 -28205888.06549  17013151.9904   17013159.0194
 97  3 19  3 30 29.9800000  0  8 30 17 26  5  6 23 22 10
  16413754.721   -32781563.20149 -25524484.21449  16413754.9244   16413761.5374
  15826502.142   -47001189.87749 -35247045.76649  15826501.1614   15826509.2394
  17829361.570   -20944605.88049 -16302727.91749  17829361.3304   17829369.1034
  18420447.413   -13052857.28449 -10146338.50449  18420447.2204   18420453.2644
  14528875.199   -51039794.86749 -39757224.14949  14528874.8094   14528881.3864
  17673368.686   -16187539.92749 -12587480.70949  17673368.1624   17673377.4974
  18488225.136   -11145292.52149  -8656943.01549  18488224.0894   18488231.9974
  17015317.650   -36233275.27349 -28197022.74949  17015316.5814   17015324.1534
 97  3 19  3 30 59.9800000  0  8 30 17 26  5  6 23 22 10
  16417449.358   -32762147.83449 -25509355.37049  16417449.3564   16417456.9774
  15802960.564   -47124901.60949 -35343444.48349  15802959.5394   15802967.2574
  17801629.006   -21090341.19249 -16416287.86649  17801629.2684   17801636.4174
  18427065.680   -13018079.29649 -10119238.86349  18427065.1684   18427072.8944
  14512074.072   -51128085.00649 -39826021.65649  14512073.4814   14512080.2204
  17640202.221   -16361830.64649 -12723291.60649  17640201.6724   17640210.5084
  18459662.879   -11295388.16249  -8773900.63649  18459661.8424   18459671.0334
  17017538.371   -36221605.53549 -28187929.44049  17017537.8344   17017544.9874
 97  3 19  3 31 29.9800000  0  8 30 17 26  5  6 23 22 10
  16421218.967   -32742338.13349 -25493919.25349  16421218.5874   16421226.0454
  15779493.090   -47248223.69549 -35439539.58649  15779492.2054   15779500.0964
  17773965.737   -21235712.88549 -16529564.46849  17773965.8294   17773973.0794
  18433714.042   -12983142.58749 -10092015.69149  18433714.9554   18433720.2784
  14495375.943   -51215833.95849 -39894397.46149  14495375.4304   14495382.1334
  17607096.397   -16535802.82349 -12858854.30349  17607095.3824   17607104.6474
  18431198.933   -11444967.12649  -8890455.64249  18431198.0474   18431205.8124
  17019838.574   -36209517.80649 -28178510.42549  17019838.0214   17019844.6094
 97  3 19  3 31 59.9800000  0  8 30 17 26  5  6 23 22 10
  16425049.034   -32722210.83949 -25478235.66449  16425048.6154   16425056.2274
  15756083.361   -47371242.52749 -35535398.39349  15756082.6414   15756090.3944
  17746352.867   -21380819.55249 -16642634.58049  17746352.5764   17746360.2124
  18440380.989   -12948108.93949 -10064716.66449  18440382.0094   18440386.3774
  14478767.346   -51303112.54249 -39962406.74349  14478766.8984   14478773.9194
  17574038.331   -16709524.17449 -12994221.54649  17574037.7174   17574046.7594
  18402819.617   -11594101.83049  -9006664.48649  18402819.5134   18402826.2524
  17022205.079   -36197081.74449 -28168819.98449  17022203.8344   17022211.2504
 97  3 19  3 32 29.9800000  0  8 30 17 26  5  6 23 22 10
  16428925.967   -32701837.49949 -25462360.34849  16428926.4314   16428933.3534
  15732716.252   -47494037.72349 -35631082.93749  15732715.3484   15732723.1864
  17718775.191   -21525741.69949 -16755560.89149  17718775.5674   17718783.1364
  18447054.510   -12913041.72449 -10037391.56849  18447054.6704   18447058.8674
  14462232.435   -51390003.98849 -40030114.35949  14462232.0854   14462238.9404
  17541012.573   -16883075.85449 -13129456.57849  17541011.5304   17541021.1574
  18374508.605   -11742877.03649  -9122593.17749  18374507.3534   18374516.0954
  17024625.085   -36184364.47849 -28158910.42749  17024624.2384   17024630.7294
 97  3 19  3 32 59.9800000  0  8 30 17 26  5  6 23 22 10
  16432849.052   -32681221.98449 -25446296.32549  16432849.1554   16432856.1054
  15709387.151   -47616633.09049 -35726611.76749  15709386.3084   15709394.1164
  17691229.011   -21670498.08849 -16868358.04949  17691228.2684   17691235.9424
  18453728.322   -12877973.19549 -10010065.45549  18453730.2084   18453731.9114
  14445765.257   -51476539.84349 -40097544.89249  14445765.1154   14445771.6234
  17508017.114   -17056467.97049 -13264567.27649  17508016.4924   17508024.8164
  18346260.892   -11891319.82749  -9238262.85949  18346259.4994   18346267.0844
  17027095.850   -36171380.20349 -28148792.81349  17027095.0074   17027102.4654
 97  3 19  3 33 29.9800000  0  8 30 17 26  5  6 23 22 10
  16436824.975   -32660328.67249 -25430015.83949  16436825.2134   16436832.0104
  15686096.152   -47739028.06249 -35821984.44549  15686095.4924   15686103.1114
  17663722.022   -21815047.90749 -16980994.25149  17663721.4404   17663730.1044
  18460399.874   -12842918.97449  -9982750.59249  18460401.6404   18460405.2684
  14429365.776   -51562719.75249 -40164698.05949  14429365.4784   14429372.0834
  17475059.047   -17229663.86749 -13399525.08449  17475058.5994   17475066.6744
  18318078.564   -12039418.35349  -9353664.28549  18318077.3894   18318085.0894
  17029620.462   -36158112.78049 -28138454.57649  17029619.5604   17029626.6294
 97  3 19  3 33 59.9800000  0  8 30 17 26  5  6 23 22 10
  16440869.932   -32639072.72449 -25413452.78049  16440869.9834   16440877.4454
  15662858.591   -47861142.74849 -35917138.72649  15662857.9194   15662865.6384
  17636276.272   -21959275.65249 -17093379.50149  17636276.1604   17636284.2604
  18467080.913   -12807814.29359  -9955396.44849  18467079.8174   18467083.3794
  14413047.120   -51648474.95149 -40231520.29149  14413046.9954   14413053.4804
  17442154.259   -17402579.88049 -13534264.79749  17442153.8884   17442162.0974
  18289976.764   -12187094.16149  -9468736.29949  18289975.3544   18289983.2814
  17032215.505   -36144475.57349 -28127828.18849  17032214.7734   17032222.2774
 97  3 19  3 34 29.9800000  0  7 30 17 26  6 23 22 10
  16444987.734   -32617434.00449 -25396591.45249  16444988.0824   16444994.7854
  15639682.337   -47982935.02049 -36012041.77449  15639681.3544   15639689.0324
  17608901.105   -22103132.51749 -17205475.73749  17608900.6124   17608907.9764
  14396812.624   -51733788.02449 -40297998.00749  14396812.5144   14396819.0774
  17409307.190   -17575192.59449 -13668768.17549  17409306.4984   17409315.2104
  18261958.721   -12334329.83349  -9583465.36049  18261957.5604   18261966.0714
  17034884.069   -36130452.52849 -28116901.14249  17034883.4964   17034890.5184
 97  3 19  3 34 59.9800000  0  7 30 17 26  6 23 22 10
  16449158.741   -32595515.68549 -25379512.25149  16449158.8844   16449165.4514
  15616550.174   -48104495.08749 -36106763.89549  15616549.0984   15616556.6144
  17581580.639   -22246701.88049 -17317347.94549  17581580.0454   17581588.5614
  14380644.117   -51818754.48349 -40364205.63849  14380643.8374   14380650.3644
  17376501.986   -17747585.15149 -13803100.01049  17376501.2884   17376509.4454
  18234010.477   -12481198.64649  -9697908.55249  18234009.3784   18234017.0054
  17037607.113   -36116143.03549 -28105750.89449  17037606.0914   17037613.4794
 97  3 19  3 35 29.9800000  0  7 30 17 26  6 23 22 10
  16453379.441   -32573335.91349 -25362229.32149  16453379.6924   16453386.9194
  15593463.433   -48225816.61349 -36201300.13749  15593462.9204   15593470.2654
  17554314.489   -22389986.23149 -17428998.07849  17554315.0614   17554322.9464
  14364543.746   -51903362.50249 -40430133.97249  14364543.6034   14364550.0114
  17343738.258   -17919759.47149 -13937261.77849  17343737.8104   17343746.1844
  18206136.639   -12627676.31249  -9812046.96149  18206135.4554   18206143.8034
  17040383.772   -36101551.78049 -28094381.08849  17040382.8884   17040389.8634
 97  3 19  3 35 59.9800000  0  7 30 17 26  6 23 22 10
  16457661.740   -32550832.46849 -25344694.17549  16457662.1684   16457669.0874
  15570440.561   -48346802.85449 -36295575.11949  15570439.6094   15570447.0614
  17527113.089   -22532930.69649 -17540383.33449  17527112.5524   17527120.8594
  14348528.911   -51987520.88849 -40495711.93549  14348528.4804   14348535.0754
  17311030.545   -18091640.03949 -14071194.65949  17311029.5844   17311038.0394
  18178354.085   -12773674.28949  -9925811.56949  18178352.6384   18178361.0234
  17043228.564   -36086602.42649 -28082732.24449  17043227.5594   17043234.6794
 97  3 19  3 36 29.9800000  0  7 30 17 26  6 23 22 10
  16461996.936   -32528050.73949 -25326942.18349  16461996.8974   16462004.2304
  15547472.714   -48467499.52749 -36389624.44849  15547472.1194   15547479.0864
  17499965.721   -22675591.09649 -17651547.26249  17499965.5664   17499974.1944
  14332593.180   -52071263.78949 -40560966.14449  14332592.9824   14332599.3774
  17278371.999   -18263261.81949 -14204925.87549  17278371.6324   17278379.3024
  18150656.570   -12919225.33849 -10039227.94549  18150656.3424   18150663.4924
  17046134.495   -36071331.77149 -28070833.05349  17046133.9574   17046140.9474
 97  3 19  3 36 59.9800000  0  7 30 17 26  6 23 22 10
  16466377.572   -32505030.32849 -25309004.22049  16466377.9444   16466384.3724
  15524549.485   -48587961.96149 -36483491.26349  15524548.5794   15524555.9854
  17472864.208   -22818010.75149 -17762523.58749  17472864.0884   17472871.8104
  14316732.826   -52154610.96149 -40625912.00249  14316732.5224   14316738.7804
  17245755.157   -18434664.72349 -14338486.55049  17245754.9924   17245762.4214
  18123039.362   -13064354.62449 -10152315.67749  18123038.6814   18123046.4294
  17049097.274   -36055762.52949 -28058701.19449  17049096.8064   17049103.1674
 97  3 19  3 37 29.9800000  0  7 30 17 26  6 23 22 10
  16470804.417   -32481767.23649 -25290877.14149  16470804.7394   16470811.8114
  15501670.474   -48708191.92649 -36577176.92749  15501669.5574   15501677.3544
  17445810.662   -22960178.14349 -17873303.35949  17445811.1764   17445819.2924
  14300950.570   -52237547.00149 -40690537.48749  14300950.0384   14300956.8754
  17213178.996   -18605853.44349 -14471880.32049  17213178.2254   17213186.8674
  18095499.862   -13209075.63649 -10265085.27249  18095498.6974   18095506.6564
  17052115.895   -36039899.49449 -28046340.41349  17052114.7274   17052121.6314
 97  3 19  3 37 59.9800000  0  7 30 17 26  6 23 22 10
  16475283.729   -32458228.14649 -25272534.99849  16475283.4594   16475291.0094
  15478838.852   -48828172.94749 -36670668.61549  15478837.6344   15478845.3284
  17418814.106   -23102045.71449 -17983849.49549  17418814.3264   17418821.5114
  14285251.226   -52320047.14649 -40754823.31449  14285250.8974   14285257.4524
  17180647.720   -18776806.51849 -14605090.47949  17180646.9964   17180655.3794
  18068039.324   -13353381.99249 -10377531.75849  18068038.4574   18068045.7644
  17055195.314   -36023716.70849 -28033730.46449  17055194.3454   17055201.6604
 97  3 19  3 38 29.9800000  0  7 30 17 26  6 23 22 10
  16479818.248   -32434399.14349 -25253966.95849  16479817.8504   16479825.3254
  15456051.903   -48947918.62849 -36763976.92249  15456050.7394   15456058.6244
  17391877.316   -23243599.41349 -18094151.06549  17391877.3444   17391885.1804
  14269633.420   -52402119.05549 -40818775.45449  14269633.1194   14269640.0104
  17148160.888   -18947525.39249 -14738118.14249  17148159.9264   17148168.3704
  18040656.960   -13497277.09149 -10489657.79349  18040655.6244   18040663.0414
  17058334.656   -36007219.29249 -28020875.34249  17058333.9814   17058340.4064
 97  3 19  3 38 59.9790000  0  7 30 17 26  6 23 22 10
  16484427.857   -32410175.02249 -25235091.02349  16484427.6084   16484435.3494
  15433331.185   -49067316.66749 -36857014.33149  15433330.4284   15433337.8924
  17365023.484   -23384717.18349 -18204112.94249  17365022.5954   17365031.2344
  14254117.241   -52483657.10849 -40882311.59549  14254117.0004   14254123.5634
  17115739.309   -19117901.60049 -14870878.78349  17115738.8714   17115746.9124
  18013372.658   -13640656.92349 -10601382.30849  18013371.0934   18013379.9974
  17061546.763   -35990339.68849 -28007722.40249  17061545.8084   17061552.6834
 97  3 19  3 39 29.9790000  0  7 30 17 26  6 23 22 10
  16489101.791   -32385612.89649 -25215951.72549  16489101.5234   16489108.4924
  15410666.951   -49186417.85849 -36949820.44249  15410665.8484   15410673.9714
  17338241.432   -23525457.59349 -18313780.76749  17338241.7454   17338249.6954
  14238688.179   -52564737.29949 -40945490.97249  14238687.9414   14238694.7254
  17083371.073   -19287997.56949 -15003421.06449  17083370.6094   17083379.0594
  17986171.328   -13783600.45649 -10712766.85349  17986170.4434   17986177.3494
  17064816.010   -35973160.08449 -27994335.70749  17064815.0444   17064821.7914
 97  3 19  3 39 59.9790000  0  7 30 17 26  6 23 22 10
  16493833.812   -32360745.78549 -25196574.76049  16493833.4174   16493841.2814
  15388056.671   -49305235.37249 -37042405.49449  15388055.6514   15388063.3364
  17311525.209   -23665852.59449 -18423179.45149  17311524.9014   17311532.8954
  14223342.354   -52645380.08749 -41008329.49549  14223342.0454   14223348.6724
  17051052.947   -19457830.08549 -15135758.05249  17051052.2924   17051061.0984
  17959051.227   -13926117.42949 -10823819.03149  17959050.6184   17959058.0064
  17068138.596   -35955699.93649 -27980730.39249  17068137.7944   17068144.7424
 97  3 19  3 40 29.9790000  0  7 30 17 26  6 23 22 10
  16498622.170   -32335582.61349 -25176967.11649  16498623.2014   16498629.4854
  15365504.250   -49423748.90049 -37134753.67849  15365503.2834   15365511.0824
  17284874.975   -23805900.03849 -18532307.31149  17284874.8504   17284882.9164
  14208082.451   -52725571.35149 -41070816.19449  14208081.9504   14208088.9484
  17018788.356   -19627381.32449 -15267875.86849  17018787.8784   17018795.8754
  17932016.762   -14068184.30849 -10934520.45749  17932015.6644   17932022.6124
  17071514.776   -35937958.06949 -27966905.57349  17071513.1274   17071520.5884
 97  3 19  3 40 59.9790000  0  7 30 17 26  6 23 22 10
  16503452.637   -32310198.71849 -25157187.46249  16503453.2474   16503459.8724
  15343001.981   -49541998.93149 -37226896.53449  15343001.1614   15343008.7244
  17258283.779   -23945637.47049 -18641193.59349  17258284.4584   17258291.3124
  14192903.347   -52805337.76349 -41132971.83449  14192903.0684   14192909.8014
  16986569.754   -19796690.84049 -15399805.32349  16986569.1534   16986577.0904
  17905060.461   -14209840.37549 -11044901.80049  17905059.7054   17905067.1234
  17074936.164   -35919978.60949 -27952895.60149  17074935.4384   17074942.4284
 97  3 19  3 41 29.9790000  0  7 30 17 26  6 23 22 10
  16508336.755   -32284532.93049 -25137188.17249  16508336.7764   16508344.9534
  15320562.381   -49659919.86749 -37318782.95849  15320561.5164   15320568.9254
  17231763.243   -24085003.82449 -18749790.73849  17231763.9484   17231770.4784
  14177818.130   -52884611.09849 -41194743.26949  14177817.8114   14177824.3904
  16954411.227   -19965684.91149 -15531488.98449  16954410.3264   16954418.9444
  17878197.089   -14351008.18249 -11154902.66749  17878196.0524   17878204.1654
  17078422.787   -35901656.31249 -27938618.49249  17078422.1444   17078428.7064
 97  3 19  3 41 59.9790000  0  7 30 17 26  6 23 22 10
  16513275.566   -32258579.63849 -25116964.83449  16513276.1274   16513282.3224
  15298185.907   -49777508.73149 -37410410.62649  15298184.7674   15298192.5104
  17205313.852   -24223996.71749 -18858096.85849  17205314.1294   17205321.9824
  14162827.400   -52963388.08349 -41256127.93549  14162827.1994   14162833.6874
  16922314.902   -20134351.85849 -15662917.73149  16922313.9164   16922322.3674
  17851432.222   -14491658.63649 -11264500.41149  17851431.0914   17851438.6994
  17081978.137   -35882972.80649 -27924059.91049  17081976.9334   17081983.5824
 97  3 19  3 42 29.9790000  0  7 30 17 26  6 23 22 10
  16518253.139   -32232422.51949 -25096582.67449  16518253.4614   16518259.9604
  15275854.412   -49894861.29449 -37501854.16049  15275853.7074   15275860.8664
  17178920.310   -24362695.96649 -18966174.17849  17178920.1614   17178927.8784
  14147912.066   -53041768.73149 -41317203.76349  14147911.5954   14147918.5004
  16890265.335   -20302773.39649 -15794155.25149  16890265.2334   16890273.2104
  17824748.181   -14631884.08249 -11373766.97649  17824746.6554   17824755.4434
  17085582.268   -35864033.00149 -27909301.61949  17085581.5784   17085588.7444
 97  3 19  3 42 59.9790000  0  7 30 17 26  6 23 22 10
  16523276.677   -32206023.52649 -25076012.04149  16523276.8134   16523283.9124
  15253570.806   -50011962.83949 -37593102.10049  15253570.2834   15253577.5724
  17152587.497   -24501075.81449 -19074002.61449  17152588.5804   17152594.9514
  14133074.731   -53119739.41449 -41377960.14349  14133074.5364   14133080.9894
  16858264.825   -20470937.33849 -15925192.05349  16858264.3364   16858272.0864
  17798147.992   -14771668.75349 -11482690.07949  17798147.2994   17798154.7784
  17089239.348   -35844814.86949 -27894326.44249  17089238.5364   17089245.8034
 97  3 19  3 43 29.9790000  0  7 30 17 26  6 23 22 10
  16528342.712   -32179401.33649 -25055267.48749  16528343.0064   16528349.5544
  15231330.452   -50128836.93949 -37684172.80249  15231329.5504   15231337.3484
  17126309.941   -24639165.37649 -19181604.84549  17126309.7324   17126318.0964
  14118306.501   -53197346.88549 -41438433.49449  14118306.0404   14118312.9074
  16826308.523   -20638869.12049 -16056047.95149  16826307.7504   16826315.6174
  17771626.535   -14911039.85949 -11591290.91849  17771625.6204   17771633.6964
  17092941.790   -35825358.01049 -27879165.24549  17092940.6734   17092947.5554
 97  3 19  3 43 59.9790000  0  7 30 17 26  6 23 22 10
  16533465.900   -32152478.91849 -25034288.99249  16533465.8604   16533472.8674
  15209148.614   -50245403.06149 -37775003.53449  15209147.5164   15209155.1234
  17100107.345   -24776861.14649 -19288900.23149  17100106.5534   17100115.5304
  14103624.563   -53274500.93849 -41498553.53949  14103624.2144   14103630.7444
  16794411.758   -20806488.00849 -16186660.04149  16794411.2714   16794419.1274
  17745199.219   -15049916.36049 -11699506.36649  17745197.8054   17745206.5344
  17096700.167   -35805607.28649 -27863775.06849  17096699.9214   17096706.3074
 97  3 19  3 44 29.9790000  0  7 30 17 26  6 23 22 10
  16538645.679   -32125258.70149 -25013078.44749  16538645.1344   16538652.7094
  15187025.603   -50361659.92449 -37865593.28149  15187024.7224   15187032.3524
  17073982.914   -24914145.99949 -19395875.42049  17073982.5784   17073990.8474
  14089035.000   -53351169.29149 -41558295.12049  14089034.5144   14089041.5174
  16762575.053   -20973791.46749 -16317026.33149  16762574.5414   16762582.0464
  17718864.995   -15188304.10049 -11807340.96849  17718864.3354   17718872.2814
  17100515.213   -35785559.06849 -27848153.07149  17100514.3604   17100521.3644
 97  3 19  3 44 59.9790000  0  7 30 17 26  6 23 22 10
  16543861.057   -32097851.61549 -24991722.28649  16543860.7444   16543868.5284
  15164943.884   -50477700.19549 -37956014.25249  15164943.1184   15164950.5184
  17047919.554   -25051109.95549 -19502600.56149  17047919.7614   17047927.7934
  14074522.631   -53427432.06349 -41617720.65749  14074522.3414   14074529.1334
  16730781.863   -21140865.73449 -16447214.03749  16730780.6524   16730788.9714
  17692608.236   -15326284.32549 -11914858.02349  17692607.2234   17692614.5654
  17104371.812   -35765292.46849 -27832360.91849  17104370.6214   17104378.2404
 97  3 19  3 45 29.9790000  0  7 30 17 26  6 23 22 10
  16549108.308   -32070277.40849 -24970235.89849  16549108.5514   16549115.3224
  15142900.988   -50593536.10049 -38046275.98549  15142900.2484   15142907.8424
  17021914.799   -25187765.99049 -19609085.76949  17021914.8644   17021922.7314
  14060087.064   -53503291.68649 -41676832.04949  14060087.0644   14060093.5994
  16699033.662   -21307703.41749 -16577217.37949  16699032.7804   16699040.4904
  17666430.250   -15463850.63649 -12022052.55249  17666428.4464   17666436.4174
  17108269.376   -35744810.69249 -27816401.09949  17108268.7924   17108275.4484
 97  3 19  3 45 59.9790000  0  7 30 17 26  6 23 22 10
  16554408.672   -32042423.77749 -24948531.77549  16554408.7614   16554415.8044
  15120917.017   -50709062.66849 -38136296.67749  15120916.6174   15120924.0814
  16995988.611   -25324008.99649 -19715249.14049  16995988.5124   16995995.9884
  14045752.974   -53578618.02049 -41735527.89249  14045752.7884   14045759.4594
  16667349.943   -21474202.24249 -16706956.69349  16667349.0644   16667357.3194
  17640351.713   -15600894.33249 -12128839.85649  17640351.5394   17640357.9544
  17112230.072   -35723997.46549 -27800183.00249  17112229.2004   17112235.8754
 97  3 19  3 46 29.9790000  0  7 30 17 26  6 23 22 10
  16559775.255   -32014222.36749 -24926556.65449  16559775.7064   16559783.1704
  15099007.473   -50824198.22949 -38226012.68449  15099006.5554   15099014.1584
  16970152.889   -25459776.34149 -19821041.86149  16970152.6984   16970161.1804
  14031534.909   -53653334.61449 -41793748.61949  14031534.6814   14031541.1364
  16635744.789   -21640287.95549 -16836374.09149  16635744.0144   16635752.1124
  17614387.832   -15737335.23449 -12235157.43749  17614387.0244   17614395.3944
  17116270.336   -35702765.88849 -27783638.92449  17116269.9834   17116276.7084
 97  3 19  3 46 59.9790000  0  7 30 17 26  6 23 22 10
  16565192.426   -31985755.13949 -24904374.40849  16565191.9364   16565199.1644
  15077155.763   -50939029.56949 -38315491.63049  15077154.8334   15077162.3394
  16944392.569   -25595147.70649 -19926526.01749  16944392.3414   16944399.7734
  14017412.128   -53727550.32949 -41851579.04349  14017411.8784   14017418.6524
  16604202.898   -21806041.16349 -16965532.41249  16604201.4414   16604209.7934
  17588523.555   -15873252.79449 -12341067.19949  17588522.7894   17588530.7444
  17120373.774   -35681202.47549 -27766836.26949  17120373.0924   17120380.2394
 97  3 19  3 47 29.9790000  0  7 30 17 26  6 23 22 10
  16570667.159   -31956985.11749 -24881956.22049  16570666.9264   16570674.7624
  15055367.105   -51053529.47049 -38404712.30749  15055366.3974   15055373.2994
  16918713.307   -25730093.00849 -20031678.18549  16918713.8284   16918720.5904
  14003387.599   -53801249.93949 -41909007.31049  14003387.3174   14003393.9864
  16572727.441   -21971445.35049 -17094418.75849  16572726.8004   16572734.9054
  17562760.784   -16008636.83749 -12446561.26049  17562759.5254   17562768.1104
  17124540.660   -35659305.39349 -27749773.61349  17124539.8484   17124547.7574
 97  3 19  3 47 59.9790000  0  7 30 17 26  6 23 22 10
  16576199.899   -31927910.08949 -24859300.36549  16576199.8064   16576206.8574
  15033643.403   -51167688.21949 -38493667.15949  15033642.2664   15033650.2214
  16893120.635   -25864583.64649 -20136476.07649  16893120.6364   16893127.7144
  13989462.751   -53874425.63349 -41966027.33349  13989462.3474   13989469.1334
  16541320.379   -22136490.16649 -17223025.07249  16541319.5534   16541327.5744
  17537098.348   -16143493.97149 -12551644.74849  17537097.9804   17537105.2974
  17128770.005   -35637080.43049 -27732455.48449  17128769.2604   17128776.2164
 97  3 19  3 48 29.9790000  0  7 30 17 26  6 23 22 10
  16581762.972   -31898675.74749 -24836520.37049  16581762.6654   16581770.0284
  15011959.466   -51281637.95449 -38582459.14149  15011958.8474   15011965.8994
  16867591.531   -25998740.48949 -20241013.86549  16867591.2704   16867599.7834
  13975609.362   -53947225.58449 -42022754.56449  13975609.1174   13975615.6694
  16509958.840   -22301295.64849 -17351444.90649  16509958.9234   16509966.4224
  17511510.255   -16277960.39149 -12656423.76849  17511509.2844   17511517.2214
  17133034.293   -35614670.97449 -27714993.60949  17133033.2084   17133040.8394
 97  3 19  3 48 59.9790000  0  7 30 17 26  6 23 22 10
  16587354.347   -31869292.96249 -24813624.68749  16587354.5734   16587361.1464
  14990312.799   -51395392.10749 -38671098.71249  14990311.6434   14990319.0264
  16842125.162   -26132566.89249 -20345294.15849  16842124.7104   16842132.3484
  13961823.976   -54019668.20349 -42079203.35149  13961823.3414   13961830.4894
  16478641.617   -22465868.40549 -17479683.38749  16478640.7444   16478649.1834
  17485993.472   -16412052.43349 -12760911.08149  17485992.6894   17486000.4304
  17137327.213   -35592111.75749 -27697415.01949  17137325.9664   17137332.8404
 97  3 19  3 49 29.9780000  0  7 30 17 26  6 23 22 10
  16592993.455   -31839659.64949 -24790533.80549  16592993.5504   16593000.3084
  14968726.589   -51508827.88349 -38759490.20549  14968725.6274   14968733.0964
  16816742.243   -26265954.89149 -20449232.83949  16816742.2724   16816749.9594
  13948132.524   -54091617.08049 -42135267.41049  13948132.0294   13948138.6404
  16447392.133   -22630085.21749 -17607644.50149  16447390.7684   16447399.9024
  17460570.616   -16545650.46449 -12865013.43549  17460569.6894   17460577.3444
  17141668.544   -35569297.85949 -27679637.96249  17141667.2314   17141674.6604
 97  3 19  3 49 59.9780000  0  7 30 17 26  6 23 22 10
  16598669.178   -31809833.86549 -24767292.93049  16598669.0414   16598677.0084
  14947190.347   -51622001.20549 -38847677.18149  14947189.2864   14947197.0044
  16791429.766   -26398972.64149 -20552882.99949  16791429.0264   16791436.1414
  13934526.634   -54163116.29849 -42190981.08549  13934526.1584   13934532.9314
  16416200.077   -22794000.74849 -17735370.85649  16416199.3124   16416207.8474
  17435233.717   -16678796.97949 -12968763.97749  17435232.7004   17435240.4224
  17146053.184   -35546256.42749 -27661683.60349  17146052.2654   17146059.6774
 97  3 19  3 50 29.9780000  0  7 30 17 26  6 23 22 10
  16604381.562   -31779815.28249 -24743901.84649  16604381.3764   16604388.1534
  14925705.835   -51734903.36949 -38935652.88149  14925704.9894   14925712.3034
  16766184.563   -26531636.88149 -20656257.71749  16766184.3124   16766191.3134
  13921007.746   -54234158.45849 -42246338.62549  13921007.6174   13921014.1204
  16385065.490   -22957614.23749 -17862861.86749  16385064.7264   16385072.9224
  17409987.269   -16811468.10149 -13072144.07749  17409986.9074   17409993.5974
  17150482.236   -35522981.65649 -27643547.41849  17150481.5494   17150488.2644
 97  3 19  3 50 59.9780000  0  7 30 17 26  6 23 22 10
  16610115.640   -31749682.40949 -24720421.69449  16610115.7164   16610123.5774
  14904254.471   -51847631.07249 -39023492.62949  14904253.5804   14904261.0014
  16740989.272   -26664039.08049 -20759428.24449  16740989.7244   16740996.8314
  13907561.859   -54304817.18149 -42301397.37449  13907561.7754   13907568.3114
  16353971.578   -23121013.77349 -17990186.14849  16353970.9124   16353978.8404
  17384815.196   -16943748.18549 -13175219.47049  17384814.5634   17384821.6074
  17154941.182   -35499549.59149 -27625288.66049  17154940.3024   17154947.4024
 97  3 19  3 51 29.9780000  0  7 30 17 26  6 23 22 10
  16615895.730   -31719308.06149 -24696753.38949  16615896.3444   16615903.1344
  14882859.437   -51960062.53849 -39111101.55249  14882858.3524   14882865.8274
  16715866.488   -26796060.30449 -20862301.89649  16715866.6064   16715873.8134
  13894213.057   -54374966.01649 -42356058.81249  13894212.6474   13894219.4084
  16322943.108   -23284069.49049 -18117242.52249  16322942.6924   16322950.8924
  17359741.460   -17075511.60449 -13277892.26449  17359741.1814   17359748.2934
  17159456.959   -35475818.98449 -27606797.27549  17159455.7164   17159463.3124
 97  3 19  3 51 59.9780000  0  7 30 17 26  6 23 22 10
  16621717.175   -31688716.47649 -24672915.80449  16621717.1754   16621724.4454
  14861516.864   -52072218.33849 -39198495.66149  14861516.1564   14861523.4044
  16690815.507   -26927704.13049 -20964881.49049  16690815.9194   16690822.5034
  13880955.184   -54444636.48449 -42410347.49149  13880954.7754   13880961.2904
  16291975.043   -23446807.83749 -18244051.59849  16291974.6414   16291981.7874
  17334763.172   -17206773.19449 -13380174.01749  17334762.3244   17334769.5204
  17164022.455   -35451827.03049 -27588102.23849  17164021.2554   17164028.8354
 97  3 19  3 52 29.9780000  0  7 30 17 26  6 23 22 10
  16627574.305   -31657937.12449 -24648931.90749  16627574.7004   16627581.6554
  14840222.686   -52184119.89749 -39285691.65349  14840221.4184   14840229.0404
  16665837.569   -27058964.05449 -21067161.92449  16665838.1704   16665845.2964
  13867785.240   -54513844.90749 -42464276.13449  13867784.9824   13867791.5734
  16261063.344   -23609250.25149 -18370630.07349  16261063.3104   16261070.9824
  17309877.149   -17337550.25349 -13482078.21749  17309876.5824   17309883.8924
  17168630.730   -35427610.16149 -27569231.95149  17168629.5454   17168637.2634
 97  3 19  3 52 59.9780000  0  7 30 17 26  6 23 22 10
  16633462.230   -31626995.88949 -24624821.85849  16633462.2344   16633469.3384
  14818972.024   -52295792.22749 -39372709.03149  14818971.1404   14818978.8054
  16640932.429   -27189841.70549 -21169144.49849  16640932.4324   16640939.9544
  13854698.343   -54582617.27649 -42517864.99749  13854698.1724   13854704.7464
  16230203.197   -23771421.58049 -18496997.31949  16230202.1954   16230210.6634
  17285076.634   -17467878.14149 -13583632.42049  17285075.6214   17285083.3144
  17173273.584   -35403211.63849 -27550220.12049  17173272.2214   17173279.3724
 97  3 19  3 53 29.9780000  0  7 30 17 26  6 23 22 10
  16639385.948   -31595866.33749 -24600565.07349  16639385.3534   16639392.9504
  14797773.022   -52407193.83049 -39459515.45249  14797772.0364   14797779.8804
  16616108.641   -27320291.84749 -21270793.94649  16616109.4074   16616116.1564
  13841698.444   -54650931.98749 -42571097.24549  13841698.0624   13841704.9614
  16199400.671   -23933290.00149 -18623128.52149  16199400.2294   16199407.4864
  17260369.986   -17597712.66649 -13684802.17449  17260369.6054   17260376.5794
  17177954.751   -35378611.62749 -27531051.29149  17177953.3004   17177961.1724
 97  3 19  3 53 59.9780000  0  7 30 17 26  6 23 22 10
  16645333.791   -31564609.88949 -24576209.41149  16645333.8354   16645341.3104
  14776614.448   -52518382.83649 -39546156.21149  14776613.3434   14776621.1174
  16591357.804   -27450358.73449 -21372144.74749  16591357.6424   16591364.5004
  13828775.408   -54718843.29949 -42624015.15649  13828775.3884   13828781.9364
  16168644.872   -24094912.56549 -18749068.15449  16168644.1014   16168652.1824
  17235747.369   -17727105.51949 -13785627.76849  17235746.3914   17235753.4884
  17182662.278   -35353872.99249 -27511774.45149  17182660.8814   17182668.7194
 97  3 19  3 54 29.9780000  0  7 30 17 26  6 23 22 10
  16651327.889   -31533110.56749 -24551664.49249  16651327.9464   16651335.4194
  14755514.684   -52629262.64049 -39632556.04249  14755513.6504   14755521.4044
  16566698.341   -27579945.02749 -21473121.07749  16566698.6634   16566705.2154
  13815948.832   -54786247.79949 -42676538.14849  13815948.6484   13815955.4704
  16137957.610   -24256175.15149 -18874727.28849  16137956.5354   16137964.6644
  17211225.477   -17855968.80349 -13886040.71549  17211224.0584   17211232.0364
  17187418.651   -35328877.68249 -27492297.59549  17187417.4784   17187424.7704
 97  3 19  3 54 59.9780000  0  7 30 17 26  6 23 22 10
  16657373.961   -31501338.43349 -24526906.99349  16657373.7704   16657381.1824
  14734477.009   -52739816.04149 -39718701.53049  14734475.8954   14734483.7404
  16542132.167   -27709041.26949 -21573715.52649  16542132.4704   16542139.2524
  13803220.973   -54853133.30449 -42728656.72849  13803220.8394   13803227.1964
  16107344.922   -24417045.94849 -19000081.11949  16107344.6674   16107352.6114
  17186807.058   -17984288.49249 -13986030.07549  17186805.9024   17186813.4244
  17192228.035   -35303604.07249 -27472603.88049  17192227.0794   17192234.7084
 97  3 19  3 55 29.9780000  0  7 30 17 26  6 23 22 10
  16663463.694   -31469336.94049 -24501970.77349  16663463.9944   16663470.7304
  14713496.446   -52850069.68749 -39804613.45549  14713495.7594   14713503.0854
  16517653.677   -27837676.35049 -21673950.63349  16517653.6364   16517660.5144
  13790587.124   -54919525.03949 -42780390.55749  13790586.8954   13790593.3464
  16076803.348   -24577543.47049 -19125144.09849  16076802.8914   16076810.3214
  17162488.843   -18112081.23449 -14085608.82649  17162486.9784   17162494.6144
  17197087.124   -35278069.37349 -27452706.71249  17197086.0554   17197093.8034
 97  3 19  3 55 59.9780000  0  7 30 17 26  6 23 22 10
  16669592.541   -31437129.79549 -24476874.29749  16669592.5614   16669599.0004
  14692570.939   -52960033.90349 -39890299.84749  14692570.2154   14692577.4674
  16493258.500   -27965873.86549 -21773844.78249  16493258.2354   16493265.4694
  13778044.491   -54985436.89649 -42831750.45249  13778044.1494   13778050.8134
  16046329.534   -24737684.78049 -19249929.51449  16046328.9284   16046336.7934
  17138267.196   -18239366.15349 -14184791.87549  17138266.3854   17138272.9724
  17201991.482   -35252297.09049 -27432624.41549  17201990.6304   17201998.3824
 97  3 19  3 56 29.9780000  0  7 30 17 26  6 23 22 10
  16675747.041   -31404787.87549 -24451672.80949  16675746.7314   16675753.9854
  14671689.341   -53069767.40649 -39975806.46049  14671688.6214   14671696.0424
  16468935.556   -28093691.71649 -21873443.08449  16468934.7844   16468942.4424
  13765581.765   -55050928.89549 -42882783.18249  13765581.3564   13765588.0204
  16015912.804   -24897525.59149 -19374480.76149  16015912.3154   16015919.9044
  17114132.105   -18366196.61149 -14283620.80049  17114131.0844   17114138.4154
  17206929.743   -35226346.58049 -27412403.23449  17206928.8114   17206936.5864
 97  3 19  3 56 59.9780000  0  7 30 17 26  6 23 22 10
  16681923.474   -31372330.33349 -24426381.22749  16681923.4154   16681930.4394
  14650851.955   -53179268.92249 -40061132.30749  14650851.4874   14650858.5964
  16444684.438   -28221131.86749 -21972747.08649  16444683.9124   16444691.6994
  13753199.485   -55115997.92849 -42933486.32749  13753198.7294   13753205.8084
  15985552.441   -25057070.34749 -19498801.31949  15985551.6434   15985559.4534
  17090088.031   -18492548.69849 -14382076.96249  17090087.3694   17090094.7324
  17211900.160   -35200226.99849 -27392050.30849  17211898.7704   17211906.3164
 97  3 19  3 57 29.9780000  0  7 30 17 26  6 23 22 10
  16688119.071   -31339772.05749 -24401011.14449  16688118.8664   16688126.3154
  14630058.369   -53288540.37149 -40146278.87949  14630057.5224   14630064.9214
  16420502.700   -28348207.55249 -22071767.06749  16420502.9824   16420509.4104
  13740896.237   -55180651.73249 -42983865.91349  13740895.7864   13740902.6834
  15955245.945   -25216332.07149 -19622901.34349  15955245.1444   15955253.1194
  17066136.200   -18618416.65549 -14480155.89049  17066134.6714   17066142.5064
  17216901.580   -35173944.33249 -27371570.29949  17216900.5684   17216907.9314
 97  3 19  3 57 59.9780000  0  7 30 17 26  6 23 22 10
  16694356.242   -31306995.34549 -24375470.84149  16694355.8084   16694363.9034
  14609327.152   -53397483.59149 -40231169.68349  14609326.3644   14609333.7404
  16396409.447   -28474818.23249 -22170424.72549  16396409.2924   16396416.5874
  13728693.953   -55244774.98049 -43033832.08349  13728693.4534   13728700.2734
  15925013.118   -25375206.67949 -19746699.71149  15925012.3634   15925020.1144
  17042295.872   -18743698.16149 -14577777.84149  17042295.1454   17042301.6094
  17221954.707   -35147390.25749 -27350878.80949  17221953.7204   17221960.7154
 97  3 19  3 58 29.9780000  0  7 30 17 26  6 23 22 10
  16700639.816   -31273974.59749 -24349740.39849  16700639.8184   16700646.8684
  14588661.413   -53506082.78949 -40315792.42949  14588660.8904   14588667.6454
  16372411.340   -28600929.13049 -22268692.94249  16372411.7754   16372418.8154
  13716601.081   -55308323.65049 -43083350.53449  13716600.9654   13716607.4274
  15894859.174   -25533666.89649 -19870175.19249  15894859.1184   15894865.8534
  17018571.755   -18868369.25949 -14674924.14849  17018570.8894   17018577.5414
  17227064.727   -35120536.89749 -27329954.10849  17227063.8624   17227070.7144
 97  3 19  3 58 59.9780000  0  7 30 17 26  6 23 22 10
  16706965.249   -31240733.90949 -24323838.55849  16706965.2594   16706972.9834
  14568055.752   -53614366.78149 -40400169.55049  14568055.3154   14568062.0044
  16348501.683   -28726575.38049 -22366599.09349  16348501.8284   16348508.8994
  13704610.896   -55371332.64449 -43132448.45449  13704610.6154   13704617.3714
  15864776.419   -25691752.92949 -19993359.09449  15864775.6944   15864783.2254
  16994956.035   -18992470.54949 -14771626.45549  16994955.2774   16994962.6614
  17232222.209   -35093434.35649 -27308835.24349  17232221.7014   17232228.0894
 97  3 19  3 59 29.9780000  0  7 30 17 26  6 23 22 10
  16713348.740   -31207188.30849 -24297699.13349  16713348.4704   16713355.9764
  14547524.510   -53722259.63449 -40484241.89449  14547523.7894   14547530.6514
  16324697.116   -28851669.20049 -22464074.76249  16324697.3174   16324705.4534
  13692737.149   -55433729.76749 -43181069.59049  13692736.5864   13692743.5064
  15834779.490   -25849387.66149 -20116191.32049  15834778.9414   15834786.1824
  16971459.990   -19115943.49849 -14867839.13549  16971458.5944   16971466.8674
  17237441.501   -35066007.15649 -27287463.38949  17237441.5084   17237447.5124
 97  3 19  3 59 59.9780000  0  7 30 17 26  6 23 22 10
  16719765.801   -31173466.34549 -24271422.28049  16719765.6774   16719772.9334
  14527042.776   -53829891.86249 -40568111.15049  14527041.7584   14527048.8944
  16300978.349   -28976311.67649 -22561198.74749  16300977.5284   16300985.3084
  13680957.480   -55495632.13449 -43229305.20249  13680957.1704   13680963.9024
  15804844.617   -26006696.53049 -20238769.63949  15804843.4054   15804850.7434
  16948057.084   -19238926.71449 -14963670.21449  16948056.3154   16948062.9264
  17242696.039   -35038395.05749 -27265947.45949  17242695.6704   17242702.2194
 97  3 19  4  0 29.9770000  0  7 30 17 26  6 23 22 10
  16726198.552   -31139661.96249 -24245081.20149  16726198.1144   16726206.3904
  14506596.782   -53937335.76349 -40651833.65649  14506595.6734   14506603.0184
  16277333.403   -29100566.51649 -22658020.67649  16277333.3774   16277340.1684
  13669254.822   -55557130.16449 -43277225.74749  13669254.5324   13669261.2634
  15774959.192   -26163744.97049 -20361145.02549  15774958.1144   15774966.0404
  16924735.132   -19361484.62049 -15059169.86749  16924733.6614   16924741.5474
  17247969.791   -35010682.14949 -27244352.99549  17247969.1094   17247975.3194
 97  3 19  4  0 59.9770000  0  7 30 17 26  6 23 22 10
  16732648.818   -31105765.29749 -24218668.22349  16732649.3484   16732656.2834
  14486188.443   -54044582.15749 -40735402.26149  14486187.3914   14486194.6784
  16253763.601   -29224426.33849 -22754534.81049  16253763.5444   16253771.5654
  13657629.525   -55618221.51049 -43324829.39749  13657628.9704   13657635.7274
  15745126.976   -26320514.00849 -20483302.69249  15745126.0364   15745133.7334
  16901497.019   -19483601.68349 -15154326.02249  16901495.8484   16901503.7174
  17253267.614   -34982842.78849 -27222660.00149  17253266.8324   17253273.0824
 97  3 19  4  1 29.9770000  0  7 30 17 26  6 23 22 10
  16739144.438   -31071630.40749 -24192069.60249  16739143.9624   16739151.8164
  14465849.570   -54151463.27449 -40818686.23049  14465848.9314   14465856.0074
  16230305.164   -29347701.17449 -22850593.09549  16230305.1444   16230312.1434
  13646117.721   -55678716.17349 -43371968.09849  13646117.4194   13646124.0674
  15715383.408   -26476817.00849 -20605097.21649  15715381.7984   15715390.5404
  16878376.811   -19605098.96349 -15248999.20749  16878375.8244   16878383.8544
  17258622.430   -34954704.01949 -27200733.71049  17258621.8454   17258628.1104
 97  3 19  4  1 59.9770000  0  7 30 17 26  6 23 22 10
  16745670.306   -31037336.69049 -24165347.23149  16745670.9234   16745677.6914
  14445568.572   -54258040.69349 -40901733.55549  14445567.4624   14445574.8024
  16206945.658   -29470456.49049 -22946246.57149  16206945.7654   16206953.0174
  13634710.112   -55738663.64349 -43418680.41849  13634709.6274   13634716.4964
  15685717.040   -26632714.30449 -20726575.60249  15685715.9254   15685723.7274
  16855363.853   -19726032.56249 -15343233.17349  16855362.8554   16855370.2704
  17264022.985   -34926324.14249 -27178619.54149  17264021.4074   17264028.7954
 97  3 19  4  2 29.9770000  0  7 30 17 26  6 23 22 10
  16752200.033   -31003023.25749 -24138609.48649  16752200.6734   16752207.5684
  14425320.417   -54364444.97049 -40984645.96449  14425319.3294   14425327.0114
  16183656.877   -29592839.91349 -23041610.26049  16183657.0474   16183664.6924
  13623379.332   -55798207.08549 -43465077.90549  13623379.0914   13623385.7954
  15656103.518   -26788334.04149 -20847837.70949  15656102.3664   15656110.5274
  16832432.680   -19846537.01249 -15437132.72249  16832430.6814   16832438.9164
  17269444.010   -34897835.78549 -27156420.83749  17269441.1754   17269449.7704
 97  3 19  4  2 59.9770000  0  7 30 17 26  6 23 22 10
  16758763.451   -30968532.72049 -24111733.75349  16758763.4894   16758770.7054
  14405136.865   -54470510.12049 -41067294.12649  14405136.1324   14405143.2224
  16160470.446   -29714685.75149 -23136555.04549  16160470.4094   16160478.2224
  13612156.904   -55857181.32849 -43511031.86249  13612156.6304   13612163.2064
  15626571.260   -26943526.50149 -20968766.87349  15626570.2614   15626578.0154
  16809610.974   -19966465.44249 -15530583.44049  16809610.2394   16809617.7254
  17274913.140   -34869094.27949 -27134024.87349  17274911.6084   17274919.2974
 97  3 19  4  3 29.9770000  0  7 30 17 26  6 23 22 10
  16765346.529   -30933938.90749 -24084777.54149  16765346.6024   16765353.5704
  14385001.778   -54576321.01849 -41149744.16749  14385000.8714   14385007.8644
  16137370.289   -29836077.65549 -23231146.12549  16137370.8914   16137377.8824
  13601024.946   -55915680.50749 -43556615.64149  13601024.5574   13601031.1514
  15597101.103   -27098392.85449 -21089441.92449  15597100.1824   15597108.2824
  16786880.367   -20085915.79749 -15623661.62849  16786880.1854   16786887.0344
  17280412.608   -34840193.25249 -27111504.61649  17280411.3004   17280419.2694
 97  3 19  4  3 59.9770000  0  7 30 17 26  6 23 22 10
  16771946.487   -30899256.47749 -24057752.27249  16771946.8634   16771953.1414
  14364907.627   -54681916.38849 -41232026.26749  14364906.8924   14364914.0894
  16114347.819   -29957062.00649 -23325419.62549  16114348.2694   16114354.8664
  13589974.065   -55973753.40949 -43601867.25949  13589973.9374   13589980.0094
  15567686.591   -27252966.88649 -21209889.19549  15567685.7154   15567693.5094
  16764236.502   -20204910.57149 -15716384.80849  16764234.7924   16764242.6424
  17285936.525   -34811163.69449 -27088884.19649  17285935.0364   17285943.0184
 97  3 19  4  4 29.9770000  0  7 30 17 26  6 23 22 10
  16778592.355   -30864332.42449 -24030538.73149  16778592.6324   16778599.8484
  14344881.841   -54787152.56449 -41314028.47549  14344880.9364   14344888.0714
  16091431.869   -30077486.40449 -23419256.80849  16091431.4144   16091439.5874
  13579031.258   -56031258.17449 -43646676.17749  13579030.9424   13579037.5684
  15538357.493   -27407092.18049 -21329986.80549  15538356.7794   15538364.9424
  16741710.641   -20323284.60049 -15808624.28449  16741709.7954   16741716.7374
  17291509.700   -34781875.90849 -27066062.55149  17291508.6584   17291516.7084
 97  3 19  4  4 59.9770000  0  7 30 17 26  6 23 22 10
  16785261.615   -30829285.43649 -24003229.39649  16785261.6954   16785268.7464
  14324899.474   -54892160.58849 -41395852.89749  14324898.6294   14324905.7694
  16068600.327   -30197466.98449 -23512748.15249  16068600.1204   16068606.7874
  13568173.989   -56088313.37549 -43691134.77949  13568173.6894   13568180.4034
  15509089.320   -27560897.47949 -21449835.06449  15509088.2524   15509096.6184
  16719282.672   -20441144.40449 -15900463.08349  16719282.2324   16719288.1514
  17297108.015   -34752456.33649 -27043138.20249  17297106.7724   17297114.5584
 97  3 19  4  5 29.9770000  0  7 30 17 26  6 23 22 10
  16791950.163   -30794137.06949 -23975841.05649  16791950.2754   16791956.1934
  14304952.352   -54996983.11149 -41477532.78149  14304951.3684   14304958.8364
  16045846.104   -30317040.43849 -23605922.25349  16045845.6024   16045853.8244
  13557396.297   -56144950.30849 -43735267.45849  13557396.0304   13557402.6414
  15479877.917   -27714404.16849 -21569450.63949  15479876.8944   15479885.2704
  16696948.495   -20558511.10849 -15991917.63849  16696947.4844   16696954.5004
  17302726.711   -34722929.38649 -27020130.18949  17302725.2434   17302733.0634
 97  3 19  4  5 59.9770000  0  7 30 17 26  6 23 22 10
  16798671.793   -30758814.62349 -23948317.07949  16798671.7724   16798678.3424
  14285060.475   -55101515.34049 -41558986.45149  14285059.2994   14285067.1124
  16023190.321   -30436096.66249 -23698693.30849  16023190.0164   16023197.5644
  13546719.660   -56201056.35449 -43778986.45549  13546719.2514   13546726.0224
  15450744.091   -27867503.44049 -21688748.74549  15450742.9134   15450751.3494
  16674729.104   -20675275.11349 -16082902.55649  16674727.5264   16674735.1264
  17308382.064   -34693210.24449 -26996972.41149  17308381.0674   17308388.9504
 97  3 19  4  6 29.9770000  0  7 30 17 26  6 23 22 10
  16805430.394   -30723297.69949 -23920641.55649  16805429.8134   16805438.0414
  14265232.354   -55205712.72049 -41640179.21549  14265231.6264   14265238.6624
  16000642.741   -30554584.93549 -23791021.81049  16000642.6264   16000649.6994
  13536151.523   -56256592.44749 -43822261.33949  13536151.5974   13536157.8564
  15421692.545   -28020170.17449 -21807709.81549  15421691.8254   15421699.6524
  16652627.498   -20791419.79949 -16173404.90349  16652626.7364   16652634.0014
  17314080.769   -34663263.32849 -26973637.15549  17314079.4624   17314087.3694
 97  3 19  4  6 59.9770000  0  7 30 17 26  6 23 22 10
  16812207.566   -30687683.10949 -23892889.92449  16812207.6714   16812214.4374
  14245450.755   -55309665.50849 -41721181.37549  14245449.9104   14245457.1304
  15978185.630   -30672597.73849 -23882979.82149  15978185.9824   15978193.3024
  13525674.465   -56311650.37049 -43865163.61749  13525674.2714   13525680.5974
  15392703.452   -28172508.79649 -21926415.20949  15392703.2134   15392710.9594
  16630620.484   -20907067.40349 -16263519.89449  16630618.7624   16630626.7314
  17319807.910   -34633166.85449 -26950185.35249  17319806.7274   17319814.8274
 97  3 19  4  7 29.9770000  0  7 30 17 26  6 23 22 10
  16819020.909   -30651878.69849 -23864990.38549  16819020.7244   16819028.0504
  14225737.606   -55413258.79249 -41801903.40749  14225736.7874   14225744.0644
  15955838.428   -30790033.13849 -23974487.92049  15955837.9534   15955845.4594
  13515311.124   -56366110.20249 -43907599.86049  13515310.8654   13515317.3784
  15363799.959   -28324397.61549 -22044770.11149  15363799.6534   15363807.3034
  16608725.814   -21022124.22449 -16353174.56549  16608724.9794   16608731.8484
  17325585.390   -34602806.04549 -26926527.58249  17325584.2684   17325592.0454
 97  3 19  4  7 59.9770000  0  7 30 17 26  6 23 22 10
  16825830.322   -30616094.36249 -23837106.48949  16825830.0904   16825837.4194
  14206056.709   -55516682.40949 -41882493.22349  14206055.8324   14206063.2984
  15933563.615   -30907087.84949 -24065699.37249  15933563.4944   15933570.8554
  13505025.158   -56420163.34749 -43949719.19749  13505025.1064   13505031.3764
  15334945.752   -28476027.34349 -22162923.12349  15334944.9884   15334952.9244
  16586907.175   -21136781.52849 -16442517.90249  16586906.8334   16586914.0284
  17331376.480   -34572373.81149 -26902814.15349  17331375.7484   17331383.6294
 97  3 19  4  8 29.9770000  0  7 30 17 26  6 23 22 10
  16832638.773   -30580315.67649 -23809226.98849  16832638.9774   16832645.8894
  14186408.991   -55619931.78049 -41962947.26749  14186408.1244   14186415.4184
  15911360.277   -31023767.20549 -24156618.33749  15911360.7744   15911368.0384
  13494816.763   -56473809.05749 -43991521.05549  13494816.4834   13494822.7394
  15306144.180   -28627380.82149 -22280860.87549  15306143.5974   15306151.8854
  16565168.372   -21251019.52149 -16531534.50149  16565167.2934   16565174.2504
  17337185.526   -34541847.58349 -26879027.48149  17337184.6474   17337192.2764
 97  3 19  4  8 59.9770000  0  7 30 17 26  6 23 22 10
  16839485.542   -30544336.07849 -23781190.93349  16839485.2774   16839492.6664
  14166833.271   -55722802.80949 -42043106.49349  14166832.1264   14166839.8704
  15889265.246   -31139877.65749 -24247093.98849  15889265.4704   15889272.4244
  13484725.039   -56526841.35549 -44032844.92449  13484724.3904   13484731.0604
  15277438.037   -28778232.64349 -22398407.71449  15277437.5104   15277445.2684
  16543552.628   -21364611.06749 -16620047.38549  16543552.0174   16543559.4484
  17343048.162   -34511039.75349 -26855021.38549  17343047.2684   17343054.2474
 97  3 19  4  9 29.9770000  0  7 30 17 26  6 23 22 10
  16846364.941   -30508185.14449 -23753021.37449  16846364.9744   16846372.2644
  14147322.889   -55825330.51149 -42122998.19949  14147322.2934   14147329.6134
  15867273.662   -31255444.26849 -24337145.86949  15867273.1154   15867280.9804
  13474744.230   -56579290.69649 -44073714.54649  13474743.7894   13474750.4894
  15248824.186   -28928599.60249 -22515576.75249  15248823.3694   15248831.2224
  16522060.973   -21477550.40249 -16708052.04349  16522060.3164   16522067.9014
  17348956.356   -34479992.31549 -26830828.59849  17348955.8184   17348963.3584
 97  3 19  4  9 59.9770000  0  7 30 17 26  6 23 22 10
  16853250.265   -30472003.07449 -23724827.54349  16853249.7084   16853257.6344
  14127850.957   -55927656.18949 -42202732.48049  14127850.2634   14127857.4234
  15845360.773   -31370597.32849 -24426875.51549  15845361.1354   15845367.5554
  13464844.510   -56631313.74049 -44114251.98449  13464844.1024   13464850.8664
  15220273.168   -29078636.16549 -22632488.33749  15220272.3654   15220279.7494
  16500668.310   -21589969.30249 -16795651.17349  16500666.9764   16500674.7004
  17354880.611   -34448860.86149 -26806570.33049  17354880.0774   17354886.9784
 97  3 19  4 10 29.9770000  0  7 30 17 26  6 23 22 10
  16860131.966   -30435839.65049 -23696648.24449  16860132.1034   16860139.4994
  14108407.404   -56029832.72449 -42282350.54449  14108406.5034   14108413.9624
  15823518.342   -31485379.87049 -24516316.44449  15823518.3764   15823525.7614
  13455015.712   -56682964.23049 -44154499.12249  13455015.6764   13455022.0244
  15191772.368   -29228408.69849 -22749194.18949  15191771.9954   15191779.4844
  16479361.732   -21701936.09749 -16882898.01949  16479360.6064   16479368.1934
  17360807.217   -34417717.28649 -26782302.63049  17360806.2244   17360812.3394
 97  3 19  4 10 59.9770000  0  7 30 17 26  6 23 22 10
  16867040.570   -30399534.96849 -23668358.87849  16867040.2814   16867047.5214
  14089022.052   -56131703.21149 -42361730.13249  14089021.1444   14089028.3014
  15801779.300   -31599619.60949 -24605334.41449  15801779.1364   15801786.6934
  13445289.750   -56734074.74949 -44194325.51049  13445289.4504   13445295.8834
  15163350.176   -29377768.13049 -22865578.14149  15163349.3324   15163357.5154
  16458168.310   -21813307.98549 -16969681.30349  16458167.6184   16458174.7874
  17366763.694   -34386416.29449 -26757912.26249  17366762.2914   17366770.0264
 97  3 19  4 11 29.9760000  0  7 30 17 26  6 23 22 10
  16873961.551   -30363165.34349 -23640018.89949  16873961.4104   16873968.6894
  14069681.988   -56233335.84349 -42440924.37649  14069681.2024   14069688.5574
  15780134.406   -31713364.28249 -24693966.60849  15780134.6004   15780141.2264
  13435654.230   -56784709.55749 -44233781.20449  13435653.9404   13435660.8074
  15134993.184   -29526784.67249 -22981694.90849  15134992.3234   15135000.7464
  16437071.950   -21924170.37049 -17056067.57749  16437071.1624   16437079.1734
  17372738.892   -34355016.18549 -26733444.66449  17372737.2744   17372745.2064
 97  3 19  4 11 59.9760000  0  7 30 17 26  6 23 22 10
  16880918.386   -30326607.00149 -23611531.87649  16880917.9744   16880925.0254
  14050412.603   -56334596.82649 -42519829.02849  14050411.6224   14050419.0674
  15758605.812   -31826497.49949 -24782122.34849  15758605.5744   15758612.6444
  13426132.054   -56834749.12349 -44272773.07749  13426131.6324   13426138.2734
  15106723.017   -29675345.36649 -23097456.46849  15106722.6144   15106729.7444
  16416090.280   -22034430.14349 -17141984.28249  16416089.9174   16416097.7024
  17378757.309   -34323388.61749 -26708799.84749  17378754.5594   17378763.9204
 97  3 19  4 12 29.9760000  0  7 30 17 26  6 23 22 10
  16887902.031   -30289907.76649 -23582935.07349  16887902.4484   16887908.2444
  14031202.683   -56435545.48849 -42598490.31149  14031202.0014   14031209.0034
  15737184.535   -31939066.96649 -24869838.79049  15737184.7744   15737191.6904
  13416716.145   -56884229.98349 -44311329.59749  13416715.8414   13416722.3364
  15078532.989   -29823485.41349 -23212890.24749  15078532.5294   15078539.8624
  16395215.769   -22144126.15349 -17227461.68849  16395215.5784   16395222.3954
  17384809.489   -34291582.89149 -26684016.17749  17384807.2184   17384815.6934
 97  3 19  4 12 59.9760000  0  7 30 17 26  6 23 22 10
  16894901.422   -30253125.42049 -23554273.49249  16894901.7634   16894908.6994
  14012040.357   -56536244.26949 -42676956.88549  14012039.6274   14012046.7994
  15715860.135   -32051127.55549 -24957158.71749  15715860.1464   15715867.3094
  13407396.756   -56933203.61149 -44349490.86949  13407396.6124   13407403.1164
  15050414.844   -29971247.13049 -23328029.22949  15050414.0654   15050422.0454
  16374441.201   -22253297.64149 -17312530.38149  16374441.7004   16374447.0514
  17390887.104   -34259644.13549 -26659128.83549  17390885.6304   17390894.4024
 97  3 19  4 13 29.9760000  0  7 30 17 26  6 23 22 10
  16901917.698   -30216254.44049 -23525542.85649  16901917.6564   16901924.6984
  13992927.032   -56636685.38349 -42755222.67149  13992926.2994   13992933.4034
  15694631.456   -32162685.27549 -25044086.79249  15694630.9134   15694638.9064
  13398170.396   -56981688.39549 -44387271.22649  13398169.9604   13398176.4634
  15022369.483   -30118626.37549 -23442870.17749  15022368.8704   15022376.3074
  16353768.095   -22361935.51249 -17397183.27549  16353766.6934   16353774.0084
  17396991.457   -34227565.12549 -26634132.19849  17396990.3344   17396998.1114
 97  3 19  4 13 59.9760000  0  8 30 21 17 26  6 23 22 10
  16908949.532   -30179302.04549 -23496748.77849  16908950.1574   16908957.5634
  17989128.287    -7499951.81249  -5396446.83249  17989127.3864   17989137.4014
  13973862.614   -56736869.51649 -42833288.21449  13973861.9274   13973868.9514
  15673496.765   -32273748.98349 -25130629.92249  15673496.5344   15673503.5974
  13389035.958   -57029689.85649 -44424674.96549  13389035.4644   13389042.3284
  14994394.820   -30265634.04549 -23557421.58549  14994393.9474   14994401.8224
  16333199.680   -22470023.30849 -17481407.53049  16333198.6524   16333205.6774
  17403118.926   -34195364.75049 -26609040.98349  17403117.6724   17403125.2544
 97  3 19  4 14 29.9760000  0  8 30 21 17 26  6 23 22 10
  16916008.738   -30142205.96749 -23467842.74849  16916008.8914   16916015.7844
  17956665.346    -7670545.49349  -5529376.92749  17956664.3304   17956674.3684
  13954855.627   -56836751.95049 -42911118.67149  13954854.8454   13954862.1014
  15652470.172   -32384244.65049 -25216730.42749  15652470.2904   15652477.0484
  13380005.511   -57077145.12849 -44461653.10149  13380005.3254   13380012.0824
  14966502.687   -30412207.92949 -23671634.97949  14966502.0664   14966510.1054
  16312748.686   -22577494.24249 -17565151.12849  16312747.8904   16312754.6344
  17409279.896   -34162988.06749 -26583812.38949  17409278.6474   17409286.8184
 97  3 19  4 14 59.9760000  0  8 30 21 17 26  6 23 22 10
  16923096.273   -30104960.81549 -23438820.54549  16923096.4344   16923102.2964
  17924241.101    -7840935.81749  -5662148.56549  17924240.3674   17924249.3684
  13935911.536   -56936304.05749 -42988691.73849  13935910.9304   13935918.0224
  15631554.406   -32494158.08249 -25302377.23849  15631554.3104   15631561.5704
  13371079.803   -57124050.06749 -44498202.41549  13371079.6344   13371086.3724
  14938695.191   -30558337.30849 -23785502.02249  14938694.4874   14938702.1784
  16292413.738   -22684354.54949 -17648418.88049  16292412.2484   16292420.8804
  17415477.244   -34130420.27149 -26558434.87849  17415475.7774   17415484.3114
 97  3 19  4 15 29.9760000  0  8 30 21 17 26  6 23 22 10
  16930177.848   -30067747.14549 -23409822.88149  16930177.5624   16930184.3034
  17891821.648    -8011300.71049  -5794900.38349  17891820.9304   17891830.6074
  13916999.842   -57035686.07849 -43066132.25949  13916999.1824   13917005.8984
  15610717.845   -32603655.10949 -25387699.57349  15610717.7454   15610724.4444
  13362226.157   -57170576.55449 -44534456.82849  13362225.6244   13362232.4814
  14910939.833   -30704192.63649 -23899155.50549  14910939.1024   14910946.7804
  16272163.755   -22790768.83949 -17731339.08849  16272162.8264   16272170.9864
  17421678.721   -34097830.68149 -26533040.38249  17421677.2544   17421685.3104
 97  3 19  4 15 59.9760000  0  8 30 21 17 26  6 23 22 10
  16937268.006   -30030488.56049 -23380790.23049  16937267.9234   16937274.4014
  17859424.829    -8181546.97549  -5927559.76849  17859424.7584   17859433.5474
  13898133.940   -57134826.86449 -43143384.81049  13898133.2134   13898140.2614
  15589979.481   -32712635.72549 -25472619.51349  15589979.2424   15589986.7964
  13353465.443   -57216614.37549 -44570330.46949  13353465.1784   13353471.6154
  14883255.714   -30849673.58049 -24012517.26949  14883254.9774   14883262.8384
  16252016.681   -22896643.53249 -17813838.85049  16252016.2934   16252023.5744
  17427899.344   -34065140.79849 -26507567.74149  17427897.9774   17427906.2124
 97  3 19  4 16 29.9760000  0  8 30 21 17 26  6 23 22 10
  16944365.348   -29993192.29549 -23351728.19449  16944365.7804   16944372.0374
  17827051.200    -8351671.32649  -6060124.15449  17827050.9194   17827059.4314
  13879312.666   -57233733.10649 -43220454.59849  13879311.6134   13879319.1774
  15569337.905   -32821107.84749 -25557143.21349  15569337.8424   15569344.8174
  13344797.788   -57262163.23149 -44605823.08749  13344797.5194   13344804.2774
  14855642.941   -30994779.49849 -24125586.79149  14855642.2034   14855649.8914
  16231968.922   -23001995.66849 -17895931.40749  16231967.9724   16231976.1814
  17434140.076   -34032345.41449 -26482012.89449  17434138.8474   17434146.9934
 97  3 19  4 16 59.9760000  0  8 30 21 17 26  6 23 22 10
  16951486.373   -29955770.86149 -23322568.63749  16951486.2104   16951493.0374
  17794723.014    -8521556.54949  -6192502.20049  17794721.8104   17794732.1064
  13860559.319   -57332282.47849 -43297246.31749  13860558.5154   13860565.7844
  15548812.565   -32928969.34849 -25641191.12549  15548812.6414   15548819.4474
  13336243.998   -57307113.78949 -44640849.50549  13336243.6014   13336250.2874
  14828122.681   -31139399.14449 -24238277.40949  14828122.1254   14828129.4374
  16212043.710   -23106703.70549 -17977522.08949  16212043.0164   16212049.1204
  17440423.153   -33999327.78949 -26456284.87249  17440422.3774   17440430.4984
 97  3 19  4 17 29.9760000  0  8 30 21 17 26  6 23 22 10
  16958598.089   -29918398.46149 -23293447.27749  16958597.7074   16958604.3454
  17762409.544    -8691364.63049  -6324820.14949  17762407.8414   17762418.6294
  13841841.076   -57430647.59949 -43373894.45449  13841840.1634   13841847.4444
  15528371.994   -33036385.67549 -25724892.13349  15528371.9524   15528378.3954
  13327771.534   -57351637.04249 -44675542.95449  13327771.3464   13327777.9234
  14800664.091   -31283694.90549 -24350715.65049  14800663.3244   14800670.5944
  16192211.813   -23210921.45349 -18058730.71149  16192211.2054   16192218.3294
  17446714.094   -33966268.70049 -26430524.53249  17446712.8924   17446721.2064
 97  3 19  4 17 59.9760000  0  8 30 21 17 26  6 23 22 10
  16965726.018   -29880940.55449 -23264259.28049  16965725.9324   16965732.3424
  17730136.818    -8860958.54749  -6456971.20849  17730136.2324   17730145.1004
  13823182.103   -57528700.83649 -43450299.56449  13823181.4114   13823188.5244
  15508042.517   -33143217.86349 -25808137.96449  15508041.7364   15508049.3894
  13319406.927   -57395593.65349 -44709794.86649  13319406.8964   13319413.5144
  14773293.420   -31427528.72249 -24462793.92749  14773292.7224   14773300.3864
  16172496.169   -23314527.60649 -18139462.77349  16172495.6244   16172501.7564
  17453036.861   -33933041.97849 -26404633.58449  17453035.7254   17453043.8554
 97  3 19  4 18 29.9760000  0  8 30 21 17 26  6 23 22 10
  16972869.426   -29843401.50149 -23235008.07249  16972869.9874   16972876.0164
  17697901.912    -9030353.96049  -6588967.59849  17697901.4384   17697909.9504
  13804584.212   -57626433.56049 -43526454.92449  13804583.0664   13804590.8544
  15487823.866   -33249467.11749 -25890929.57849  15487824.2124   15487830.0684
  13311145.888   -57439006.09449 -44743622.75349  13311145.6064   13311152.2604
  14746007.481   -31570917.35949 -24574525.31949  14746006.7524   14746014.5234
  16152895.765   -23417528.31349 -18219723.05549  16152895.1034   16152901.3144
  17459392.149   -33899644.60649 -26378609.65749  17459391.2954   17459399.5604
 97  3 19  4 18 59.9760000  0  8 30 21 17 26  6 23 22 10
  16980026.130   -29805792.37049 -23205702.25249  16980026.3024   16980032.7784
  17665701.086    -9199570.21449  -6720824.37849  17665701.0604   17665710.2304
  13786043.243   -57723866.70949 -43602376.85149  13786042.6714   13786049.6544
  15467714.753   -33355140.56749 -25973272.51049  15467714.2844   15467721.6104
  13302983.116   -57481901.86149 -44777048.03949  13302982.9474   13302989.8064
  14718804.467   -31713870.27549 -24685917.18749  14718803.8244   14718811.3864
  16133408.488   -23519934.74949 -18299520.26249  16133407.9644   16133414.2784
  17465774.161   -33866106.96149 -26352476.43149  17465773.0674   17465781.1814
 97  3 19  4 19 29.9760000  0  8 30 21 17 26  6 23 22 10
  16987179.748   -29768199.42349 -23176409.04749  16987179.8304   16987187.3014
  17633514.390    -9368712.69349  -6852623.67349  17633513.8724   17633523.0444
  13767535.855   -57821123.73549 -43678161.53249  13767534.8044   13767542.1864
  15447695.400   -33460342.55249 -26055248.06949  15447695.7334   15447701.8784
  13294899.467   -57524381.67949 -44810149.20849  13294899.1634   13294905.7054
  14691663.431   -31856497.46849 -24797055.24749  14691662.5944   14691670.0974
  16114012.256   -23621862.76949 -18378944.69049  16114011.3324   16114017.4724
  17472158.299   -33832557.84449 -26326334.26749  17472156.4884   17472165.6214
 97  3 19  4 19 59.9760000  0  8 30 21 17 26  6 23 22 10
  16994330.724   -29730620.86749 -23147127.05449  16994330.3004   16994337.8824
  17601341.198    -9537783.97149  -6984367.47949  17601340.9554   17601350.0674
  13749060.671   -57918211.24849 -43753814.13049  13749060.0344   13749067.0024
  15427765.193   -33565076.46549 -26136858.90049  15427765.1104   15427771.5254
  13286898.012   -57566429.66749 -44842913.88749  13286897.7924   13286904.2424
  14664583.120   -31998805.58049 -24907944.67249  14664582.5214   14664589.2754
  16094707.001   -23723312.83949 -18457996.70249  16094705.8374   16094712.6494
  17478544.733   -33798996.82249 -26300182.83549  17478544.0764   17478552.2224
 97  3 19  4 20 29.9760000  0  8 30 21 17 26  6 23 22 10
  17001480.800   -29693046.41049 -23117848.25649  17001480.2304   17001487.8634
  17569183.084    -9706775.80349  -7116049.37449  17569181.7094   17569191.7924
  13730621.689   -58015108.80249 -43829318.69849  13730620.8194   13730628.1834
  15407925.112   -33669336.58049 -26218100.53249  15407924.3064   15407931.7274
  13278981.454   -57608031.70149 -44875331.06249  13278981.3824   13278987.6874
  14637564.132   -32140791.48449 -25018583.01649  14637563.4864   14637570.5744
  16075496.893   -23824262.37749 -18536658.65549  16075495.8864   16075502.8814
  17484935.876   -33765410.86249 -26274011.96049  17484934.4224   17484943.1224
 97  3 19  4 20 59.9760000  0  8 30 21 17 26  6 23 22 10
  17008641.535   -29655415.65749 -23088525.60449  17008641.0734   17008647.2234
  17537053.909    -9875615.89649  -7247613.03149  17537052.5314   17537061.2444
  13712230.066   -58111757.32749 -43904629.22749  13712229.0014   13712236.4374
  15388185.576   -33773068.08049 -26298930.25349  15388184.9814   15388191.7214
  13271165.733   -57649103.87349 -44907335.36249  13271165.6434   13271171.8224
  14610619.749   -32282385.32249 -25128915.86049  14610618.7994   14610626.0514
  16056394.269   -23924647.53149 -18614880.84649  16056393.8904   16056400.3774
  17491341.700   -33731747.77749 -26247780.98549  17491339.9374   17491348.9194
 97  3 19  4 21 29.9760000  0  8 30 21 17 26  6 23 22 10
  17015829.474   -29617642.76949 -23059092.17749  17015829.4964   17015837.3964
  17504973.033   -10044202.45849  -7378979.13849  17504972.0704   17504981.7104
  13693902.757   -58208067.84449 -43979676.37149  13693901.7594   13693909.0444
  15368563.516   -33876182.52649 -26379279.15549  15368563.4754   15368570.8854
  13263470.992   -57689539.99049 -44938844.02849  13263470.5404   13263477.3214
  14583766.423   -32423500.40849 -25238875.64849  14583765.5194   14583772.9294
  16037416.937   -24024374.35449 -18692590.04349  16037415.0794   16037423.3124
  17497782.969   -33697898.61149 -26221405.02149  17497782.2974   17497789.7794
 97  3 19  4 21 59.9760000  0  8 30 21 17 26  6 23 22 10
  17023042.942   -29579735.52349 -23029554.06549  17023043.2824   17023050.3964
  17472939.893   -10212537.74549  -7510149.43149  17472938.6464   17472948.1764
  13675643.577   -58304020.45549 -44054444.63449  13675642.6004   13675650.1374
  15349061.701   -33978665.62949 -26459136.10049  15349062.0354   15349068.9674
  13255896.139   -57729346.31549 -44969861.95149  13255895.8044   13255902.1804
  14557006.226   -32564126.06949 -25348454.06949  14557005.5354   14557012.9854
  16018567.087   -24123430.90949 -18769776.97749  16018565.8984   16018572.9754
  17504265.321   -33663833.33749 -26194860.65549  17504263.9304   17504273.0134
 97  3 19  4 22 29.9750000  0  8 30 21 17 26  6 23 22 10
  17030257.154   -29541824.87649 -23000013.30449  17030257.3984   17030264.1354
  17440934.232   -10380728.42749  -7641207.04349  17440933.1034   17440941.4004
  13657430.246   -58399732.19149 -44129025.20449  13657429.4884   13657436.7174
  15329657.976   -34080632.72949 -26538590.95949  15329657.4294   15329664.9244
  13248413.833   -57768666.04149 -45000500.70349  13248413.5544   13248419.8974
  14530317.360   -32704376.98849 -25457740.47849  14530316.7814   14530324.0504
  15999820.721   -24221943.57149 -18846540.09849  15999820.0554   15999826.5424
  17510765.560   -33629674.23749 -26168243.18349  17510763.8204   17510773.2844
